[[{"header":{"parameterUnit":"m.s-1","parameterCategory":1,"la1":30.6,"la2":29.2853,"lo1":-89.7004,"lo2":-87.6739,"dy":0.0162,"dx":0.0183,"nx":112,"ny":82,"refTime":"2024-03-24T06:00:00:Z","depth":0,"parameterNumber":2,"parameterNumberName":"U-component_of_WINDS"},"data":[0.0,0.0,0.0,0.0,0.0,0.0,0.0,0.0,0.0,0.0,0.0,0.0,0.0,0.0,0.0,0.0,0.0,0.0,0.0,0.0,0.0,0.0,0.0,0.0,0.0,0.0,0.0,0.0,0.0,0.0,0.0,0.0,0.0,0.0,0.0,0.0,0.0,0.0,0.0,0.0,0.0,0.0,0.0,0.0,0.0,0.0,0.0,0.0,0.0,0.0,0.0,0.0,0.0,0.0,0.0,0.0,0.0,0.0,0.0,0.0,0.0,0.0,0.0,0.0,0.0,0.0,0.0,0.0,0.0,0.0,0.0,0.0,0.0,0.0,0.0,0.0,0.0,0.0,0.0,0.0,0.0,0.0,0.0,0.0,0.0,0.0,0.0,0.0,0.0,0.0,-3.8225,-3.8224,-3.8336,-3.8446,-3.851,-3.7857,-3.7763,-3.8439,0.0,0.0,0.0,0.0,0.0,0.0,0.0,0.0,0.0,0.0,0.0,0.0,0.0,0.0,0.0,0.0,0.0,0.0,0.0,0.0,0.0,0.0,0.0,0.0,0.0,0.0,0.0,0.0,0.0,0.0,0.0,0.0,0.0,0.0,0.0,0.0,0.0,0.0,0.0,0.0,0.0,0.0,0.0,0.0,0.0,0.0,0.0,0.0,0.0,0.0,0.0,0.0,0.0,0.0,0.0,0.0,0.0,0.0,0.0,0.0,0.0,0.0,0.0,0.0,0.0,0.0,0.0,0.0,0.0,0.0,0.0,0.0,0.0,0.0,0.0,0.0,0.0,0.0,0.0,0.0,0.0,0.0,0.0,0.0,0.0,0.0,0.0,0.0,0.0,0.0,0.0,0.0,0.0,0.0,0.0,0.0,0.0,0.0,0.0,0.0,0.0,0.0,0.0,0.0,-3.8323,-3.8368,-3.843,-3.8494,-3.851,-3.7778,-3.7653,-3.836,0.0,0.0,0.0,0.0,0.0,0.0,0.0,0.0,0.0,0.0,0.0,0.0,0.0,0.0,0.0,0.0,0.0,0.0,0.0,0.0,0.0,0.0,0.0,0.0,0.0,0.0,0.0,0.0,0.0,0.0,0.0,0.0,0.0,0.0,0.0,0.0,0.0,0.0,0.0,0.0,0.0,0.0,0.0,0.0,0.0,0.0,0.0,0.0,0.0,0.0,0.0,0.0,0.0,0.0,0.0,0.0,0.0,0.0,0.0,0.0,0.0,0.0,0.0,0.0,0.0,0.0,0.0,0.0,0.0,0.0,0.0,0.0,0.0,0.0,0.0,0.0,0.0,0.0,0.0,0.0,0.0,0.0,0.0,0.0,0.0,0.0,0.0,0.0,0.0,0.0,0.0,0.0,0.0,0.0,0.0,0.0,0.0,0.0,0.0,0.0,0.0,0.0,0.0,-3.8242,-3.8257,-3.8289,-3.8354,-3.8218,-3.7828,-3.7491,-3.7253,-3.7165,-3.5674,0.0,0.0,0.0,0.0,0.0,0.0,0.0,0.0,0.0,0.0,0.0,0.0,0.0,0.0,0.0,0.0,0.0,0.0,0.0,0.0,0.0,0.0,0.0,0.0,0.0,0.0,0.0,0.0,0.0,0.0,0.0,0.0,0.0,0.0,0.0,0.0,0.0,0.0,0.0,0.0,0.0,0.0,0.0,0.0,0.0,0.0,0.0,0.0,0.0,0.0,0.0,0.0,0.0,0.0,0.0,0.0,0.0,0.0,0.0,0.0,0.0,0.0,0.0,0.0,0.0,0.0,0.0,0.0,0.0,0.0,0.0,0.0,0.0,0.0,0.0,0.0,0.0,0.0,0.0,0.0,0.0,0.0,0.0,0.0,0.0,0.0,0.0,0.0,0.0,0.0,0.0,0.0,0.0,0.0,0.0,0.0,0.0,0.0,0.0,0.0,0.0,0.0,-3.7789,-3.7662,-3.7678,-3.7711,-3.7503,-3.6963,-3.6803,-3.6555,-3.6102,-3.5104,0.0,0.0,0.0,0.0,0.0,0.0,0.0,0.0,0.0,0.0,0.0,0.0,0.0,0.0,0.0,0.0,0.0,0.0,0.0,0.0,0.0,0.0,0.0,0.0,0.0,0.0,0.0,0.0,0.0,0.0,0.0,0.0,0.0,0.0,0.0,0.0,0.0,0.0,0.0,0.0,0.0,0.0,0.0,0.0,0.0,0.0,0.0,0.0,0.0,0.0,0.0,0.0,0.0,0.0,0.0,0.0,0.0,0.0,0.0,0.0,0.0,0.0,0.0,0.0,0.0,0.0,0.0,0.0,0.0,0.0,0.0,0.0,0.0,0.0,0.0,0.0,0.0,0.0,0.0,0.0,0.0,0.0,0.0,0.0,0.0,0.0,0.0,0.0,0.0,0.0,0.0,0.0,0.0,0.0,0.0,0.0,0.0,0.0,0.0,0.0,0.0,0.0,-3.6557,-3.6105,-3.6161,-3.61,-3.6063,-3.6085,-3.5447,-3.5349,-3.5972,-3.4607,0.0,0.0,0.0,0.0,0.0,0.0,0.0,0.0,0.0,0.0,0.0,0.0,0.0,0.0,0.0,0.0,0.0,0.0,0.0,0.0,0.0,0.0,0.0,0.0,0.0,0.0,0.0,0.0,0.0,0.0,0.0,0.0,0.0,0.0,0.0,0.0,0.0,0.0,0.0,0.0,0.0,0.0,0.0,0.0,0.0,0.0,0.0,0.0,0.0,0.0,0.0,0.0,0.0,0.0,0.0,0.0,0.0,0.0,0.0,0.0,0.0,0.0,0.0,0.0,0.0,0.0,0.0,0.0,0.0,0.0,0.0,0.0,0.0,0.0,0.0,0.0,0.0,0.0,0.0,0.0,0.0,0.0,0.0,0.0,0.0,0.0,0.0,0.0,0.0,0.0,0.0,0.0,0.0,0.0,0.0,0.0,0.0,0.0,0.0,0.0,0.0,0.0,-3.6136,-3.597,0.0,-3.5967,-3.5781,-3.536,-3.506,-3.4804,-3.4517,0.0,0.0,0.0,0.0,0.0,0.0,0.0,0.0,0.0,0.0,0.0,0.0,0.0,0.0,0.0,0.0,0.0,0.0,0.0,0.0,0.0,0.0,0.0,0.0,0.0,0.0,0.0,0.0,0.0,0.0,0.0,0.0,0.0,0.0,0.0,0.0,0.0,0.0,0.0,0.0,0.0,0.0,0.0,0.0,0.0,0.0,0.0,0.0,0.0,0.0,0.0,0.0,0.0,0.0,0.0,0.0,0.0,0.0,0.0,0.0,0.0,0.0,0.0,0.0,0.0,0.0,0.0,0.0,0.0,0.0,0.0,0.0,0.0,0.0,0.0,0.0,0.0,0.0,0.0,0.0,0.0,0.0,0.0,0.0,0.0,0.0,0.0,0.0,0.0,0.0,0.0,0.0,0.0,0.0,0.0,0.0,0.0,0.0,0.0,0.0,0.0,0.0,-3.5539,-3.5399,-3.5261,0.0,-3.5246,-3.5042,-3.4562,-3.4526,-3.4274,-3.3665,0.0,0.0,0.0,0.0,0.0,0.0,0.0,0.0,0.0,0.0,0.0,0.0,0.0,0.0,0.0,0.0,0.0,0.0,0.0,0.0,0.0,0.0,0.0,0.0,0.0,0.0,0.0,0.0,0.0,0.0,0.0,0.0,0.0,0.0,0.0,0.0,0.0,0.0,0.0,0.0,0.0,0.0,0.0,0.0,0.0,0.0,0.0,0.0,0.0,0.0,0.0,0.0,0.0,0.0,0.0,0.0,0.0,0.0,0.0,0.0,0.0,0.0,0.0,0.0,0.0,0.0,0.0,0.0,0.0,0.0,0.0,0.0,0.0,0.0,0.0,0.0,0.0,0.0,0.0,0.0,0.0,0.0,0.0,0.0,0.0,0.0,0.0,0.0,0.0,0.0,0.0,0.0,0.0,0.0,0.0,0.0,0.0,0.0,0.0,0.0,0.0,0.0,-3.4699,-3.4154,-3.3698,-3.3698,-3.3629,-3.3633,-3.3698,-3.3698,-3.3698,0.0,0.0,0.0,0.0,0.0,0.0,0.0,0.0,0.0,0.0,0.0,0.0,0.0,0.0,0.0,0.0,0.0,0.0,0.0,0.0,0.0,0.0,0.0,0.0,0.0,0.0,0.0,0.0,0.0,0.0,0.0,0.0,0.0,0.0,0.0,0.0,0.0,0.0,0.0,0.0,0.0,0.0,0.0,0.0,0.0,0.0,0.0,0.0,0.0,0.0,0.0,0.0,0.0,0.0,0.0,0.0,0.0,0.0,0.0,0.0,0.0,0.0,0.0,0.0,0.0,0.0,0.0,0.0,0.0,0.0,0.0,0.0,0.0,0.0,0.0,0.0,0.0,0.0,0.0,0.0,0.0,0.0,0.0,0.0,0.0,0.0,0.0,0.0,0.0,0.0,0.0,0.0,0.0,0.0,0.0,0.0,0.0,0.0,0.0,0.0,0.0,0.0,0.0,-3.4,-3.3872,-3.378,-3.378,-3.3753,-3.3753,-3.378,-3.378,-3.3753,-3.3698,0.0,0.0,0.0,0.0,0.0,0.0,0.0,0.0,0.0,0.0,0.0,0.0,0.0,0.0,0.0,0.0,0.0,0.0,0.0,0.0,0.0,0.0,0.0,0.0,0.0,0.0,0.0,0.0,0.0,0.0,0.0,0.0,0.0,0.0,0.0,0.0,0.0,0.0,0.0,0.0,0.0,0.0,0.0,0.0,0.0,0.0,0.0,0.0,0.0,0.0,0.0,0.0,0.0,0.0,0.0,0.0,0.0,0.0,0.0,0.0,0.0,0.0,0.0,0.0,0.0,0.0,0.0,0.0,0.0,0.0,0.0,0.0,0.0,0.0,0.0,0.0,0.0,0.0,0.0,0.0,0.0,0.0,0.0,0.0,0.0,0.0,0.0,0.0,0.0,0.0,0.0,0.0,0.0,0.0,0.0,0.0,0.0,0.0,0.0,0.0,0.0,0.0,-3.3712,-3.3766,-3.3807,-3.3807,-3.3807,-3.3807,-3.3807,-3.3807,-3.3793,-3.3739,0.0,0.0,0.0,0.0,0.0,0.0,0.0,0.0,0.0,0.0,0.0,0.0,0.0,0.0,0.0,0.0,0.0,0.0,0.0,0.0,0.0,0.0,0.0,0.0,0.0,0.0,0.0,0.0,0.0,0.0,0.0,0.0,0.0,0.0,0.0,0.0,0.0,0.0,0.0,0.0,0.0,0.0,0.0,0.0,0.0,0.0,0.0,0.0,0.0,0.0,0.0,0.0,0.0,0.0,0.0,0.0,0.0,0.0,0.0,0.0,0.0,0.0,0.0,0.0,0.0,0.0,0.0,0.0,0.0,0.0,0.0,0.0,0.0,0.0,0.0,0.0,0.0,0.0,0.0,0.0,0.0,0.0,0.0,0.0,0.0,0.0,0.0,0.0,0.0,0.0,0.0,0.0,0.0,0.0,0.0,0.0,0.0,0.0,0.0,0.0,0.0,0.0,-3.3712,-3.3766,-3.3807,-3.3807,-3.3807,-3.3807,-3.3807,-3.3807,-3.3807,-3.3807,0.0,0.0,0.0,0.0,0.0,0.0,0.0,0.0,0.0,0.0,0.0,0.0,0.0,0.0,0.0,0.0,0.0,0.0,0.0,0.0,0.0,0.0,0.0,0.0,0.0,0.0,0.0,0.0,0.0,0.0,0.0,0.0,0.0,0.0,0.0,0.0,0.0,0.0,0.0,0.0,0.0,0.0,0.0,0.0,0.0,0.0,0.0,0.0,0.0,0.0,0.0,0.0,0.0,0.0,0.0,0.0,0.0,0.0,0.0,0.0,-3.866,0.0,0.0,0.0,0.0,0.0,0.0,0.0,0.0,0.0,0.0,0.0,0.0,0.0,0.0,0.0,0.0,0.0,0.0,0.0,0.0,0.0,0.0,0.0,0.0,0.0,0.0,0.0,0.0,0.0,0.0,0.0,0.0,0.0,0.0,0.0,0.0,0.0,0.0,0.0,0.0,0.0,-3.378,-3.3793,-3.3807,-3.3807,-3.3807,-3.3807,-3.3807,-3.3807,-3.3807,-3.3807,-3.3739,0.0,0.0,0.0,0.0,0.0,0.0,0.0,0.0,0.0,0.0,0.0,0.0,0.0,0.0,0.0,0.0,0.0,0.0,0.0,0.0,0.0,0.0,0.0,0.0,0.0,0.0,0.0,0.0,0.0,0.0,0.0,0.0,0.0,0.0,0.0,0.0,0.0,0.0,0.0,0.0,0.0,0.0,0.0,0.0,0.0,0.0,0.0,0.0,0.0,0.0,0.0,0.0,0.0,0.0,0.0,0.0,0.0,0.0,0.0,0.0,-3.9366,0.0,0.0,0.0,0.0,0.0,0.0,0.0,0.0,0.0,0.0,0.0,0.0,0.0,0.0,0.0,0.0,0.0,0.0,0.0,0.0,0.0,0.0,0.0,0.0,0.0,0.0,0.0,0.0,0.0,0.0,0.0,0.0,0.0,0.0,0.0,0.0,0.0,0.0,0.0,0.0,-3.3807,-3.3807,-3.3807,-3.3807,-3.3807,-3.3807,-3.3807,-3.3807,-3.3807,-3.3807,-3.3766,0.0,0.0,0.0,0.0,0.0,0.0,0.0,0.0,0.0,0.0,0.0,0.0,0.0,0.0,0.0,0.0,0.0,0.0,0.0,0.0,0.0,0.0,0.0,0.0,0.0,0.0,0.0,0.0,0.0,0.0,0.0,0.0,0.0,0.0,0.0,0.0,0.0,0.0,0.0,0.0,0.0,0.0,0.0,0.0,0.0,0.0,0.0,0.0,0.0,0.0,0.0,0.0,0.0,-4.1109,-4.1129,-4.1129,-4.1129,-4.111,-4.1111,-4.1052,-4.0606,-3.9917,0.0,0.0,0.0,0.0,0.0,0.0,0.0,0.0,0.0,0.0,0.0,0.0,0.0,0.0,0.0,0.0,0.0,0.0,0.0,0.0,0.0,0.0,0.0,0.0,0.0,-3.5372,-3.535,0.0,0.0,0.0,0.0,0.0,0.0,0.0,0.0,0.0,0.0,0.0,0.0,-3.3807,-3.3807,-3.382,-3.3855,-3.3834,-3.3815,-3.3855,-3.3834,-3.3807,-3.3807,-3.3807,-3.378,0.0,0.0,0.0,0.0,0.0,0.0,0.0,0.0,0.0,0.0,0.0,0.0,0.0,0.0,0.0,0.0,0.0,0.0,0.0,0.0,0.0,0.0,0.0,0.0,0.0,0.0,0.0,0.0,0.0,0.0,0.0,0.0,-4.0468,-4.0468,0.0,0.0,0.0,0.0,0.0,0.0,0.0,0.0,0.0,0.0,0.0,0.0,0.0,0.0,-4.1107,-4.109,-4.1091,-4.1091,-4.1152,-4.1191,-4.1191,-4.1191,-4.1191,-4.1191,-4.1171,0.0,-4.0838,-4.0812,0.0,0.0,0.0,0.0,0.0,0.0,0.0,0.0,0.0,0.0,0.0,0.0,0.0,0.0,0.0,0.0,0.0,0.0,0.0,0.0,0.0,0.0,-3.5467,-3.5467,-3.5486,-3.5486,0.0,-3.5215,-3.4935,-3.4724,0.0,0.0,0.0,0.0,0.0,0.0,0.0,0.0,-3.3807,-3.3807,-3.3881,-3.4124,-3.3934,-3.3895,-3.4124,-3.3934,-3.3807,-3.3807,-3.3807,-3.3807,-3.3793,-3.3739,0.0,0.0,0.0,0.0,0.0,0.0,0.0,0.0,0.0,0.0,0.0,0.0,0.0,0.0,0.0,0.0,0.0,0.0,0.0,0.0,0.0,0.0,0.0,0.0,0.0,0.0,0.0,0.0,0.0,-4.0797,-4.0797,-4.0797,-4.0797,-4.0797,0.0,0.0,0.0,0.0,0.0,0.0,0.0,0.0,0.0,-4.1055,-4.1085,-4.1112,-4.1151,-4.1152,-4.1152,-4.1152,-4.1191,-4.1191,-4.1191,-4.1191,-4.1191,-4.1191,-4.1191,-4.1171,-4.1105,-4.1063,-4.1,-4.0905,0.0,0.0,0.0,0.0,0.0,-3.9485,-3.8653,0.0,0.0,0.0,0.0,0.0,0.0,0.0,0.0,0.0,0.0,0.0,0.0,0.0,0.0,-3.5493,-3.55,-3.55,-3.55,-3.5383,-3.5246,0.0,-3.4925,-3.4705,-3.4456,0.0,0.0,0.0,0.0,-3.416,-3.4049,-3.4023,-3.4011,-3.3985,-3.3868,-3.386,-3.3972,-3.3855,-3.3807,-3.3807,-3.3807,-3.3807,-3.3807,-3.378,-3.3739,0.0,0.0,0.0,0.0,0.0,0.0,0.0,0.0,0.0,0.0,0.0,0.0,0.0,0.0,0.0,0.0,0.0,0.0,0.0,0.0,0.0,0.0,0.0,0.0,0.0,0.0,0.0,0.0,-4.079,-4.0797,-4.0797,-4.0797,-4.0797,0.0,0.0,0.0,0.0,0.0,0.0,-4.0888,-4.0941,-4.1014,-4.1074,-4.1085,-4.1122,-4.1191,-4.1191,-4.1191,-4.1191,-4.1191,-4.1191,-4.1191,-4.1191,-4.1191,-4.1191,-4.1191,-4.1191,-4.1191,-4.1152,-4.1087,-4.1028,-4.1023,-4.0959,-4.0877,-4.0883,-4.0494,-3.9838,-3.8809,-3.8037,-3.7318,-3.6263,0.0,-3.588,-3.5787,0.0,0.0,0.0,0.0,-3.5565,-3.5605,0.0,-3.5456,-3.5481,-3.55,-3.55,-3.55,-3.5493,-3.546,0.0,-3.5211,-3.4952,-3.4755,0.0,0.0,0.0,0.0,-3.4464,-3.4309,-3.4274,-3.4227,-3.4105,-3.3967,-3.3921,-3.3979,-3.3868,-3.3807,-3.3807,-3.3855,-3.3895,-3.3895,-3.3895,-3.3868,-3.3815,0.0,0.0,0.0,0.0,0.0,0.0,0.0,0.0,0.0,0.0,0.0,0.0,0.0,0.0,0.0,0.0,0.0,0.0,0.0,0.0,0.0,0.0,0.0,0.0,0.0,0.0,0.0,0.0,0.0,-4.0797,-4.0797,0.0,0.0,0.0,0.0,-4.0797,-4.0867,-4.0863,-4.0809,-4.0928,-4.0994,-4.0997,-4.107,-4.1122,-4.1191,-4.1191,-4.1191,-4.1191,-4.1191,-4.1191,-4.1191,-4.1191,-4.1191,-4.1191,-4.1191,-4.1191,-4.1191,-4.1191,-4.1152,-4.1091,-4.1091,-4.1089,-4.1085,-4.1085,-4.1065,-4.0791,-3.9166,-3.8559,-3.8245,-3.6558,-3.5947,-3.5908,-3.5886,-3.5801,0.0,0.0,-3.5794,-3.5689,-3.5689,-3.5641,-3.5568,-3.5515,-3.55,-3.55,-3.55,-3.5453,-3.542,0.0,-3.542,-3.532,-3.5113,0.0,-3.487,-3.4614,-3.4601,-3.4561,-3.4497,-3.4486,-3.4591,-3.4821,-3.4446,-3.4262,-3.4453,-3.4049,-3.3807,-3.3807,-3.4036,-3.4185,-3.4185,-3.4185,-3.4173,-3.4173,-3.3855,0.0,0.0,0.0,0.0,0.0,0.0,0.0,0.0,0.0,0.0,0.0,0.0,0.0,0.0,0.0,0.0,0.0,0.0,0.0,0.0,0.0,0.0,0.0,0.0,0.0,0.0,0.0,0.0,-4.0739,-4.0759,0.0,-4.0797,-4.0797,-4.0797,-4.0797,-4.082,-4.0825,-4.0797,-4.0859,-4.0893,-4.0937,-4.0994,-4.107,-4.1123,-4.1171,-4.1191,-4.1191,-4.1191,-4.1191,-4.1191,-4.1191,-4.1191,-4.1191,-4.1191,-4.1191,-4.1191,-4.1191,-4.1191,-4.1152,-4.1152,-4.1152,-4.1151,-4.1111,-4.1091,-4.0856,-3.9173,-3.8605,-3.8311,-3.6568,-3.5971,-3.5955,-3.5955,-3.5923,-3.5895,-3.5951,-3.5902,-3.5833,-3.5833,-3.5715,-3.5596,-3.557,-3.5528,-3.55,-3.55,-3.5467,-3.5467,-3.55,-3.5412,-3.5285,-3.513,-3.5155,-3.5119,-3.4898,-3.4971,-3.4988,-3.4775,-3.4765,-3.4735,-3.4653,-3.4486,-3.442,-3.4497,-3.4353,-3.4249,-3.4249,-3.433,-3.4375,-3.4375,-3.4375,-3.4375,-3.4375,-3.4272,-3.4136,0.0,0.0,0.0,0.0,0.0,0.0,0.0,0.0,0.0,0.0,0.0,0.0,0.0,0.0,0.0,0.0,0.0,0.0,0.0,0.0,0.0,0.0,0.0,0.0,0.0,0.0,-4.0571,-4.0571,-4.0687,-4.0778,-4.0778,-4.079,-4.0797,-4.0797,-4.0797,-4.0797,-4.0797,-4.0797,-4.0831,-4.0903,-4.1229,-4.1434,-4.15,-4.1853,-4.2031,-4.2031,-4.1758,-4.1601,-4.1601,-4.1328,-4.1191,-4.1191,-4.1191,-4.1191,-4.1191,-4.1191,-4.1191,-4.1191,-4.1191,-4.1191,-4.1191,-4.1152,-4.1132,-4.0897,-3.9196,-3.8413,-3.7923,-3.6475,-3.6001,-3.5996,-3.5994,-3.5992,-3.5992,-3.5992,-3.5976,-3.5931,-3.5914,-3.5802,-3.5679,-3.5629,-3.5564,-3.5522,-3.5494,-3.55,-3.55,-3.55,-3.542,-3.5342,-3.5246,-3.532,-3.53,-3.5127,-3.5235,-3.5251,-3.506,-3.5032,-3.4971,-3.4793,-3.4695,-3.4615,-3.4624,-3.4494,-3.442,-3.4497,-3.4508,-3.454,-3.4632,-3.4551,-3.4508,-3.4508,-3.4431,-3.4302,-3.4099,0.0,0.0,0.0,0.0,0.0,0.0,0.0,0.0,0.0,0.0,0.0,0.0,0.0,0.0,0.0,0.0,0.0,0.0,0.0,0.0,0.0,0.0,0.0,-3.9891,-4.0129,-4.03,-4.03,-4.053,-4.0694,-4.0694,-4.0752,-4.081,-4.0829,-4.0829,-4.0855,-4.0874,-4.0874,-4.0909,-4.0976,-4.1793,-4.227,-4.2336,-4.3239,-4.3691,-4.3691,-4.2832,-4.2441,-4.2402,-4.1601,-4.123,-4.123,-4.1211,-4.1191,-4.1191,-4.1191,-4.1191,-4.1191,-4.1191,-4.1191,-4.1191,-4.1191,-4.1172,-4.0918,-3.9238,-3.8064,-3.7202,-3.6358,-3.6083,-3.6081,-3.6054,-3.6031,-3.6031,-3.6012,-3.5992,-3.5985,-3.5924,-3.5892,-3.5859,-3.5669,-3.5618,-3.5579,-3.5521,-3.5507,-3.5507,-3.55,-3.55,-3.55,-3.55,-3.55,-3.546,-3.5323,-3.5364,0.0,-3.53,-3.5304,-3.5293,-3.5293,-3.5079,-3.4907,-3.4898,-3.4491,-3.4321,-3.4518,-3.4529,-3.4643,-3.4908,-3.4663,-3.4529,-3.4529,-3.4314,-3.4197,-3.4124,0.0,0.0,0.0,0.0,0.0,0.0,0.0,0.0,0.0,0.0,0.0,0.0,0.0,0.0,0.0,0.0,0.0,0.0,0.0,0.0,0.0,-3.9279,-3.9464,-3.9848,-4.0091,-4.0229,-4.0229,-4.0466,-4.0628,-4.0628,-4.0635,-4.0945,-4.1622,-4.168,-4.1944,-4.2589,-4.2609,-4.2621,-4.264,-4.2927,-4.3091,-4.3093,-4.3448,-4.3637,-4.3637,-4.3436,-4.334,-4.3301,-4.2461,-4.207,-4.2031,-4.1445,-4.1191,-4.1191,-4.1191,-4.1191,-4.1191,-4.1191,-4.1191,-4.1191,-4.1191,-4.0801,-4.0195,-3.9707,-3.8964,-3.8201,-3.7966,-3.7886,-3.7766,-3.7137,-3.6939,-3.6802,-3.6189,-3.5992,-3.5991,-3.5981,-3.5936,-3.588,-3.5824,-3.5749,-3.5655,-3.5585,-3.5575,-3.5565,-3.5501,-3.55,-3.55,-3.55,-3.55,-3.5493,-3.5453,0.0,0.0,-3.5383,-3.5364,-3.5342,-3.5319,-3.5226,-3.5166,-3.5115,-3.5,-3.4944,-3.4999,-3.5018,-3.5044,-3.5115,-3.5044,-3.5018,-3.5018,-3.4803,-3.4672,0.0,0.0,0.0,0.0,0.0,0.0,0.0,0.0,0.0,0.0,0.0,0.0,0.0,0.0,0.0,0.0,0.0,0.0,0.0,0.0,0.0,0.0,-3.9101,-3.9219,-3.9519,-3.9754,-3.9934,-4.0024,-4.0273,-4.0627,-4.1099,-4.114,-4.1521,-4.243,-4.2507,-4.2714,-4.3239,-4.3258,-4.3265,-4.3305,-4.3718,-4.3947,-4.3947,-4.4434,-4.4697,-4.4697,-4.4391,-4.4238,-4.4219,-4.334,-4.2949,0.0,-4.2051,-4.1699,-4.168,-4.1348,-4.1191,0.0,0.0,0.0,0.0,0.0,-4.0879,-4.0391,-4.0039,-3.957,-3.9082,-3.873,-3.8592,-3.8512,-3.8001,-3.7842,-3.7741,-3.7229,-3.6834,-3.6539,-3.6539,-3.6231,-3.5936,-3.5914,-3.584,-3.5768,-3.566,-3.5636,-3.5625,-3.5559,0.0,0.0,-3.5494,-3.55,-3.5493,-3.546,-3.5474,-3.5486,0.0,-3.542,-3.5424,-3.5346,-3.5339,-3.5304,-3.5239,-3.5138,0.0,0.0,0.0,-3.5072,-3.5072,-3.5072,0.0,0.0,0.0,-3.487,0.0,0.0,0.0,0.0,-3.3671,-3.3605,0.0,0.0,0.0,0.0,0.0,0.0,0.0,0.0,0.0,0.0,0.0,0.0,0.0,0.0,0.0,0.0,-3.9101,-3.9101,-3.9101,-3.9386,-3.9676,-3.9883,-4.0147,-4.0745,-4.1881,-4.1986,-4.2356,-4.3273,-4.3331,-4.3392,-4.3487,0.0,0.0,0.0,0.0,-4.481,-4.481,-4.5725,-4.6171,-4.6177,-4.5462,-4.5136,-4.5117,-4.4238,-4.3847,-4.3808,-4.293,-4.248,-4.2344,-4.1621,-4.1289,-4.1191,-4.1191,-4.1191,-4.1191,-4.1191,-4.1191,0.0,0.0,0.0,0.0,-3.914,-3.8886,-3.8866,-3.8786,-3.8743,-3.8739,-3.8621,-3.805,-3.7459,-3.7458,-3.6872,-3.6259,-3.6104,-3.6055,-3.6,-3.5768,-3.5714,-3.5704,-3.563,-3.5609,-3.559,-3.5534,-3.5501,-3.5486,-3.542,-3.546,0.0,-3.542,-3.546,-3.5467,-3.5412,0.0,0.0,-3.5315,-3.5075,-3.5051,-3.5285,-3.5072,-3.4945,-3.4926,-3.4926,-3.4926,-3.4926,-3.4926,-3.4926,-3.4926,-3.4674,-3.4461,-3.4281,-3.3815,-3.3615,0.0,0.0,0.0,0.0,0.0,0.0,0.0,0.0,0.0,0.0,0.0,0.0,0.0,0.0,0.0,-3.9101,-3.9101,-3.9101,-3.9101,-3.9751,-4.0298,-4.0497,-4.0761,-4.1343,-4.2451,-4.2546,-4.2994,-4.4094,-4.4168,-4.4473,-4.5175,-4.5263,0.0,-4.5312,-4.5485,-4.5596,-4.5596,-4.588,-4.608,-4.6122,0.0,0.0,-4.6015,-4.5089,-4.4699,-4.4707,-4.3828,-4.3047,-4.2383,-4.2226,-4.1797,-4.1191,-4.1191,-4.1191,-4.1191,-4.1191,-4.1191,-4.1172,-4.1016,-4.0957,-4.0918,-4.0742,-4.0703,-4.0566,-3.9862,-3.9646,0.0,-3.8798,-3.8483,-3.8344,-3.8358,-3.822,-3.7926,-3.7196,-3.7038,-3.6813,-3.6022,-3.5852,-3.583,-3.5709,-3.5672,-3.5683,-3.5664,-3.557,-3.55,-3.5474,-3.5493,-3.55,-3.5474,-3.5493,-3.5467,-3.5412,-3.5405,-3.5372,-3.5315,-3.5251,-3.5243,-3.5293,-3.525,-3.5193,-3.5141,-3.5132,-3.5132,-3.5132,-3.5132,-3.5132,-3.5132,-3.4926,-3.4812,-3.4752,-3.4062,-3.3766,0.0,0.0,0.0,0.0,0.0,0.0,0.0,0.0,0.0,0.0,0.0,-3.9101,-3.9101,0.0,-3.9101,-3.9101,-3.9101,-3.925,-3.9677,-4.0123,-4.0458,-4.0684,-4.1161,-4.1929,-4.2992,-4.3217,-4.3713,-4.4719,-4.4914,-4.5203,-4.5676,-4.573,-4.5754,-4.5758,-4.5776,-4.5798,-4.5798,-4.5935,-4.6027,-4.6059,-4.608,-4.6137,-4.6183,-4.5711,-4.5518,-4.55,-4.4656,-4.3801,-4.2943,-4.2128,-4.1562,-4.1191,-4.1191,-4.1191,-4.1191,-4.1191,-4.1191,-4.1191,-4.1191,-4.1191,-4.1191,-4.1191,-4.1191,-4.1113,-4.0683,-4.0526,-4.0408,-3.9975,-3.9563,-3.9248,-3.9245,-3.8931,-3.8499,-3.8049,-3.7948,-3.7708,-3.6791,-3.659,-3.6441,-3.5892,-3.5801,-3.5787,-3.5706,-3.5636,-3.5579,-3.5559,-3.5528,-3.55,-3.55,-3.55,-3.5493,-3.5453,-3.5453,-3.5446,-3.5405,-3.5372,-3.5342,-3.5304,-3.53,-3.5269,-3.5209,-3.5209,-3.5209,-3.5209,-3.5209,-3.5209,-3.5209,-3.5001,-3.4908,-3.4898,-3.4375,-3.4087,0.0,0.0,0.0,0.0,0.0,0.0,0.0,-3.8203,-3.8481,-3.8728,-3.8964,-3.9101,-3.9101,-3.9101,-3.9101,-3.9101,-3.9101,-3.9398,-4.0285,-4.0527,-4.0761,-4.1074,-4.1681,-4.25,-4.3567,-4.387,-4.4331,-4.5133,-4.541,-4.5568,-4.5665,-4.5693,-4.5698,-4.5692,-4.575,-4.58,-4.5807,-4.5912,-4.5975,-4.6002,-4.6026,-4.6049,-4.6098,-4.6084,-4.6087,-4.6043,-4.5236,-4.4393,-4.3478,-4.2002,-4.1304,-4.1168,-4.117,-4.117,-4.1168,-4.1191,-4.1191,-4.1191,-4.1191,-4.1191,-4.1191,-4.1191,-4.1191,-4.1191,-4.1191,-4.1152,-4.1112,-4.1092,-4.0621,-4.0131,-4.0131,-3.9601,-3.9051,-3.8895,-3.8853,-3.8615,-3.7734,-3.7421,-3.7082,-3.6324,-3.6041,-3.5889,-3.5774,-3.5753,-3.5713,-3.5635,-3.5552,-3.5521,-3.5521,-3.552,-3.55,-3.55,-3.55,-3.55,-3.55,-3.5453,-3.5383,-3.5308,-3.53,-3.5277,-3.5209,-3.5209,-3.5209,-3.5209,-3.5209,-3.5209,-3.5209,-3.5037,-3.4964,-3.4945,-3.4694,-3.445,-3.7353,-3.7447,-3.7595,-3.7595,-3.7595,-3.7667,0.0,-3.8203,-3.8481,-3.8728,-3.8964,-3.9101,-3.9101,-3.9101,-3.9101,-3.9101,-3.9101,-3.9398,-4.0285,-4.1014,-4.1735,-4.2471,-4.2638,-4.3125,-4.4204,-4.4334,-4.4575,-4.515,-4.5222,-4.5352,-4.5594,-4.5676,-4.5701,-4.5709,-4.5711,-4.5731,-4.5807,-4.581,-4.588,-4.5997,-4.5886,-4.5936,-4.6098,-4.6041,-4.605,-4.6043,-4.5189,-4.4316,-4.3442,-4.2473,-4.1674,-4.1039,-4.1081,-4.1074,-4.1044,-4.1167,-4.1191,-4.1191,-4.1191,-4.1191,-4.1191,-4.1191,-4.1191,-4.1191,-4.1191,-4.1191,-4.1172,-4.1112,-4.1033,-4.0974,-4.0971,-4.0892,-4.0637,-3.9915,-3.9759,-3.9523,-3.8639,-3.7858,-3.727,-3.7162,-3.6515,-3.5986,-3.5962,-3.5912,-3.5837,-3.5717,-3.564,-3.5585,-3.5585,-3.5541,-3.55,-3.55,-3.55,-3.55,-3.55,-3.5493,-3.5427,-3.5308,-3.53,-3.527,-3.5209,-3.5209,-3.5209,-3.5209,-3.5209,-3.5209,-3.5209,-3.5185,-3.5176,-3.5157,-3.4945,-3.462,-3.7466,-3.7539,-3.7595,-3.7595,-3.7595,-3.7667,-3.7932,-3.8086,-3.8285,-3.8713,-3.8862,-3.8946,-3.9073,-3.9101,-3.9101,0.0,-3.9528,-4.0141,-4.0977,-4.1776,-4.2593,-4.3392,-4.3503,-4.3676,-4.4129,-4.4303,-4.4559,-4.495,-4.5107,-4.5322,-4.5586,-4.5631,-4.564,-4.564,-4.5682,-4.5714,-4.5738,-4.5785,-4.5824,-4.588,-4.5827,-4.5848,-4.5911,-4.5898,-4.5944,-4.5987,-4.5122,-4.4281,-4.3432,-4.2549,-4.1731,-4.0994,-4.1022,-4.1017,-4.1028,-4.1146,-4.117,-4.1146,-4.1191,-4.1191,-4.1191,-4.1191,-4.1191,-4.1191,-4.1191,-4.1191,-4.1191,-4.1172,-4.1152,-4.1152,-4.1151,-4.1131,-4.1012,-4.068,-4.0601,-4.0365,-3.9542,-3.9074,-3.8663,-3.8168,-3.7347,-3.676,-3.6755,-3.6313,-3.5945,-3.5885,-3.5753,-3.566,-3.566,-3.564,-3.5602,-3.5558,-3.5515,-3.55,-3.55,-3.55,-3.546,-3.5364,-3.5364,-3.5327,-3.5269,-3.5261,-3.5234,-3.5209,-3.5209,-3.5209,-3.5209,-3.5209,-3.5209,-3.5201,-3.5107,-3.4908,-3.7466,-3.7521,-3.7539,-3.7594,-3.7595,-3.7649,-3.7863,-3.7949,-3.8136,-3.8606,-3.8762,-3.8848,-3.9059,-3.9101,-3.9101,-3.9101,-3.9825,-4.0694,-4.1479,-4.2296,-4.3095,-4.3893,-4.4005,-4.4005,-4.4005,-4.4181,-4.4402,-4.4663,-4.495,-4.5161,-4.5362,-4.5513,-4.5568,-4.5495,-4.5614,-4.5684,-4.5701,-4.5746,-4.5777,-4.5773,-4.5757,-4.5771,-4.5771,-4.5786,-4.5854,-4.5914,-4.5281,-4.4418,-4.3404,-4.2758,-4.1878,-4.0953,-4.0972,-4.0968,-4.0968,-4.1104,-4.1115,-4.1078,-4.1139,-4.1144,-4.1145,-4.1169,-4.117,-4.117,-4.1191,-4.1191,-4.1191,-4.1191,-4.1191,-4.1191,-4.1191,-4.1152,-4.1132,-4.1132,-4.1131,-4.0953,-4.0366,-4.0054,-3.9702,-3.9072,-3.8252,-3.7587,-3.7346,-3.6777,-3.6288,-3.6031,-3.588,-3.5774,-3.5756,-3.5714,-3.5672,-3.5621,-3.5574,-3.5559,-3.5559,-3.5541,-3.5509,-3.543,-3.5407,-3.5376,-3.5308,-3.5308,-3.5285,-3.5226,-3.5226,-3.5218,-3.5209,-3.5209,-3.5209,-3.5209,-3.5209,-3.5115,-3.7259,-3.7297,-3.7353,-3.754,-3.7595,-3.7595,-3.7613,-3.781,-3.8086,-3.835,-3.8621,-3.8848,-3.9059,-3.9101,-3.9101,-3.9101,-3.9825,-4.0694,-4.1479,-4.2296,-4.3095,-4.3893,-4.4005,-4.4005,0.0,-4.402,-4.4121,-4.4402,-4.4663,-4.4831,-4.4812,-4.5322,-4.5485,-4.5222,-4.5476,-4.564,-4.5701,-4.5701,-4.5706,-4.5708,-4.5708,-4.5708,-4.5708,-4.5773,-4.5791,-4.5794,-4.5775,-4.4827,-4.3299,-4.3279,-4.2293,-4.0821,-4.0873,-4.0867,-4.082,-4.0964,-4.0997,-4.0994,-4.1016,-4.1016,-4.1028,-4.108,-4.1091,-4.1116,-4.1171,-4.1191,-4.1191,-4.1191,-4.1191,-4.1191,-4.1191,-4.1191,-4.1191,-4.1191,-4.1191,-4.1172,-4.1073,-4.0448,-3.9881,-3.9877,-3.9155,-3.8295,-3.7451,-3.7274,-3.6978,-3.613,-3.5991,-3.5978,-3.5894,-3.5787,-3.5698,-3.5693,-3.5689,-3.5689,-3.5689,-3.5626,-3.5571,-3.5498,-3.5431,-3.5372,-3.5308,-3.5308,-3.5304,-3.5304,-3.5304,-3.5269,-3.5209,-3.5209,-3.5209,-3.5209,-3.5209,-3.5201,-3.7278,-3.7391,-3.7521,-3.7577,-3.7595,-3.7595,-3.7595,-3.781,-3.8069,-3.8334,-3.8621,-3.8848,-3.9059,-3.9101,-3.9101,-3.9101,-3.9825,-4.0694,-4.1479,-4.2296,-4.3095,-4.3893,-4.4005,0.0,0.0,0.0,0.0,-4.4388,-4.4479,-4.4612,-4.4788,-4.5129,-4.5283,-4.5201,-4.5448,-4.5622,-4.564,-4.5684,-4.5709,-4.5706,-4.5692,-4.5708,-4.5708,-4.5723,-4.5765,-4.581,-4.581,-4.5179,-4.411,-4.3537,-4.2628,-4.1551,-4.1033,-4.0814,-4.0803,-4.0851,-4.0877,-4.0878,-4.0979,-4.099,-4.0997,-4.1037,-4.1025,-4.1047,-4.1064,-4.1068,-4.1074,-4.1117,-4.1122,-4.1144,-4.1191,-4.1191,-4.1191,-4.1191,-4.1191,-4.1191,-4.1172,-4.0957,-4.0742,-4.0701,-4.0037,-3.9372,-3.9075,-3.8079,-3.7004,-3.6139,-3.5996,-3.5988,-3.5976,-3.5894,-3.5837,-3.5837,-3.5753,-3.5698,-3.5698,-3.5687,-3.5669,-3.5621,-3.5577,-3.5495,-3.5445,-3.5383,-3.535,-3.5312,-3.5312,-3.5289,-3.5269,-3.5269,-3.5234,-3.5209,-3.5209,-3.5209,-3.7259,-3.7391,-3.7521,-3.7577,-3.7595,-3.7595,-3.7595,-3.7739,-3.7932,-3.8203,-3.8399,-3.8603,-3.8931,-3.8989,-3.9017,-3.9087,-4.0067,-4.101,-4.1534,-4.2537,-4.3429,-4.3949,-4.4005,-4.4005,0.0,0.0,0.0,-4.425,-4.4346,-4.4425,-4.4511,-4.4861,-4.5063,-4.5063,-4.5322,-4.5504,-4.5594,-4.564,-4.5657,-4.5657,-4.5662,-4.5687,-4.5703,-4.5703,-4.5727,-4.5765,-4.5765,-4.529,-4.4455,-4.3612,-4.2742,-4.1873,-4.1081,-4.0752,-4.0778,-4.079,-4.0797,-4.0821,-4.0907,-4.0928,-4.0932,-4.0964,-4.0953,-4.0976,-4.0984,-4.099,-4.1,-4.1059,-4.1068,-4.1074,-4.1115,-4.1145,-4.1169,-4.1169,-4.1171,-4.1191,-4.1191,-4.1191,-4.1191,-4.1132,-4.0722,-4.0272,-3.9957,-3.8452,-3.7103,-3.6552,-3.6195,-3.5996,-3.5992,-3.5953,-3.5936,-3.5936,-3.5864,-3.582,-3.582,-3.5797,-3.5749,-3.5698,-3.5645,-3.5579,-3.5495,-3.5456,-3.5405,-3.533,-3.535,-3.5308,-3.5289,-3.5289,-3.5293,-3.5245,-3.5245,-3.5218,-3.7182,-3.7297,-3.7353,-3.754,-3.7595,-3.7595,-3.7595,-3.7613,-3.7685,-3.7949,-3.8018,-3.817,-3.8683,-3.8792,-3.8862,-3.9059,-4.0438,-4.1479,-4.1534,-4.289,-4.3893,0.0,0.0,0.0,0.0,0.0,0.0,-4.4005,0.0,-4.4279,-4.4002,-4.4498,-4.4776,-4.4776,-4.5052,-4.5322,-4.5577,-4.5586,-4.5594,-4.5594,-4.5594,-4.5631,-4.5701,-4.5701,-4.5698,-4.57,-4.57,-4.5237,-4.44,-4.3539,-4.271,-4.1873,-4.1028,-4.0694,-4.07,-4.0778,-4.079,-4.079,-4.079,-4.0797,-4.0815,-4.0868,-4.0898,-4.0917,-4.0979,-4.0981,-4.0981,-4.0984,-4.0987,-4.1007,-4.099,-4.1054,-4.1087,-4.1087,-4.1145,-4.1191,-4.1191,-4.1191,-4.1191,-4.1191,-4.1191,-4.0918,-4.0058,-3.8532,-3.7397,-3.7314,-3.6591,-3.6041,-3.6013,-3.5992,-3.5992,-3.5992,-3.5992,-3.5992,-3.5992,-3.594,-3.5849,-3.5714,-3.5645,-3.5593,-3.5521,-3.5508,-3.5488,-3.5415,-3.5407,-3.5386,-3.5304,-3.5315,-3.5293,-3.5293,-3.5293,-3.5269,-3.7259,-3.741,-3.7539,-3.7594,-3.7595,-3.7595,-3.7595,-3.7739,-3.7915,-3.7984,-3.8153,-3.8334,-3.8481,-3.8667,-3.8822,-3.8862,-3.9373,0.0,-4.062,-4.1571,0.0,-4.302,0.0,-4.4005,-4.4005,-4.4005,0.0,0.0,-4.4064,-4.4079,-4.4005,-4.4318,-4.4493,-4.4493,-4.4954,-4.5232,-4.5302,-4.5504,-4.5594,-4.5594,-4.5594,-4.5622,-4.5631,-4.5631,-4.5657,-4.5698,-4.5698,-4.5579,-4.5256,-4.3798,-4.3064,-4.271,-4.1219,-4.0621,-4.0628,-4.0635,-4.0674,-4.0733,-4.0733,-4.0752,-4.0803,-4.0814,-4.0825,-4.0831,-4.084,-4.0851,-4.0867,-4.0906,-4.0924,-4.0941,-4.0997,-4.1006,-4.1037,-4.1037,-4.1076,-4.1139,-4.1139,-4.1169,-4.1191,-4.1191,-4.1191,-4.0918,-4.0058,-3.953,-3.8807,-3.7497,-3.7105,-3.6729,-3.6072,-3.5992,-3.5992,-3.5992,-3.5992,-3.5992,-3.5992,-3.5985,-3.5956,-3.5925,-3.5855,-3.581,-3.5811,-3.5702,-3.5641,-3.5611,-3.5571,-3.5513,-3.5444,-3.539,-3.535,-3.5293,-3.5293,-3.5289,-3.7391,-3.7503,-3.7595,-3.7595,-3.7595,-3.7595,-3.7595,-3.7721,-3.781,-3.781,-3.7932,-3.8086,-3.8203,-3.835,-3.8528,0.0,0.0,0.0,-4.0308,-4.1386,-4.2296,0.0,-4.3503,0.0,-4.4005,-4.4005,-4.4005,0.0,-4.4005,-4.4005,-4.4005,-4.4151,-4.4294,-4.4402,-4.4701,-4.4954,-4.5201,-4.5342,-4.5485,-4.5594,-4.5594,-4.5594,-4.5594,-4.5594,-4.5622,-4.5648,0.0,-4.5665,-4.5536,-4.3859,-4.3158,-4.2992,-4.1273,-4.0605,-4.0605,-4.0607,-4.0621,-4.0661,-4.0661,-4.0674,-4.0713,-4.0784,-4.0797,-4.0797,-4.0797,-4.0797,-4.0809,-4.0859,-4.0856,-4.0853,-4.0893,-4.0937,-4.0964,-4.0964,-4.1,-4.1061,-4.1061,-4.108,-4.1117,-4.1146,-4.1171,-4.1035,-4.0547,-4.0156,-3.957,-3.8593,-3.7791,-3.7124,-3.6628,-3.6234,-3.5996,-3.5992,-3.5992,-3.5992,-3.5992,-3.5992,-3.5986,-3.5951,-3.5926,-3.5878,-3.5807,-3.5741,-3.5698,-3.5698,-3.5664,-3.5611,-3.5546,-3.5508,-3.5437,-3.5338,-3.5338,-3.5335,-3.7484,-3.7594,-3.7595,-3.7595,-3.7595,-3.7595,-3.7595,-3.7595,-3.7595,-3.7595,-3.7595,-3.7667,-3.7897,-3.7966,-3.8153,-3.8621,0.0,-3.9914,-4.0158,-4.1501,-4.2519,-4.263,-4.3355,-4.3875,-4.3986,-4.4005,-4.4005,-4.4005,-4.4005,-4.4005,-4.4005,-4.4005,-4.4121,-4.4383,-4.4397,-4.465,-4.5129,-4.5159,-4.5253,-4.5495,-4.5522,-4.555,-4.5559,-4.5577,-4.5594,-4.5594,0.0,0.0,-4.5416,-4.3698,-4.3007,-4.2879,-4.1165,-4.0523,-4.058,-4.0564,-4.0566,-4.0607,-4.0607,-4.0607,-4.0621,-4.0746,-4.0765,-4.0784,-4.0784,-4.079,-4.079,-4.0797,-4.0797,-4.0797,-4.0797,-4.0834,-4.0888,-4.0888,-4.0941,-4.0997,-4.0997,-4.0984,-4.1028,-4.1076,-4.1122,-4.117,-4.117,-4.0545,-4.0018,-3.9883,-3.8593,-3.7539,-3.7304,-3.6538,-3.6002,-3.5995,-3.5992,-3.5992,-3.5992,-3.5992,-3.598,-3.5921,-3.5899,-3.5858,-3.5733,-3.5729,-3.5729,-3.5729,-3.5741,-3.5696,-3.5635,-3.562,-3.5543,-3.543,-3.5435,-3.5388,-3.7334,-3.7484,-3.7595,-3.7595,-3.7595,-3.7595,-3.7595,-3.7595,-3.7595,-3.7595,-3.7595,-3.7613,-3.7649,-3.7845,-3.8035,-3.8119,-3.8638,-3.9024,-3.9069,-4.0081,-4.1051,0.0,-4.2519,-4.3262,-4.3949,-4.4005,0.0,0.0,0.0,-4.4005,-4.4005,-4.4005,-4.4121,-4.4383,-4.4397,-4.4546,-4.4879,-4.4861,-4.4884,-4.4931,-4.515,-4.5263,-4.5282,-4.5504,-4.5594,-4.5586,0.0,0.0,-4.5109,-4.3221,-4.2576,-4.2584,-4.068,-4.0185,-4.0508,-4.033,-4.0417,-4.0595,-4.0595,-4.0605,-4.0595,-4.0628,-4.0628,-4.0654,-4.07,-4.0726,-4.0733,-4.0784,-4.0797,-4.0797,-4.0797,-4.0809,-4.0827,-4.0827,-4.0877,-4.0911,-4.0911,-4.0968,-4.0994,-4.1025,-4.1037,-4.1025,-4.1025,-4.0905,-4.0554,-3.9833,-3.9482,-3.8763,-3.7314,-3.6464,-3.6004,-3.6002,-3.5996,-3.5992,-3.5992,-3.5992,-3.6009,-3.5985,-3.5985,-3.5962,-3.5955,-3.5955,-3.5955,-3.5955,-3.5897,-3.5869,-3.5856,-3.5733,-3.5663,-3.566,-3.5593,-3.5531,-3.7105,-3.7203,-3.7298,-3.7428,-3.7447,-3.7447,-3.7447,-3.7447,-3.7411,-3.7298,-3.7354,-3.7447,-3.7447,-3.7631,-3.7845,-3.7966,-3.8334,-3.8559,-3.8446,-3.9564,-4.044,-4.0597,-4.1915,-4.2946,-4.3336,-4.3717,-4.3958,0.0,0.0,-4.3958,-4.4005,-4.4005,-4.4064,-4.4196,-4.4192,-4.4318,-4.4585,-4.4585,-4.4663,-4.48,-4.4938,-4.4996,-4.4996,-4.5137,-4.5191,-4.518,-4.5052,0.0,-4.4265,-4.2876,-4.2128,-4.1732,-4.0333,-3.9934,-4.012,-4.0023,-4.0062,-4.0194,-4.0339,-4.0381,-4.0422,-4.0508,-4.0559,-4.0614,-4.0647,-4.0654,-4.0661,-4.07,-4.0713,-4.0746,-4.0746,-4.0759,-4.0797,-4.0797,-4.082,-4.0846,-4.0846,-4.0907,-4.0953,-4.0953,-4.0986,-4.099,-4.099,-4.099,-4.0854,-4.0442,-3.9994,-3.9409,-3.8558,-3.7349,-3.6398,-3.5933,-3.5937,-3.5954,-3.5954,-3.5983,-3.5992,-3.5992,-3.5992,-3.5992,-3.5992,-3.5992,-3.5992,-3.5992,-3.5976,-3.5936,-3.5908,-3.5837,-3.576,-3.5698,-3.5674,-3.5626,-3.6888,-3.6968,-3.7046,-3.7201,-3.7239,-3.7239,-3.7239,-3.7239,-3.7182,-3.7029,-3.7124,-3.7239,-3.7239,-3.741,-3.7595,-3.7828,-3.8119,-3.8252,-3.8034,-3.9122,-3.9817,-3.9597,-4.1075,0.0,-4.2603,-4.3233,0.0,0.0,0.0,0.0,-4.4005,-4.4005,-4.4005,-4.4005,-4.4005,-4.4091,-4.4303,-4.4318,-4.443,-4.4624,-4.4688,-4.4714,-4.4714,-4.4763,-4.4788,-4.4788,-4.4739,0.0,0.0,-4.2535,-4.1697,-4.0912,-4.0015,-3.9709,-3.9797,-3.9742,-3.9765,-3.9829,-4.0042,-4.0101,-4.0148,-4.0302,-4.0442,-4.0586,-4.0593,-4.06,-4.06,-4.0607,-4.0647,-4.0687,-4.0687,-4.0733,-4.0784,-4.079,-4.0797,-4.0797,-4.0797,-4.0834,-4.0873,-4.0873,-4.092,-4.0964,-4.0964,-4.0964,-4.0964,-4.0964,-4.0377,-3.9867,-3.9673,-3.8302,-3.6995,-3.6134,-3.5949,-3.5875,-3.5896,-3.5955,-3.5983,-3.5998,-3.5996,-3.5995,-3.5995,-3.5994,-3.5992,-3.5992,-3.5992,-3.598,-3.5926,-3.5926,-3.5864,-3.5767,-3.5753,-3.5745,-3.6722,-3.6849,-3.6989,-3.7009,-3.7027,-3.7027,-3.7027,-3.7027,-3.7027,-3.6989,-3.7009,-3.7027,-3.7027,-3.7201,-3.7334,-3.7353,-3.7739,-3.7966,-3.7774,-3.8072,-3.8497,-3.9012,0.0,0.0,-4.1931,-4.2474,0.0,0.0,0.0,0.0,-4.4005,-4.4005,-4.4005,-4.4005,-4.4005,-4.4002,-4.4033,-4.4033,-4.4048,-4.4079,-4.4318,-4.4425,-4.4457,-4.4688,-4.4788,-4.4776,0.0,0.0,0.0,-4.2104,-4.1292,-4.0641,-3.9589,-3.9421,-3.9775,-3.9597,-3.9637,-3.9808,-3.9829,-3.984,-3.984,-3.9861,-4.0157,-4.0512,-4.058,-4.0595,-4.0603,-4.06,-4.0595,-4.0614,-4.0614,-4.0661,-4.0713,-4.0784,-4.0797,-4.0797,-4.0797,-4.0803,-4.0815,-4.0815,-4.0802,-4.0808,-4.0808,-4.0808,-4.0808,-4.0808,-4.075,-4.0401,-3.9613,-3.8698,-3.7768,-3.6883,-3.6203,-3.583,-3.5893,-3.5915,-3.5937,-3.5991,-3.6006,-3.6003,-3.6003,-3.5996,-3.5992,-3.5992,-3.5992,-3.5991,-3.5988,-3.5988,-3.5986,-3.5963,-3.5904,-3.588,-3.6444,-3.6527,-3.6629,-3.6768,-3.6826,-3.6826,-3.6826,-3.6826,-3.6768,-3.6609,-3.6708,-3.6826,-3.6826,-3.6987,-3.7124,-3.7124,-3.7411,-3.7504,-3.7145,-3.7542,-3.7845,-3.7805,-3.8636,0.0,0.0,0.0,0.0,0.0,0.0,0.0,-4.3945,-4.3974,-4.4005,-4.4005,-4.4005,-4.4005,-4.4005,-4.4005,-4.4005,-4.4005,-4.4106,-4.4166,-4.4166,-4.4265,-4.4322,-4.4285,0.0,0.0,0.0,-4.1239,-4.0435,-3.9693,-3.9272,-3.9213,-3.9377,-3.9279,-3.9305,-3.9396,-3.9555,-3.9621,-3.9644,-3.9754,-3.9924,-4.0091,-4.0101,-4.0232,-4.0366,-4.0364,-4.0481,-4.0549,-4.0391,-4.0419,-4.0477,-4.0492,-4.0593,-4.07,-4.0739,-4.0739,-4.0746,-4.079,-4.0797,-4.0797,-4.0797,-4.0797,-4.0797,-4.0797,-4.0797,-4.0681,-4.0332,-3.952,-3.8644,-3.7773,-3.6522,-3.5741,-3.5785,-3.5818,-3.5857,-3.5886,-3.5916,-3.5937,-3.5937,-3.599,-3.6,-3.6,-3.5995,-3.5992,-3.5992,-3.5992,-3.5992,-3.5992,-3.598,-3.5953,-3.6301,-3.6301,-3.636,-3.6523,-3.6582,-3.6582,-3.6582,-3.6582,-3.6523,-3.6343,-3.6444,-3.6582,-3.6582,-3.6556,-3.6628,-3.6873,-3.6914,-3.6864,-3.671,-3.7111,-3.7249,-3.6843,0.0,-3.8686,0.0,0.0,0.0,0.0,0.0,0.0,0.0,-4.3846,-4.3974,-4.4005,-4.4005,-4.4005,-4.4005,-4.4005,-4.4005,-4.4005,-4.4005,-4.4005,-4.3986,-4.3745,-4.3652,-4.3596,0.0,0.0,0.0,-4.0624,-3.9881,-3.9101,-3.9101,-3.9101,-3.9101,-3.9101,-3.9101,-3.9129,-3.9324,-3.9389,-3.9414,-3.9555,-3.9583,-3.9583,-3.9583,-3.9827,-4.0072,-4.0072,-4.0223,-4.0319,-4.0157,-4.0148,-4.0184,-4.0183,-4.0348,-4.0511,-4.0571,-4.0633,-4.0694,-4.0752,-4.0778,-4.0784,-4.079,-4.0797,-4.0797,-4.0797,-4.0797,-4.0797,-4.0797,-4.0042,-3.9172,-3.829,-3.691,-3.5969,-3.5722,-3.5746,-3.5783,-3.5797,-3.585,-3.5863,-3.5863,-3.5916,-3.5956,-3.5973,-3.597,-3.5984,-3.5996,-3.5994,-3.5992,-3.5992,-3.5992,-3.5992,-3.6301,-3.6301,-3.6301,-3.6301,-3.6301,-3.6301,-3.6301,-3.6301,-3.6301,-3.6301,-3.6301,-3.6301,-3.6301,-3.5882,-3.5779,-3.6563,-3.6204,-3.6017,-3.662,-3.6702,-3.6623,0.0,0.0,-3.7235,-3.8051,0.0,0.0,0.0,0.0,0.0,0.0,-4.358,-4.3929,-4.4005,-4.4005,-4.4005,-4.4005,-4.4005,-4.4005,-4.4005,-4.4005,-4.4005,-4.3968,-4.3188,-4.2816,0.0,0.0,0.0,0.0,-4.0416,-3.9881,-3.9101,-3.9101,-3.9101,-3.9101,-3.9101,-3.9101,-3.9101,-3.9101,-3.9101,-3.9115,-3.9115,-3.9115,-3.9115,-3.9115,-3.9433,-3.9808,-3.9808,-3.9808,-3.9819,-3.9891,-3.9901,-3.9893,-3.9897,-4.0109,-4.0309,-4.029,-4.0466,-4.0621,-4.0694,-4.07,-4.0713,-4.079,-4.0797,-4.0797,-4.0797,-4.0797,-4.0797,-4.0797,-4.0042,-3.9172,-3.829,-3.7406,-3.6559,-3.5767,-3.5698,-3.5737,-3.5808,-3.5805,-3.5792,-3.5792,-3.5804,-3.583,-3.5894,-3.5896,-3.5937,-3.6004,-3.5996,-3.5992,-3.5992,-3.5992,-3.5992,-3.6006,-3.5958,-3.6023,-3.6237,-3.6131,-3.5958,-3.5958,-3.6131,-3.6237,-3.6023,-3.6152,-3.6146,-3.5628,-3.5414,-3.5195,-3.4973,-3.5206,-3.5469,-3.5648,0.0,0.0,-3.6322,-3.6894,-3.7523,0.0,0.0,0.0,0.0,0.0,0.0,0.0,-4.3178,-4.3477,-4.3929,-4.3974,-4.4005,-4.4005,-4.4005,-4.4005,-4.4005,-4.4005,-4.3708,-4.3169,-4.2927,0.0,0.0,0.0,0.0,0.0,-3.9751,-3.9342,-3.9101,-3.9101,-3.9101,-3.9101,-3.9101,-3.9101,-3.9101,-3.9101,-3.9101,-3.9101,-3.9101,-3.9101,-3.9101,-3.9101,-3.9331,-3.9614,-3.9754,-3.9705,-3.9597,-3.9609,-3.964,-3.9621,-3.9625,-3.9797,-3.9974,-4.0023,-4.0082,-4.0184,-4.0394,-4.0427,-4.0492,-4.0694,-4.0739,-4.0746,-4.079,-4.0797,-4.0797,-4.0797,-4.0565,-3.9823,-3.8367,-3.7941,-3.7224,-3.5809,-3.5698,-3.5713,-3.5727,-3.5733,-3.5728,-3.5728,-3.5789,-3.5804,-3.5839,-3.5828,-3.5837,-3.5864,-3.5867,-3.5895,-3.5937,-3.5987,-3.5998,-3.5633,-3.5566,-3.5611,-3.5832,-3.5722,-3.5566,-3.5566,-3.5744,-3.5747,-3.5299,-3.5363,-3.5314,-3.4703,-3.4346,-3.4129,-3.4111,-3.4493,-3.4869,-3.5145,0.0,0.0,-3.6301,0.0,0.0,0.0,0.0,0.0,0.0,0.0,0.0,0.0,0.0,-4.2087,-4.2457,-4.3416,-4.3945,-4.3958,-4.3661,-4.3528,-4.354,-4.3243,-4.2835,-4.2333,-4.2017,0.0,0.0,0.0,0.0,0.0,-3.9324,-3.9101,-3.9101,-3.9101,-3.9101,-3.9101,-3.9101,-3.9101,-3.9101,-3.9101,-3.9101,-3.9101,-3.9101,-3.9101,-3.9101,-3.9101,-3.9219,-3.9389,-3.9494,-3.9452,-3.935,-3.935,-3.935,-3.935,-3.935,-3.9525,-3.9694,-3.9747,-3.9805,-3.9932,-4.012,-4.0148,-4.0202,-4.0364,-4.0407,-4.0458,-4.0619,-4.0579,-4.0559,-4.0668,-4.064,-4.0072,-3.8689,-3.8253,-3.7514,-3.6188,-3.5861,-3.5704,-3.5704,-3.5689,-3.5703,-3.5703,-3.5737,-3.5762,-3.5768,-3.5766,-3.5766,-3.5804,-3.5834,-3.5876,-3.5935,-3.5976,-3.5993,0.0,-3.5131,-3.5178,-3.5201,-3.5178,-3.5138,-3.5111,-3.5094,0.0,-3.4225,-3.4097,-3.3989,-3.3566,-3.2876,-3.2721,-3.379,-3.4022,-3.4315,0.0,-3.5835,0.0,0.0,-3.6301,0.0,0.0,0.0,0.0,0.0,0.0,0.0,0.0,0.0,-4.0052,-4.0089,-4.2318,-4.3552,-4.3631,-4.2924,-4.26,-4.264,-4.1932,-4.1557,-4.1479,-4.0736,0.0,0.0,0.0,0.0,0.0,-3.9087,-3.9087,-3.9087,-3.9087,-3.9101,-3.9101,-3.9101,-3.9101,-3.9101,-3.9101,-3.9087,-3.9073,-3.9073,-3.9087,-3.9101,-3.9101,-3.9101,-3.9101,-3.9101,-3.9101,-3.9101,-3.9101,-3.9101,-3.9101,-3.9101,-3.9298,-3.9458,-3.9458,-3.9614,-3.9775,-3.9859,-3.987,-3.9872,-3.9887,-3.9907,-4.0005,-4.0309,-4.0201,-4.0182,-4.0446,-4.0375,-3.9994,-3.9191,-3.8309,-3.7502,-3.6747,-3.6066,-3.5698,-3.5704,-3.5704,-3.5704,-3.5704,-3.5704,-3.5693,-3.5704,-3.5694,-3.5719,-3.5799,-3.5855,-3.5916,-3.5987,-3.5989,-3.599,-3.4358,0.0,-3.4866,-3.5131,-3.5008,-3.4686,0.0,-3.4205,-3.4141,-3.31,-3.3151,-3.3172,-3.2496,-3.2227,-3.2262,-3.2719,-3.3325,-3.4076,-3.5056,0.0,0.0,-3.6301,-3.6301,0.0,0.0,0.0,0.0,0.0,0.0,0.0,0.0,0.0,-3.9623,-3.9939,-4.0506,-4.0908,-4.107,-4.1186,-4.1264,-4.1262,-4.1375,-4.1126,-4.0522,-4.0318,0.0,0.0,0.0,0.0,-3.9021,-3.8964,-3.8979,-3.9021,-3.9021,-3.9045,-3.9101,-3.9101,-3.9101,-3.9101,-3.9101,-3.8989,-3.8862,-3.8862,-3.896,-3.9101,-3.9101,-3.9101,-3.9101,-3.9101,-3.9101,-3.9101,-3.9101,-3.9101,-3.9101,-3.9101,-3.9156,-3.9192,-3.9192,-3.9227,-3.9331,-3.9556,-3.9585,-3.9667,-3.9861,-3.9903,-3.9934,-4.0005,-4.0062,-4.0128,-4.0182,-4.0264,-3.9994,-3.9191,-3.8309,-3.7463,-3.6623,-3.5938,-3.5596,-3.5684,-3.5704,-3.5704,-3.5704,-3.5704,-3.5701,-3.5702,-3.5693,-3.5708,-3.5713,-3.5737,-3.5768,-3.5774,-3.5873,-3.5914,-3.3712,-3.4006,-3.439,-3.4279,-3.4101,-3.3769,-3.3034,-3.304,-3.2918,-3.1968,-3.1939,-3.1907,-3.1328,-3.1503,-3.1821,-3.2137,-3.3107,0.0,0.0,0.0,-3.6301,-3.6301,0.0,0.0,0.0,0.0,0.0,0.0,0.0,0.0,0.0,0.0,-3.8017,-3.8247,-3.8247,-3.8862,-4.0147,-3.9968,-3.9911,-3.9963,-3.9989,-3.9648,-3.9061,-3.9237,0.0,0.0,0.0,0.0,-3.8387,-3.8373,-3.8373,-3.8421,-3.8612,-3.8703,-3.873,-3.884,-3.8869,-3.8855,-3.8796,-3.871,-3.8621,-3.8621,-3.8695,-3.8766,-3.8766,-3.8766,-3.8811,-3.9045,-3.9101,-3.9101,-3.9101,-3.9101,-3.9101,-3.9101,-3.9101,-3.9101,-3.9101,-3.9101,-3.9137,-3.9285,-3.9324,-3.9357,-3.9513,-3.9531,-3.9571,-3.9705,-3.9716,-3.9778,-3.9905,-3.9934,-3.9782,-3.9422,-3.8271,-3.7375,-3.7041,-3.5975,-3.5362,-3.5509,-3.5559,-3.5608,-3.5608,-3.5668,-3.5704,-3.5704,-3.5704,-3.5701,-3.5702,-3.5698,-3.5724,-3.5741,-3.582,-3.5847,-3.3242,-3.342,-3.3647,-3.3064,-3.2919,-3.274,-3.2012,-3.1834,-3.1616,-3.0888,-3.0742,-3.0638,-3.0297,-3.0816,-3.1468,-3.1912,0.0,0.0,-3.557,-3.5941,-3.6156,-3.6216,0.0,0.0,0.0,0.0,0.0,0.0,0.0,0.0,0.0,0.0,0.0,-3.6301,-3.6301,-3.7347,-3.9505,-3.8864,-3.8562,-3.869,-3.8338,-3.7994,-3.7702,-3.8028,0.0,0.0,0.0,0.0,-3.7684,-3.7666,-3.7684,-3.7719,-3.8061,-3.8194,-3.8227,-3.8407,-3.8455,-3.8457,-3.8332,-3.8318,-3.835,-3.8334,-3.8366,-3.8399,-3.8399,-3.8382,-3.8446,-3.884,-3.9003,-3.9059,-3.9059,-3.9059,-3.9045,-3.8984,-3.9031,-3.9059,-3.9059,-3.9073,-3.9101,-3.9101,-3.9101,-3.9101,-3.9101,-3.9073,-3.9151,-3.9389,-3.9326,-3.9357,-3.9614,-3.9561,-3.9494,-3.95,-3.8105,-3.7211,-3.7329,-3.5902,-3.5079,-3.5187,-3.5374,-3.5463,-3.5463,-3.5584,-3.5645,-3.5645,-3.5662,-3.567,-3.5679,-3.5689,-3.5737,-3.5773,-3.5782,-3.5786,-3.3137,-3.2708,-3.2303,-3.2206,-3.2174,-3.1979,-3.1228,-3.1066,-3.0872,-3.0204,-3.0042,-3.0032,-2.9962,-3.053,-3.1287,-3.2259,0.0,-3.509,0.0,0.0,-3.5498,0.0,0.0,0.0,0.0,0.0,0.0,0.0,0.0,0.0,0.0,0.0,0.0,-3.6301,-3.6301,-3.6488,-3.688,-3.7106,-3.7195,-3.7232,-3.7486,-3.7632,-3.7632,-3.7685,-3.7702,0.0,0.0,-3.7614,-3.7614,-3.7542,-3.756,-3.7632,-3.7685,-3.7737,-3.7788,-3.784,-3.784,-3.7841,-3.7809,-3.7966,-3.8135,-3.8086,-3.8219,-3.8399,-3.8399,-3.8285,-3.8152,-3.8216,-3.8541,-3.8851,-3.8851,-3.8851,-3.8788,-3.8556,-3.8664,-3.8851,-3.8851,-3.8974,-3.9101,-3.9101,-3.9101,-3.9101,-3.9101,-3.8964,-3.8921,-3.9124,-3.9096,-3.9124,-3.9331,-3.9433,-3.9251,-3.8592,-3.7678,-3.6836,-3.6139,-3.5224,-3.4689,-3.471,-3.5094,-3.5338,-3.5338,-3.5352,-3.5367,-3.5367,-3.5463,-3.5534,-3.5527,-3.5643,-3.5706,-3.5711,-3.5718,-3.5718,-3.1838,-3.15,-3.1099,-3.0574,-3.0914,-3.1212,-3.0522,-3.036,-3.0263,-2.9961,-2.9896,-3.001,-3.036,-3.1024,-3.1897,-3.3175,0.0,-3.4937,-3.4937,0.0,0.0,0.0,0.0,0.0,0.0,0.0,0.0,0.0,0.0,0.0,0.0,0.0,0.0,0.0,-3.6301,-3.6301,-3.6301,-3.6492,-3.6577,-3.6577,-3.6978,-3.7094,-3.6902,-3.7133,-3.7116,-3.6944,0.0,-3.6902,-3.6902,-3.686,-3.688,-3.6921,-3.7133,-3.7248,-3.7286,-3.7396,-3.7378,-3.7321,-3.7319,-3.7411,-3.7486,-3.7467,-3.7613,-3.7792,-3.7667,-3.765,-3.7685,-3.7721,-3.805,-3.843,-3.843,-3.8494,-3.8559,-3.843,-3.8494,-3.859,-3.859,-3.8649,-3.8752,-3.8921,-3.895,-3.895,-3.895,-3.8848,-3.8773,-3.874,-3.871,-3.8707,-3.8792,-3.8998,-3.8835,-3.8057,-3.7393,-3.6672,-3.5871,-3.5063,-3.4626,-3.4701,-3.4908,-3.5086,-3.52,-3.5181,-3.5224,-3.5308,-3.5367,-3.5395,-3.5395,-3.5443,-3.5489,-3.5489,-3.5558,-3.5599,-3.0648,-3.0439,-3.0144,-2.931,-2.9902,-3.0493,-2.9855,-2.977,-2.9814,-2.9814,-2.9814,-3.0041,-3.0775,-3.1632,0.0,-3.3906,-3.4349,-3.4546,0.0,0.0,0.0,0.0,0.0,0.0,0.0,0.0,0.0,0.0,0.0,0.0,0.0,0.0,0.0,0.0,-3.6301,-3.6301,-3.6301,-3.6301,-3.6301,-3.6301,-3.6618,-3.6597,-3.6322,-3.6618,-3.6577,-3.6301,-3.6301,-3.6301,-3.6301,-3.6301,-3.6301,-3.6343,-3.6638,-3.6761,-3.6779,-3.6937,-3.6915,-3.6851,-3.6908,-3.6928,-3.6928,-3.6987,-3.7105,-3.7201,-3.7046,-3.7066,-3.7163,-3.7223,-3.7504,-3.7809,-3.7914,-3.8051,-3.8152,-3.8153,-3.8203,-3.8252,-3.8302,-3.835,-3.8446,-3.8667,-3.8698,-3.8698,-3.8698,-3.8652,-3.8556,-3.8415,-3.835,-3.8334,-3.8382,-3.8407,-3.8136,-3.7368,-3.6774,-3.6099,-3.5352,-3.4717,-3.442,-3.4516,-3.4672,-3.4822,-3.4978,-3.4978,-3.5032,-3.5119,-3.5171,-3.5195,-3.5219,-3.5251,-3.5274,-3.5289,-3.5409,-3.545,-3.0244,-2.9901,-2.9489,-2.9183,-2.9534,-2.9835,-2.9275,-2.935,-2.9515,-2.9515,-2.9515,-2.9807,-3.0729,-3.206,-3.3242,-3.3987,-3.4126,-3.4151,0.0,0.0,0.0,0.0,0.0,0.0,0.0,0.0,0.0,0.0,0.0,0.0,0.0,0.0,0.0,0.0,0.0,-3.6301,-3.6301,-3.6301,-3.6301,-3.6301,-3.6343,-3.6343,-3.6301,-3.6343,-3.6343,-3.6301,-3.6301,-3.6301,-3.6301,-3.6301,-3.6301,-3.6301,-3.6343,-3.6343,-3.6326,-3.6364,-3.6364,-3.6385,-3.6643,-3.6722,-3.6745,-3.6948,-3.7007,-3.7027,-3.6989,-3.6869,-3.6725,-3.6745,-3.6766,-3.6908,-3.7338,-3.745,-3.7449,-3.7392,-3.7577,-3.781,-3.7984,-3.8219,-3.8417,-3.8433,-3.843,-3.843,-3.843,-3.8219,-3.8136,-3.8366,-3.8186,-3.8119,-3.8366,-3.7758,-3.7006,-3.6203,-3.5429,-3.4621,-3.3835,-3.3707,-3.3671,-3.3684,-3.4269,-3.4615,-3.4636,-3.4636,-3.4636,-3.4647,-3.4772,-3.4879,-3.4925,-3.5056,-3.5173,-3.5308,-3.5315,-3.5304,-2.9281,-2.9124,-2.8943,-2.8716,-2.9045,-2.9366,-2.916,-2.9167,-2.937,-2.9799,-2.9878,-3.0251,-3.1476,-3.2679,-3.3558,-3.3799,-3.4,0.0,0.0,0.0,0.0,0.0,0.0,0.0,0.0,0.0,0.0,0.0,0.0,0.0,0.0,0.0,0.0,0.0,0.0,-3.6301,-3.6301,-3.6301,-3.6301,-3.6301,-3.6301,-3.6301,-3.6301,-3.6301,-3.6301,-3.6301,-3.6301,-3.6301,-3.6301,-3.6301,-3.6301,-3.6301,-3.6301,-3.6301,-3.6301,-3.6301,-3.6301,-3.6322,-3.6423,-3.6444,-3.6464,-3.6547,-3.6687,-3.6768,-3.6629,-3.6626,-3.6681,-3.6502,-3.6444,-3.6527,-3.6871,-3.7068,-3.7127,-3.7124,-3.7184,-3.7298,-3.7355,-3.7559,-3.7757,-3.7932,-3.8069,-3.8153,-3.8153,-3.8069,-3.7966,-3.7915,-3.7828,-3.7613,-3.7214,-3.704,-3.6449,-3.5147,-3.4429,-3.3933,-3.3623,-3.3605,-3.3605,-3.3605,-3.3847,-3.3992,-3.4043,-3.4043,-3.408,-3.4165,-3.4218,-3.4334,-3.4526,-3.4572,-3.4694,-3.487,-3.4944,-3.5016,-2.8605,-2.8653,-2.8653,-2.8444,-2.8692,-2.8936,-2.8724,-2.8842,-2.9171,-2.9863,-3.048,-3.1154,-3.2051,-3.3026,0.0,0.0,0.0,0.0,0.0,0.0,0.0,0.0,0.0,0.0,0.0,0.0,0.0,0.0,0.0,0.0,0.0,0.0,0.0,0.0,0.0,-3.6006,-3.6152,-3.6006,-3.6006,-3.6135,-3.6135,-3.6195,-3.6301,-3.6301,-3.6301,-3.6301,-3.6301,-3.6301,-3.6301,-3.6301,-3.6301,-3.6301,-3.6301,-3.6301,-3.6301,-3.6301,-3.6301,-3.628,-3.6174,-3.6216,-3.628,-3.6174,-3.6339,-3.6544,-3.636,-3.636,-3.6377,-3.6195,-3.6049,-3.6006,-3.6335,-3.6588,-3.6791,-3.6888,-3.6908,-3.6928,-3.6987,-3.7105,-3.7259,-3.743,-3.7595,-3.7703,-3.7757,-3.7774,-3.7721,-3.7522,-3.729,-3.6915,-3.6381,-3.604,-3.5367,-3.4069,-3.3593,-3.3371,-3.3371,-3.3371,-3.3371,-3.3371,-3.3371,-3.3469,-3.3671,-3.3671,-3.3707,-3.38,-3.38,-3.3904,-3.4099,-3.4099,-3.4196,-3.4379,-3.4464,-3.4593,-2.8387,-2.8549,-2.8653,-2.8444,-2.8549,-2.8518,-2.7925,-2.8268,-2.8903,-2.9659,-3.1302,-3.2529,-3.225,-3.3026,0.0,0.0,0.0,0.0,0.0,0.0,0.0,0.0,0.0,0.0,0.0,0.0,0.0,0.0,0.0,0.0,0.0,0.0,0.0,0.0,0.0,0.0,-3.5805,-3.5407,-3.5407,-3.5788,-3.5788,-3.5963,-3.6301,-3.6301,-3.6301,-3.6301,-3.6301,-3.6301,-3.6301,-3.6301,-3.6301,-3.6301,-3.6301,-3.6301,-3.6301,-3.6301,-3.6301,-3.6237,-3.5915,-3.6023,-3.6237,-3.5915,-3.6023,-3.6301,-3.6301,-3.6067,-3.5788,-3.5788,-3.5498,-3.5293,-3.5677,-3.6045,-3.6343,-3.6623,-3.6702,-3.6745,-3.6948,-3.7007,-3.7007,-3.7007,-3.7007,-3.7066,-3.7259,-3.7278,-3.7297,-3.7278,-3.6606,-3.6093,-3.6075,-3.473,-3.3558,-3.2939,-3.29,-3.29,-3.29,-3.29,-3.29,-3.29,-3.29,-3.3101,-3.3559,-3.3591,-3.3591,-3.3591,-3.3591,-3.3638,-3.3702,-3.3702,-3.375,-3.3893,-3.3893,-3.4043,-2.789,-2.8014,-2.7974,-2.757,-2.7785,-2.7934,-2.7418,-2.8273,-2.9527,-3.0696,-3.1756,-3.2442,-3.2377,-3.2779,0.0,0.0,0.0,0.0,0.0,0.0,0.0,0.0,0.0,0.0,0.0,0.0,0.0,0.0,0.0,0.0,0.0,0.0,0.0,0.0,0.0,0.0,-3.5385,-3.527,-3.527,-3.5385,-3.5385,-3.57,-3.6301,-3.6301,-3.6301,-3.6301,-3.6301,-3.6301,-3.628,-3.6045,-3.5958,-3.5958,-3.5958,-3.5766,-3.5566,-3.5832,-3.5766,-3.5504,-3.5407,-3.5453,-3.5521,-3.5407,-3.5453,-3.5543,-3.5543,-3.5453,-3.5385,-3.5385,-3.5293,-3.5224,-3.5339,-3.5453,-3.5677,-3.628,-3.6423,-3.6444,-3.6489,-3.6667,-3.6786,-3.6786,-3.6652,-3.6615,-3.6676,-3.6676,-3.6504,-3.5966,-3.5897,-3.541,-3.4101,-3.2851,-3.2047,-3.186,-3.2144,-3.2334,-3.2334,-3.2687,-3.29,-3.29,-3.29,-3.2963,-3.3101,-3.3119,-3.3119,-3.3119,-3.3119,-3.319,-3.3346,-3.3346,-3.3465,-3.3694,-3.3694,-3.377,-2.7675,-2.765,-2.7458,-2.7174,-2.7316,-2.7593,-2.7853,-2.8599,-2.9569,-3.0613,-3.145,-3.2033,-3.212,-3.237,0.0,0.0,0.0,0.0,0.0,0.0,0.0,0.0,0.0,0.0,0.0,0.0,0.0,0.0,0.0,0.0,0.0,0.0,0.0,0.0,0.0,0.0,-3.5008,-3.4826,-3.4849,-3.5008,-3.5008,-3.5293,-3.5876,-3.6028,-3.6006,-3.5876,-3.5876,-3.5876,-3.5854,-3.5633,-3.5566,-3.5566,-3.5566,-3.5407,-3.5224,-3.5476,-3.5407,-3.5178,-3.5038,-3.5085,-3.5178,-3.5038,-3.5085,-3.5201,-3.5201,-3.5108,-3.5008,-3.5008,-3.489,-3.4802,-3.4961,-3.5008,-3.5155,-3.5744,-3.5876,-3.5876,-3.5876,-3.6002,-3.6088,-3.6088,-3.6006,-3.5848,-3.5685,-3.5654,-3.5379,-3.4665,-3.4464,-3.3863,-3.2429,-3.1747,-3.1397,-3.1397,-3.1661,-3.1825,-3.1825,-3.2109,-3.2317,-3.2334,-3.2334,-3.2436,-3.2655,-3.282,-3.29,-3.29,-3.29,-3.2945,-3.3086,-3.3086,-3.3162,-3.3313,-3.3313,-3.3397,-2.7549,-2.7382,-2.7045,-2.6993,-2.6993,-2.7316,-2.8592,-2.8943,-2.9192,-2.9954,-3.076,-3.1421,-3.161,-3.1851,0.0,0.0,0.0,0.0,0.0,0.0,0.0,0.0,0.0,0.0,0.0,0.0,0.0,0.0,0.0,0.0,0.0,0.0,0.0,0.0,0.0,0.0,-3.457,-3.4201,-3.4226,0.0,-3.457,-3.4747,-3.5085,-3.5543,-3.5543,-3.5201,-3.5201,-3.5201,-3.5201,-3.5178,-3.5155,-3.5155,-3.5155,-3.5131,-3.5108,-3.5131,-3.5131,-3.5062,-3.4763,-3.4842,-3.5062,-3.4723,-3.4842,-3.5108,-3.5108,-3.489,-3.4643,-3.4643,-3.4374,-3.4176,-3.4546,-3.4643,-3.4715,-3.5038,-3.5155,-3.5201,-3.5201,-3.5201,-3.5201,-3.5201,-3.5128,-3.4929,-3.4486,-3.4366,-3.4083,-3.338,-3.2557,-3.1786,-3.1109,-3.1164,-3.1264,-3.1264,-3.1302,-3.1321,-3.1321,-3.1378,-3.1418,-3.1495,-3.1478,-3.1699,-3.2197,-3.2639,-3.285,-3.29,-3.285,-3.2852,-3.2852,-3.2802,-3.2786,-3.2786,-3.2786,-3.2896,-2.6669,-2.6721,-2.6563,-2.6231,-2.615,-2.6349,-2.7116,-2.7712,-2.8584,-3.0412,-3.0955,-3.1102,-3.1146,-3.1204,0.0,0.0,0.0,0.0,0.0,0.0,0.0,0.0,0.0,0.0,0.0,0.0,0.0,0.0,0.0,0.0,0.0,0.0,0.0,0.0,0.0,-3.3736,-3.3607,-3.3529,-3.3529,0.0,-3.3607,-3.3745,-3.4059,-3.4944,-3.5293,-3.5201,-3.5201,-3.5201,-3.5178,-3.4913,-3.4811,-3.4811,-3.4811,-3.4602,-3.4382,-3.4675,-3.4618,-3.4333,-3.4234,-3.4275,-3.4333,-3.4234,-3.4275,-3.4333,-3.4333,-3.4284,-3.4226,-3.4226,-3.4176,-3.4126,-3.4201,-3.4226,-3.425,-3.4308,-3.4778,-3.5201,-3.5201,-3.5201,-3.5201,-3.5201,-3.4526,-3.3909,-3.3812,-3.3299,-3.2796,-3.2362,-3.1383,-3.0663,-3.0477,-3.0326,-3.0215,-3.0215,-3.0559,-3.0771,-3.0771,-3.1167,-3.1416,-3.1418,-3.1418,-3.1493,-3.1662,-3.2162,-3.2589,-3.29,-3.2589,-3.242,-3.242,-3.2109,-3.195,-3.195,-3.195,-3.2144,-2.6377,-2.6351,-2.615,-2.5948,-2.5893,-2.6062,-2.6666,-2.7074,-2.7809,-2.9547,-3.014,-3.0403,-3.0613,0.0,0.0,0.0,0.0,0.0,0.0,0.0,0.0,0.0,0.0,0.0,0.0,0.0,0.0,0.0,0.0,0.0,0.0,0.0,0.0,0.0,-3.3424,-3.345,-3.3309,-3.2977,-3.2803,-3.2829,-3.2455,-3.2384,-3.2551,-3.4007,-3.4778,-3.4961,-3.4771,-3.4682,-3.4658,-3.448,-3.4423,-3.4423,-3.4423,-3.4275,-3.4126,-3.4325,-3.4275,-3.4101,-3.4101,-3.4101,-3.4101,-3.4101,-3.4101,-3.4101,-3.4101,-3.4101,-3.4101,-3.4101,-3.4101,-3.4101,-3.4101,-3.4101,-3.4101,-3.4101,-3.4407,-3.4682,-3.4682,-3.4435,-3.4188,-3.4188,-3.3447,-3.2723,-3.2357,-3.171,-3.121,-3.1011,-3.0483,-3.0108,-3.0108,-2.9989,-2.9896,-2.9896,-3.0108,-3.0262,-3.0262,-3.0518,-3.0703,-3.0727,-3.0727,-3.0851,-3.115,-3.1435,-3.1823,-3.2318,-3.2074,-3.195,-3.202,-3.1787,-3.1695,-3.1695,-3.1695,-3.1805,-2.6312,-2.615,-2.5893,-2.5893,-2.5893,-2.602,-2.654,-2.6736,-2.7102,-2.8141,-2.8942,-2.96,0.0,0.0,0.0,0.0,0.0,0.0,0.0,0.0,0.0,0.0,0.0,0.0,0.0,0.0,0.0,0.0,0.0,0.0,0.0,0.0,-3.284,-3.2814,-3.2825,-3.284,-3.2814,-3.2248,-3.1964,-3.1974,-3.1385,-3.1126,-3.1182,-3.2857,-3.3778,-3.4096,-3.3737,-3.3693,-3.3872,-3.3872,-3.3937,-3.4025,-3.4025,-3.4,-3.3949,-3.3949,-3.3949,-3.3975,-3.4,-3.4025,-3.405,-3.4075,-3.4101,-3.4101,-3.405,-3.4025,-3.4025,-3.4025,-3.4025,-3.4018,-3.3955,-3.3922,-3.389,-3.3777,-3.3744,-3.3777,-3.389,-3.3388,-3.2902,-3.2902,-3.2319,-3.1568,-3.0839,-3.0285,-2.9896,-2.9896,-2.9896,-2.9896,-2.9896,-2.9896,-2.9896,-2.9896,-2.9896,-2.9896,-2.9896,-2.9896,-2.9924,-2.9973,-2.9973,-3.0194,-3.0642,-3.0642,-3.0888,-3.1433,-3.1399,-3.1437,-3.1547,-3.1471,-3.1452,-3.1471,-3.1471,-3.1509,-2.5975,-2.5948,-2.5893,-2.5893,-2.5893,-2.5921,-2.5992,-2.6427,-2.6863,0.0,-2.8001,0.0,0.0,0.0,0.0,0.0,0.0,0.0,0.0,0.0,0.0,0.0,0.0,0.0,0.0,0.0,0.0,0.0,0.0,0.0,0.0,-3.0985,-3.1036,-3.0794,-3.1011,-3.1036,-3.0794,-3.0701,-3.0655,-3.0655,-3.0803,-3.0842,-3.0867,-3.1365,-3.1618,-3.1667,-3.1618,-3.2083,-3.2898,-3.2898,-3.3226,-3.3745,-3.3745,-3.3607,-3.3398,-3.3398,-3.3398,-3.345,-3.3668,-3.3745,-3.3797,-3.4025,-3.4101,-3.405,-3.3822,-3.3745,-3.3745,-3.3745,-3.3745,-3.3668,-3.3323,-3.3226,-3.3064,-3.2433,-3.2287,-3.2465,-3.3097,-3.2659,-3.2158,-3.2158,-3.1535,-3.0823,-3.0156,-2.9961,-2.9896,-2.9896,-2.9896,-2.9896,-2.9896,-2.9896,-2.9896,-2.9896,-2.9896,-2.9896,-2.9896,-2.9896,-2.9902,-2.9902,-2.9902,-2.9968,-3.0087,-3.0038,-3.0146,-3.0405,-3.0723,-3.0908,-3.0908,-3.0576,-3.0447,-3.0572,-3.0572,-3.0781,-2.5893,-2.5893,-2.5893,-2.5893,-2.5893,-2.5893,-2.5893,-2.6104,-2.6399,-2.6736,-2.7256,0.0,0.0,0.0,0.0,0.0,0.0,0.0,0.0,0.0,0.0,0.0,0.0,0.0,0.0,0.0,0.0,0.0,0.0,0.0,-3.0417,-3.0516,-3.0516,-3.0386,-3.0516,-3.0516,-3.0402,-3.0017,-2.9648,-2.9289,-2.9398,-2.9447,-2.9472,-2.9595,-3.0206,-3.1184,-3.1184,-3.1448,-3.1874,-3.1874,-3.2024,-3.2294,-3.2294,-3.2235,-3.2133,-3.2133,-3.2133,-3.2196,-3.272,-3.293,-3.302,-3.3505,-3.3226,-3.2681,-3.2567,-3.2102,-3.167,-3.1907,-3.1789,-3.1633,-3.1697,-3.1527,-3.1306,-3.1033,-3.0607,-3.0378,-3.0822,-3.1166,-3.126,-3.0895,-3.0554,-3.0164,-2.9541,-2.9448,-2.9357,-2.9051,-2.9005,-2.9097,-2.9425,-2.9448,-2.9576,-2.9874,-2.9896,-2.9896,-2.9896,-2.9896,-2.977,-2.947,-2.9448,-2.9341,-2.9058,-2.9028,-2.9051,-2.9127,-2.9946,-3.0389,-3.0452,-3.0295,-3.0231,-3.029,-3.029,-3.0401,-2.5893,-2.5893,-2.5893,-2.5893,-2.5893,-2.5893,-2.5893,-2.5893,-2.602,0.0,0.0,0.0,0.0,0.0,0.0,0.0,0.0,0.0,0.0,0.0,0.0,0.0,0.0,0.0,0.0,0.0,0.0,0.0,0.0,0.0,-2.9725,-2.9751,-2.9751,-2.9751,-2.9828,-2.9879,-2.9879,-2.9387,-2.8879,-2.8411,-2.8299,-2.825,-2.825,-2.8113,-2.8815,-3.0164,-3.0295,-3.0413,-3.0545,-3.0644,-3.0779,-3.0961,-3.1076,-3.1002,-3.0836,-3.0836,-3.0785,-3.0787,-3.1394,-3.1607,-3.1711,-3.228,-3.1877,-3.1175,-3.1111,-3.0532,-2.995,-3.0253,-3.0134,-2.9931,-3.0125,-2.9951,-2.9698,-2.9623,-2.9103,-2.8703,-2.8834,-2.9538,-3.0002,-2.9498,-2.9403,-2.9273,-2.8865,-2.8826,-2.8709,-2.8312,-2.8264,-2.8432,-2.8865,-2.8912,-2.9051,-2.9448,-2.9493,-2.9493,-2.9493,-2.9493,-2.9319,-2.8935,-2.8912,-2.8709,-2.8328,-2.8288,-2.8288,-2.8288,-2.9127,-2.9611,-2.9722,-2.9722,-2.9722,-2.9766,-2.9766,-2.9804,-2.5893,-2.5893,-2.5893,-2.5893,-2.5893,-2.5893,-2.5893,-2.5893,-2.5907,-2.5936,0.0,0.0,0.0,0.0,0.0,0.0,0.0,0.0,0.0,0.0,0.0,0.0,0.0,0.0,0.0,0.0,0.0,0.0,0.0,0.0,-2.7951,-2.7946,-2.7946,-2.7946,-2.8308,-2.8504,-2.8504,-2.8473,-2.8442,-2.8411,-2.8014,-2.784,-2.7815,-2.7367,-2.7229,-2.7354,-2.7765,-2.8278,-2.8755,-2.9154,-2.969,-3.0299,-3.0674,-3.0433,-2.9872,-2.9872,-2.9615,-2.9344,-2.9642,-2.975,-2.9776,-3.0068,-3.0132,-3.0049,-2.9788,-2.9666,-2.9636,-2.9651,-2.9651,-2.9512,-2.9108,-2.8976,-2.8799,-2.8181,-2.7989,-2.7944,-2.7959,-2.8008,-2.8042,-2.8012,-2.7997,-2.7997,-2.7987,-2.8055,-2.8152,-2.8112,-2.8216,-2.8328,-2.8336,-2.8336,-2.8336,-2.8376,-2.8376,-2.8376,-2.8376,-2.8376,-2.836,-2.8336,-2.8336,-2.8312,-2.8288,-2.8288,-2.8288,-2.8288,-2.836,-2.8384,-2.8384,-2.8384,-2.8472,-2.8583,-2.8583,-2.8654,-2.5893,-2.5893,-2.5893,-2.5893,-2.5893,-2.5893,-2.5893,-2.5893,-2.5893,-2.5893,0.0,0.0,0.0,0.0,0.0,0.0,0.0,0.0,0.0,0.0,0.0,0.0,0.0,0.0,0.0,0.0,0.0,0.0,0.0,0.0,-2.7331,-2.7342,-2.7342,-2.7342,-2.7494,-2.7585,-2.7585,-2.7585,-2.7585,-2.7545,-2.7418,-2.7342,-2.7342,-2.7174,-2.6967,-2.6707,-2.6878,-2.7218,-2.7643,-2.7797,-2.7983,-2.8218,-2.8362,-2.8299,-2.8066,-2.8066,-2.7961,-2.7915,-2.8503,-2.8705,-2.8806,-2.9316,-2.8976,-2.8378,-2.8299,-2.7763,-2.7281,-2.755,-2.7416,-2.7265,-2.7348,-2.7185,-2.6915,-2.6671,-2.668,-2.6707,-2.6628,-2.7004,-2.7489,-2.7824,-2.7898,-2.7775,-2.7439,-2.7439,-2.7338,-2.6993,-2.7056,-2.7272,-2.7625,-2.7725,-2.7923,-2.8264,-2.8216,-2.8176,-2.8176,-2.8094,-2.7923,-2.766,-2.7675,-2.7565,-2.7357,-2.7331,-2.7331,-2.7331,-2.7331,-2.7655,-2.8288,-2.8288,-2.8328,-2.8376,-2.8376,-2.84,-2.5893,-2.5893,-2.5893,-2.5893,-2.5893,-2.5893,-2.5893,-2.5893,-2.5893,-2.5893,0.0,0.0,0.0,0.0,0.0,0.0,0.0,0.0,0.0,0.0,0.0,0.0,0.0,0.0,0.0,0.0,0.0,0.0,0.0,0.0,-2.6864,-2.689,-2.6967,-2.7097,-2.7097,-2.7097,-2.7097,-2.7097,-2.7097,-2.7097,-2.6967,-2.689,-2.689,-2.6759,-2.6563,-2.6297,-2.6297,-2.6457,-2.6721,-2.6837,-2.689,-2.6916,-2.7045,-2.7019,-2.689,-2.689,-2.6811,-2.6779,-2.7256,-2.7428,-2.7501,-2.7964,-2.7572,-2.6953,-2.6953,-2.6464,-2.5975,-2.6231,-2.6096,-2.5975,-2.6231,-2.6096,-2.5893,-2.5893,-2.5975,-2.6002,-2.5921,-2.6324,-2.6811,-2.7159,-2.7236,-2.7108,-2.6759,-2.6733,-2.6642,-2.6272,-2.6353,-2.6563,-2.6927,-2.7045,-2.7236,-2.759,-2.755,-2.75,-2.75,-2.7399,-2.7261,-2.6979,-2.6953,-2.6852,-2.6633,-2.6621,-2.6633,-2.6712,-2.6486,-2.6774,-2.7485,-2.769,-2.7805,-2.7805,-2.7805,-2.7805,0.0,0.0,0.0,-2.5893,-2.5893,-2.5893,-2.5893,-2.5893,-2.5893,0.0,0.0,0.0,0.0,0.0,0.0,0.0,0.0,0.0,0.0,0.0,0.0,0.0,0.0,0.0,0.0,0.0,0.0,0.0,0.0,-2.6069,-2.6457,-2.6484,-2.6654,-2.7045,-2.7071,-2.7071,-2.7071,-2.7071,-2.7071,-2.7071,-2.6654,-2.6484,-2.6457,-2.6069,-2.5893,-2.5893,-2.5893,-2.5893,-2.5921,-2.6324,-2.6484,-2.651,-2.6916,-2.6837,-2.6484,-2.6484,-2.6231,-2.5893,-2.5893,-2.5893,-2.5893,-2.5893,-2.5893,-2.5893,-2.5893,-2.5893,-2.5893,-2.5893,-2.5893,-2.5893,-2.5866,-2.5866,-2.5839,-2.5839,-2.5839,-2.5839,-2.5839,-2.5839,-2.5866,-2.5893,-2.5893,-2.5893,-2.5866,-2.5975,-2.6056,-2.6029,-2.6138,-2.6233,-2.6233,-2.6245,-2.6245,-2.6286,-2.6286,-2.6272,-2.6286,-2.6286,-2.626,-2.6286,-2.626,-2.6245,-2.626,-2.626,-2.6326,-2.6457,-2.5864,-2.566,-2.5866,-2.6447,-2.6753,-2.6753,-2.6753,-2.6753,-2.5258,0.0,0.0,0.0,0.0,0.0,-2.5853,-2.5893,-2.5893,0.0,0.0,0.0,0.0,0.0,0.0,0.0,0.0,0.0,0.0,0.0,0.0,0.0,0.0,0.0,0.0,0.0,0.0,0.0,-2.5975,-2.5948,-2.6069,-2.6084,-2.6123,-2.6231,-2.6231,-2.6231,-2.6231,-2.6231,-2.6231,-2.6231,-2.6123,-2.6084,-2.6069,-2.5948,-2.5893,-2.5893,-2.5893,-2.5893,-2.5921,-2.6029,-2.6084,-2.6069,-2.6204,-2.615,-2.6084,-2.6084,-2.6002,-2.5893,-2.5893,-2.5893,-2.5893,-2.5893,-2.5893,-2.5893,-2.5893,-2.5893,-2.5893,-2.5893,-2.5893,-2.5811,-2.537,-2.4893,-2.4525,-2.4525,-2.4525,-2.4525,-2.4525,-2.4525,-2.4809,-2.5715,-2.5893,-2.5757,-2.5314,-2.5286,-2.5132,-2.4639,-2.4738,-2.4851,-2.4851,-2.4951,-2.5175,-2.5605,-2.555,-2.5674,-2.6111,-2.5674,-2.5411,-2.5495,-2.5077,-2.4908,-2.4993,-2.4993,-2.5021,-2.5064,-2.4895,-2.4811,-2.4881,-2.53,-2.5495,-2.5495,-2.5495,-2.5729,0.0,0.0,0.0,0.0,0.0,0.0,-2.5481,-2.5536,-2.5564,0.0,0.0,0.0,0.0,0.0,0.0,0.0,0.0,0.0,0.0,0.0,0.0,0.0,0.0,0.0,0.0,0.0,0.0,0.0,-2.5893,-2.5893,-2.5893,-2.5893,-2.5893,-2.5893,-2.5893,-2.5893,-2.5893,-2.5893,-2.5893,-2.5893,-2.5893,-2.5893,-2.5893,-2.5893,-2.5893,-2.5893,-2.5893,-2.5893,-2.5893,-2.5893,-2.5893,-2.5893,-2.5893,-2.5893,-2.5893,-2.5893,-2.5893,-2.5893,-2.5893,-2.5893,-2.5893,-2.5893,-2.5893,-2.5893,-2.5893,-2.5729,-2.5536,-2.5536,-2.5314,-2.5021,-2.4652,-2.4295,-2.3992,-2.3992,-2.3992,-2.3992,-2.3992,-2.3992,-2.4224,-2.4951,-2.5105,-2.4992,-2.4624,-2.4567,-2.4452,-2.405,-2.4092,-2.415,-2.415,-2.4253,-2.4412,-2.4768,-2.4739,-2.4824,-2.5189,-2.4823,-2.4624,-2.4682,-2.4381,-2.4208,-2.4297,-2.4297,-2.4326,-2.4397,-2.4153,-2.3933,-2.3741,-2.4454,-2.4824,-2.4881,-2.4881,-2.5063,0.0,0.0,0.0,0.0,-2.4935,0.0,-2.4977,-2.5005,-2.5061,-2.5369,0.0,0.0,0.0,0.0,0.0,0.0,0.0,0.0,0.0,0.0,0.0,0.0,0.0,0.0,0.0,-2.5893,-2.5893,-2.5893,-2.5893,-2.5893,-2.5866,-2.5866,-2.5893,-2.5893,-2.5893,-2.5893,-2.5893,-2.5893,-2.5893,-2.5893,-2.5893,-2.5893,-2.5893,-2.5893,-2.5866,-2.5811,-2.5811,-2.5757,-2.5688,-2.5688,-2.577,-2.5893,-2.5893,-2.5893,-2.5893,-2.5811,-2.5811,-2.5784,-2.5715,-2.5688,-2.5688,-2.5688,-2.5688,-2.5688,-2.5688,-2.53,-2.4878,-2.4878,-2.4394,-2.3904,-2.3904,-2.3846,-2.38,-2.38,-2.38,-2.38,-2.38,-2.38,-2.38,-2.38,-2.3904,-2.3992,-2.3904,-2.3904,-2.3875,-2.3829,-2.38,-2.38,-2.38,-2.38,-2.3816,-2.3875,-2.3904,-2.3933,-2.3992,-2.3933,-2.3904,-2.3904,-2.3846,-2.38,-2.38,-2.38,-2.3888,-2.406,-2.3475,-2.2992,-2.2659,-2.3771,-2.4355,-2.4498,-2.4498,-2.4526,0.0,0.0,0.0,0.0,0.0,0.0,-2.4948,-2.5005,-2.5005,0.0,0.0,0.0,0.0,0.0,0.0,0.0,0.0,0.0,0.0,0.0,0.0,0.0,0.0,0.0,0.0,-2.5893,-2.5893,-2.5893,-2.5893,-2.5798,-2.5605,-2.5771,-2.5893,-2.5893,-2.5893,-2.5893,-2.5893,-2.5893,-2.5893,-2.5893,-2.5893,-2.5893,-2.5893,-2.5893,-2.5647,-2.5174,-2.5174,-2.4865,-2.4368,-2.4368,-2.4951,-2.5893,-2.5893,-2.5893,-2.5839,-2.5342,-2.5174,-2.5118,-2.4553,-2.4368,-2.4368,-2.4368,-2.4368,-2.4368,-2.4368,-2.4295,-2.4208,-2.4208,-2.3758,-2.3297,-2.3297,-2.2932,-2.2543,-2.2543,-2.2543,-2.2543,-2.2543,-2.2543,-2.2543,-2.2543,-2.3339,-2.3846,-2.3344,-2.3297,-2.313,-2.2622,-2.2543,-2.2543,-2.2543,-2.2543,-2.2732,-2.3207,-2.3297,-2.3463,-2.3962,-2.3551,-2.3297,-2.3297,-2.2811,-2.2543,-2.2543,-2.2543,-2.2574,-2.2604,-2.2482,-2.2389,-2.229,-2.2818,-2.3047,-2.3078,-2.3078,-2.3352,0.0,0.0,0.0,-2.4261,0.0,0.0,0.0,-2.4563,-2.4578,-2.4736,-2.445,0.0,0.0,0.0,0.0,0.0,0.0,0.0,0.0,0.0,0.0,0.0,0.0,0.0,0.0,-2.5893,-2.5839,-2.5702,-2.5702,-2.5647,-2.5494,-2.5467,-2.5591,-2.5893,-2.5771,-2.5702,-2.5702,-2.5536,-2.5328,-2.509,-2.4936,-2.4809,-2.4711,-2.4711,-2.454,-2.4266,-2.4366,-2.4221,-2.3904,-2.3962,-2.4368,-2.4951,-2.4951,-2.4951,-2.4922,-2.4595,-2.4509,-2.4452,-2.4121,-2.3992,-2.3992,-2.3904,-2.3917,-2.3875,-2.3787,-2.361,-2.3386,-2.307,-2.2811,-2.2641,-2.2641,-2.242,-2.2197,-2.2197,-2.2197,-2.2197,-2.2197,-2.2197,-2.2197,-2.2197,-2.2684,-2.3022,-2.2702,-2.2641,-2.2561,-2.2247,-2.2197,-2.2197,-2.2197,-2.2197,-2.234,-2.261,-2.2641,-2.275,-2.3083,-2.2811,-2.2641,-2.2641,-2.2359,-2.2197,-2.2197,-2.2197,-2.2197,-2.2197,-2.2197,-2.2197,-2.2197,-2.2383,-2.2506,-2.2555,-2.2555,-2.2862,0.0,0.0,0.0,0.0,0.0,-2.4083,0.0,0.0,0.0,-2.4392,0.0,0.0,0.0,0.0,0.0,0.0,0.0,0.0,0.0,0.0,0.0,0.0,0.0,0.0,0.0,-2.5674,-2.5619,-2.5522,-2.5257,-2.5159,-2.5257,-2.4907,-2.4921,-2.5425,-2.523,-2.5103,-2.5103,-2.485,-2.4523,-2.4134,-2.3859,-2.3669,-2.3509,-2.3509,-2.345,-2.3331,-2.3492,-2.3505,-2.3386,-2.3505,-2.3564,-2.3581,-2.3846,-2.3962,-2.3933,-2.3787,-2.3728,-2.3699,-2.3581,-2.3564,-2.3535,-2.3416,-2.3399,-2.3369,-2.3195,-2.2937,-2.2567,-2.2018,-2.1968,-2.2104,-2.2104,-2.2135,-2.2123,-2.2123,-2.2123,-2.2123,-2.2123,-2.2135,-2.2104,-2.2104,-2.2135,-2.2154,-2.2185,-2.2197,-2.2197,-2.2197,-2.2197,-2.2197,-2.2197,-2.2197,-2.2197,-2.2197,-2.2197,-2.2197,-2.2197,-2.2197,-2.2197,-2.2197,-2.2197,-2.2197,-2.2197,-2.2061,-2.1925,-2.18,-2.18,-2.18,-2.18,-2.2032,-2.2219,-2.2359,-2.2468,-2.2747,0.0,0.0,0.0,0.0,-2.4083,0.0,0.0,0.0,-2.4112,-2.4141,0.0,0.0,0.0,0.0,0.0,0.0,0.0,0.0,0.0,0.0,0.0,0.0,0.0,0.0,0.0,0.0,0.0,-2.5467,-2.4394,-2.3933,-2.4408,-2.3933,-2.3715,-2.3761,-2.3745,-2.3715,-2.3715,-2.3686,-2.3627,-2.3598,-2.3568,-2.3509,-2.3509,-2.3509,-2.3212,-2.2713,-2.2713,-2.2433,-2.1937,-2.1968,-2.1968,-2.208,-2.3339,-2.3829,-2.3741,-2.3015,-2.2774,-2.2695,-2.2161,-2.1968,-2.1968,-2.1937,-2.1937,-2.1937,-2.1906,-2.1874,-2.1812,-2.173,-2.173,-2.1761,-2.1761,-2.1843,-2.1925,-2.1925,-2.1925,-2.1925,-2.1925,-2.1843,-2.1761,-2.1761,-2.1843,-2.1999,-2.2154,-2.2197,-2.2197,-2.2197,-2.2197,-2.2197,-2.2197,-2.2197,-2.2197,-2.2197,-2.2197,-2.2197,-2.2197,-2.2197,-2.2197,-2.2197,-2.2197,-2.2197,-2.2197,-2.1557,-2.0944,-2.0355,-2.0334,-2.0334,-2.0334,-2.142,-2.2034,-2.2228,-2.2698,-2.2951,0.0,0.0,0.0,0.0,0.0,0.0,-2.4083,0.0,-2.4083,0.0,0.0,0.0,0.0,0.0,0.0,0.0,0.0,0.0,0.0,0.0,0.0,0.0,0.0,0.0,0.0,0.0,0.0,0.0,0.0,-2.3374,-2.3594,-2.3195,-2.3152,-2.3509,-2.3331,-2.3284,-2.3284,-2.3062,-2.2822,-2.2561,-2.2378,-2.2224,-2.2175,-2.2175,-2.2021,-2.1784,-2.1877,-2.1765,-2.1549,-2.1667,-2.1698,-2.1761,-2.2218,-2.2494,-2.2549,-2.218,-2.2099,-2.2037,-2.1781,-2.1698,-2.1667,-2.1549,-2.1486,-2.1391,-2.1391,-2.1454,-2.1549,-2.1549,-2.1624,-2.1698,-2.1698,-2.173,-2.1781,-2.1781,-2.1474,-2.1155,-2.1155,-2.0773,-2.0409,-2.0409,-2.0473,-2.0526,-2.0634,-2.1494,-2.2166,-2.203,-2.203,-2.1999,-2.1917,-2.1917,-2.1917,-2.1917,-2.1917,-2.1949,-2.203,-2.203,-2.1862,-2.1482,-2.0921,-2.0623,-2.0623,-2.0333,-2.0031,-1.9748,-2.0116,-2.0334,-2.0334,-2.1184,-2.1632,-2.1742,-2.2923,-2.3394,-2.4083,0.0,0.0,0.0,0.0,0.0,0.0,0.0,0.0,0.0,0.0,0.0,0.0,0.0,0.0,0.0,0.0,0.0,0.0,0.0,0.0,0.0,0.0,0.0,0.0,0.0,0.0,0.0,0.0,0.0,-2.2907,-2.2482,-2.2421,-2.2852,-2.2695,-2.2573,-2.2573,-2.2329,-2.2063,-2.1702,-2.1451,-2.1273,-2.119,-2.119,-2.119,-2.1221,-2.1305,-2.1368,-2.1368,-2.1486,-2.1561,-2.1561,-2.1411,-2.1411,-2.1561,-2.1561,-2.1561,-2.1561,-2.1561,-2.1561,-2.1529,-2.138,-2.1273,-2.119,-2.119,-2.1285,-2.1368,-2.1368,-2.1454,-2.1561,-2.1561,-2.1592,-2.1561,-2.1403,-2.0944,-2.0505,-2.0301,-1.977,-1.9344,-1.9344,-1.941,-1.9442,-1.9442,-2.057,-2.142,-2.1262,-2.123,-2.1273,-2.1391,-2.1391,-2.1486,-2.1667,-2.1698,-2.1655,-2.1557,-2.1526,-2.1262,-2.0558,-1.9868,-1.9462,-1.9389,-1.9389,-1.9362,-1.9294,-1.9761,-1.9997,-1.9997,-2.0783,-2.1193,-2.1264,-2.2708,-2.3259,0.0,0.0,0.0,-2.4083,0.0,0.0,0.0,0.0,-2.3552,0.0,0.0,0.0,0.0,0.0,0.0,0.0,0.0,0.0,0.0,0.0,0.0,0.0,0.0,0.0,0.0,0.0,0.0,0.0,0.0,0.0,-2.2372,-2.1671,-2.1253,-2.1285,-2.1285,-2.1253,-2.1253,-2.1253,-2.1221,-2.1221,-2.1221,-2.119,-2.119,-2.119,-2.119,-2.119,-2.119,-2.1221,-2.1221,-2.1221,-2.1233,-2.1233,-2.1221,-2.1221,-2.1233,-2.1233,-2.1233,-2.1233,-2.1233,-2.1233,-2.1221,-2.1221,-2.119,-2.119,-2.119,-2.119,-2.1221,-2.1221,-2.1221,-2.1233,-2.1233,-2.1305,-2.1262,-2.0592,-2.042,-2.0193,-1.9497,-1.9166,-1.9011,-1.9011,-1.9166,-1.9299,-1.9299,-1.9453,-1.9563,-1.9563,-1.9563,-1.9835,-2.0526,-2.0623,-2.0901,-2.1624,-2.1698,-2.1423,-2.0687,-2.0655,-2.0322,-1.9596,-1.953,-1.9366,-1.9103,-1.9123,-1.9002,-1.8709,-1.8738,-1.8775,-1.8775,-1.9937,-2.0619,-2.0831,-2.1818,-2.2262,0.0,0.0,-2.4083,-2.4083,0.0,0.0,0.0,0.0,0.0,0.0,0.0,0.0,0.0,0.0,0.0,0.0,0.0,0.0,0.0,0.0,0.0,0.0,0.0,0.0,0.0,0.0,0.0,0.0,0.0,0.0,0.0,-2.1348,-2.119,-2.119,-2.119,-2.119,-2.119,-2.119,-2.119,-2.119,-2.119,-2.119,-2.119,-2.119,-2.119,-2.119,-2.119,-2.119,-2.119,-2.119,-2.119,-2.1158,-2.0656,-2.0463,-2.0463,-2.0463,-2.0463,-2.0399,-1.9901,-1.9737,-1.9737,-1.9737,-1.9737,-1.9835,-2.0334,-2.0463,-2.0463,-2.0463,-2.0463,-2.0366,-1.9868,-1.9792,-1.9759,-1.954,-1.9133,-1.8734,-1.8499,-1.8003,-1.7604,-1.7604,-1.7672,-1.7706,-1.7706,-1.774,-1.8128,-1.9222,-1.9354,-1.942,-1.9529,-1.9529,-1.9628,-1.9901,-1.9911,-1.9868,-1.9759,-1.93,-1.9037,-1.9039,-1.8518,-1.8267,-1.8428,-1.8447,-1.8413,-1.8304,-1.8714,-1.8882,-1.8892,-1.9717,-2.014,-2.0217,-2.0514,-2.1113,-2.4083,-2.4083,0.0,-2.4083,-2.4083,0.0,-2.4083,0.0,0.0,0.0,0.0,0.0,0.0,0.0,0.0,0.0,0.0,0.0,0.0,-2.119,0.0,0.0,0.0,0.0,0.0,0.0,0.0,0.0,0.0,0.0,0.0,0.0,-2.119,-2.119,-2.119,-2.119,-2.119,-2.119,-2.119,-2.119,-2.119,-2.119,-2.119,-2.119,-2.119,-2.119,-2.0924,-2.0955,-2.1158,-2.0624,-2.056,-2.0732,-2.0009,-1.9704,-1.9704,-1.9704,-1.9704,-1.9639,-1.9177,-1.9011,-1.9011,-1.9011,-1.9011,-1.9077,-1.9573,-1.9704,-1.9704,-1.9704,-1.9704,-1.9606,-1.911,-1.9011,-1.8944,-1.871,-1.8297,-1.7935,-1.7672,-1.7245,-1.6908,-1.6908,-1.6908,-1.6908,-1.6908,-1.6908,-1.7235,-1.8307,-1.8442,-1.8499,-1.8633,-1.8633,-1.8744,-1.8977,-1.9011,-1.8977,-1.8834,-1.83,-1.8058,-1.8302,-1.7948,-1.7908,-1.832,-1.8292,-1.8292,-1.8292,-1.883,-1.9036,-1.8888,-1.9422,-1.9706,-1.9784,-1.9784,-2.0284]},{"header":{"parameterUnit":"m.s-1","parameterCategory":1,"la1":30.6,"la2":29.2853,"lo1":-89.7004,"lo2":-87.6739,"dy":0.0162,"dx":0.0183,"nx":112,"ny":82,"refTime":"2024-03-24T06:00:00:Z","depth":0,"parameterNumber":3,"parameterNumberName":"V-component_of_WINDS"},"data":[0.0,0.0,0.0,0.0,0.0,0.0,0.0,0.0,0.0,0.0,0.0,0.0,0.0,0.0,0.0,0.0,0.0,0.0,0.0,0.0,0.0,0.0,0.0,0.0,0.0,0.0,0.0,0.0,0.0,0.0,0.0,0.0,0.0,0.0,0.0,0.0,0.0,0.0,0.0,0.0,0.0,0.0,0.0,0.0,0.0,0.0,0.0,0.0,0.0,0.0,0.0,0.0,0.0,0.0,0.0,0.0,0.0,0.0,0.0,0.0,0.0,0.0,0.0,0.0,0.0,0.0,0.0,0.0,0.0,0.0,0.0,0.0,0.0,0.0,0.0,0.0,0.0,0.0,0.0,0.0,0.0,0.0,0.0,0.0,0.0,0.0,0.0,0.0,0.0,0.0,-1.5347,-1.5298,-1.4908,-1.4566,-1.4398,-1.3966,-1.3885,-1.442,0.0,0.0,0.0,0.0,0.0,0.0,0.0,0.0,0.0,0.0,0.0,0.0,0.0,0.0,0.0,0.0,0.0,0.0,0.0,0.0,0.0,0.0,0.0,0.0,0.0,0.0,0.0,0.0,0.0,0.0,0.0,0.0,0.0,0.0,0.0,0.0,0.0,0.0,0.0,0.0,0.0,0.0,0.0,0.0,0.0,0.0,0.0,0.0,0.0,0.0,0.0,0.0,0.0,0.0,0.0,0.0,0.0,0.0,0.0,0.0,0.0,0.0,0.0,0.0,0.0,0.0,0.0,0.0,0.0,0.0,0.0,0.0,0.0,0.0,0.0,0.0,0.0,0.0,0.0,0.0,0.0,0.0,0.0,0.0,0.0,0.0,0.0,0.0,0.0,0.0,0.0,0.0,0.0,0.0,0.0,0.0,0.0,0.0,0.0,0.0,0.0,0.0,0.0,0.0,-1.5048,-1.4824,-1.4608,-1.444,-1.4398,-1.4125,-1.4125,-1.4629,0.0,0.0,0.0,0.0,0.0,0.0,0.0,0.0,0.0,0.0,0.0,0.0,0.0,0.0,0.0,0.0,0.0,0.0,0.0,0.0,0.0,0.0,0.0,0.0,0.0,0.0,0.0,0.0,0.0,0.0,0.0,0.0,0.0,0.0,0.0,0.0,0.0,0.0,0.0,0.0,0.0,0.0,0.0,0.0,0.0,0.0,0.0,0.0,0.0,0.0,0.0,0.0,0.0,0.0,0.0,0.0,0.0,0.0,0.0,0.0,0.0,0.0,0.0,0.0,0.0,0.0,0.0,0.0,0.0,0.0,0.0,0.0,0.0,0.0,0.0,0.0,0.0,0.0,0.0,0.0,0.0,0.0,0.0,0.0,0.0,0.0,0.0,0.0,0.0,0.0,0.0,0.0,0.0,0.0,0.0,0.0,0.0,0.0,0.0,0.0,0.0,0.0,0.0,-1.5305,-1.5215,-1.5082,-1.4915,-1.4671,-1.4379,-1.4111,-1.4021,-1.4034,-1.356,0.0,0.0,0.0,0.0,0.0,0.0,0.0,0.0,0.0,0.0,0.0,0.0,0.0,0.0,0.0,0.0,0.0,0.0,0.0,0.0,0.0,0.0,0.0,0.0,0.0,0.0,0.0,0.0,0.0,0.0,0.0,0.0,0.0,0.0,0.0,0.0,0.0,0.0,0.0,0.0,0.0,0.0,0.0,0.0,0.0,0.0,0.0,0.0,0.0,0.0,0.0,0.0,0.0,0.0,0.0,0.0,0.0,0.0,0.0,0.0,0.0,0.0,0.0,0.0,0.0,0.0,0.0,0.0,0.0,0.0,0.0,0.0,0.0,0.0,0.0,0.0,0.0,0.0,0.0,0.0,0.0,0.0,0.0,0.0,0.0,0.0,0.0,0.0,0.0,0.0,0.0,0.0,0.0,0.0,0.0,0.0,0.0,0.0,0.0,0.0,0.0,0.0,-1.5124,-1.5073,-1.5032,-1.495,-1.4678,-1.4235,-1.3943,-1.3713,-1.3588,-1.33,0.0,0.0,0.0,0.0,0.0,0.0,0.0,0.0,0.0,0.0,0.0,0.0,0.0,0.0,0.0,0.0,0.0,0.0,0.0,0.0,0.0,0.0,0.0,0.0,0.0,0.0,0.0,0.0,0.0,0.0,0.0,0.0,0.0,0.0,0.0,0.0,0.0,0.0,0.0,0.0,0.0,0.0,0.0,0.0,0.0,0.0,0.0,0.0,0.0,0.0,0.0,0.0,0.0,0.0,0.0,0.0,0.0,0.0,0.0,0.0,0.0,0.0,0.0,0.0,0.0,0.0,0.0,0.0,0.0,0.0,0.0,0.0,0.0,0.0,0.0,0.0,0.0,0.0,0.0,0.0,0.0,0.0,0.0,0.0,0.0,0.0,0.0,0.0,0.0,0.0,0.0,0.0,0.0,0.0,0.0,0.0,0.0,0.0,0.0,0.0,0.0,0.0,-1.4308,-1.4177,-1.3926,-1.4084,-1.407,-1.3852,-1.3386,-1.326,-1.3764,-1.3068,0.0,0.0,0.0,0.0,0.0,0.0,0.0,0.0,0.0,0.0,0.0,0.0,0.0,0.0,0.0,0.0,0.0,0.0,0.0,0.0,0.0,0.0,0.0,0.0,0.0,0.0,0.0,0.0,0.0,0.0,0.0,0.0,0.0,0.0,0.0,0.0,0.0,0.0,0.0,0.0,0.0,0.0,0.0,0.0,0.0,0.0,0.0,0.0,0.0,0.0,0.0,0.0,0.0,0.0,0.0,0.0,0.0,0.0,0.0,0.0,0.0,0.0,0.0,0.0,0.0,0.0,0.0,0.0,0.0,0.0,0.0,0.0,0.0,0.0,0.0,0.0,0.0,0.0,0.0,0.0,0.0,0.0,0.0,0.0,0.0,0.0,0.0,0.0,0.0,0.0,0.0,0.0,0.0,0.0,0.0,0.0,0.0,0.0,0.0,0.0,0.0,0.0,-1.4098,-1.3988,0.0,-1.3942,-1.3825,-1.3397,-1.3196,-1.3099,-1.325,0.0,0.0,0.0,0.0,0.0,0.0,0.0,0.0,0.0,0.0,0.0,0.0,0.0,0.0,0.0,0.0,0.0,0.0,0.0,0.0,0.0,0.0,0.0,0.0,0.0,0.0,0.0,0.0,0.0,0.0,0.0,0.0,0.0,0.0,0.0,0.0,0.0,0.0,0.0,0.0,0.0,0.0,0.0,0.0,0.0,0.0,0.0,0.0,0.0,0.0,0.0,0.0,0.0,0.0,0.0,0.0,0.0,0.0,0.0,0.0,0.0,0.0,0.0,0.0,0.0,0.0,0.0,0.0,0.0,0.0,0.0,0.0,0.0,0.0,0.0,0.0,0.0,0.0,0.0,0.0,0.0,0.0,0.0,0.0,0.0,0.0,0.0,0.0,0.0,0.0,0.0,0.0,0.0,0.0,0.0,0.0,0.0,0.0,0.0,0.0,0.0,0.0,-1.391,-1.3677,-1.3491,0.0,-1.353,-1.3408,-1.2965,-1.2952,-1.29,-1.2797,0.0,0.0,0.0,0.0,0.0,0.0,0.0,0.0,0.0,0.0,0.0,0.0,0.0,0.0,0.0,0.0,0.0,0.0,0.0,0.0,0.0,0.0,0.0,0.0,0.0,0.0,0.0,0.0,0.0,0.0,0.0,0.0,0.0,0.0,0.0,0.0,0.0,0.0,0.0,0.0,0.0,0.0,0.0,0.0,0.0,0.0,0.0,0.0,0.0,0.0,0.0,0.0,0.0,0.0,0.0,0.0,0.0,0.0,0.0,0.0,0.0,0.0,0.0,0.0,0.0,0.0,0.0,0.0,0.0,0.0,0.0,0.0,0.0,0.0,0.0,0.0,0.0,0.0,0.0,0.0,0.0,0.0,0.0,0.0,0.0,0.0,0.0,0.0,0.0,0.0,0.0,0.0,0.0,0.0,0.0,0.0,0.0,0.0,0.0,0.0,0.0,0.0,-1.332,-1.294,-1.2599,-1.2599,-1.2783,-1.2826,-1.2599,-1.2599,-1.2599,0.0,0.0,0.0,0.0,0.0,0.0,0.0,0.0,0.0,0.0,0.0,0.0,0.0,0.0,0.0,0.0,0.0,0.0,0.0,0.0,0.0,0.0,0.0,0.0,0.0,0.0,0.0,0.0,0.0,0.0,0.0,0.0,0.0,0.0,0.0,0.0,0.0,0.0,0.0,0.0,0.0,0.0,0.0,0.0,0.0,0.0,0.0,0.0,0.0,0.0,0.0,0.0,0.0,0.0,0.0,0.0,0.0,0.0,0.0,0.0,0.0,0.0,0.0,0.0,0.0,0.0,0.0,0.0,0.0,0.0,0.0,0.0,0.0,0.0,0.0,0.0,0.0,0.0,0.0,0.0,0.0,0.0,0.0,0.0,0.0,0.0,0.0,0.0,0.0,0.0,0.0,0.0,0.0,0.0,0.0,0.0,0.0,0.0,0.0,0.0,0.0,0.0,0.0,-1.2797,-1.258,-1.2378,-1.2378,-1.2452,-1.2452,-1.2378,-1.2378,-1.2452,-1.2599,0.0,0.0,0.0,0.0,0.0,0.0,0.0,0.0,0.0,0.0,0.0,0.0,0.0,0.0,0.0,0.0,0.0,0.0,0.0,0.0,0.0,0.0,0.0,0.0,0.0,0.0,0.0,0.0,0.0,0.0,0.0,0.0,0.0,0.0,0.0,0.0,0.0,0.0,0.0,0.0,0.0,0.0,0.0,0.0,0.0,0.0,0.0,0.0,0.0,0.0,0.0,0.0,0.0,0.0,0.0,0.0,0.0,0.0,0.0,0.0,0.0,0.0,0.0,0.0,0.0,0.0,0.0,0.0,0.0,0.0,0.0,0.0,0.0,0.0,0.0,0.0,0.0,0.0,0.0,0.0,0.0,0.0,0.0,0.0,0.0,0.0,0.0,0.0,0.0,0.0,0.0,0.0,0.0,0.0,0.0,0.0,0.0,0.0,0.0,0.0,0.0,0.0,-1.2562,-1.2415,-1.2305,-1.2305,-1.2305,-1.2305,-1.2305,-1.2305,-1.2342,-1.2489,0.0,0.0,0.0,0.0,0.0,0.0,0.0,0.0,0.0,0.0,0.0,0.0,0.0,0.0,0.0,0.0,0.0,0.0,0.0,0.0,0.0,0.0,0.0,0.0,0.0,0.0,0.0,0.0,0.0,0.0,0.0,0.0,0.0,0.0,0.0,0.0,0.0,0.0,0.0,0.0,0.0,0.0,0.0,0.0,0.0,0.0,0.0,0.0,0.0,0.0,0.0,0.0,0.0,0.0,0.0,0.0,0.0,0.0,0.0,0.0,0.0,0.0,0.0,0.0,0.0,0.0,0.0,0.0,0.0,0.0,0.0,0.0,0.0,0.0,0.0,0.0,0.0,0.0,0.0,0.0,0.0,0.0,0.0,0.0,0.0,0.0,0.0,0.0,0.0,0.0,0.0,0.0,0.0,0.0,0.0,0.0,0.0,0.0,0.0,0.0,0.0,0.0,-1.2562,-1.2415,-1.2305,-1.2305,-1.2305,-1.2305,-1.2305,-1.2305,-1.2305,-1.2305,0.0,0.0,0.0,0.0,0.0,0.0,0.0,0.0,0.0,0.0,0.0,0.0,0.0,0.0,0.0,0.0,0.0,0.0,0.0,0.0,0.0,0.0,0.0,0.0,0.0,0.0,0.0,0.0,0.0,0.0,0.0,0.0,0.0,0.0,0.0,0.0,0.0,0.0,0.0,0.0,0.0,0.0,0.0,0.0,0.0,0.0,0.0,0.0,0.0,0.0,0.0,0.0,0.0,0.0,0.0,0.0,0.0,0.0,0.0,0.0,-0.1984,0.0,0.0,0.0,0.0,0.0,0.0,0.0,0.0,0.0,0.0,0.0,0.0,0.0,0.0,0.0,0.0,0.0,0.0,0.0,0.0,0.0,0.0,0.0,0.0,0.0,0.0,0.0,0.0,0.0,0.0,0.0,0.0,0.0,0.0,0.0,0.0,0.0,0.0,0.0,0.0,0.0,-1.2378,-1.2342,-1.2305,-1.2305,-1.2305,-1.2305,-1.2305,-1.2305,-1.2305,-1.2305,-1.2489,0.0,0.0,0.0,0.0,0.0,0.0,0.0,0.0,0.0,0.0,0.0,0.0,0.0,0.0,0.0,0.0,0.0,0.0,0.0,0.0,0.0,0.0,0.0,0.0,0.0,0.0,0.0,0.0,0.0,0.0,0.0,0.0,0.0,0.0,0.0,0.0,0.0,0.0,0.0,0.0,0.0,0.0,0.0,0.0,0.0,0.0,0.0,0.0,0.0,0.0,0.0,0.0,0.0,0.0,0.0,0.0,0.0,0.0,0.0,0.0,-0.2623,0.0,0.0,0.0,0.0,0.0,0.0,0.0,0.0,0.0,0.0,0.0,0.0,0.0,0.0,0.0,0.0,0.0,0.0,0.0,0.0,0.0,0.0,0.0,0.0,0.0,0.0,0.0,0.0,0.0,0.0,0.0,0.0,0.0,0.0,0.0,0.0,0.0,0.0,0.0,0.0,-1.2305,-1.2305,-1.2305,-1.2305,-1.2305,-1.2305,-1.2305,-1.2305,-1.2305,-1.2305,-1.2415,0.0,0.0,0.0,0.0,0.0,0.0,0.0,0.0,0.0,0.0,0.0,0.0,0.0,0.0,0.0,0.0,0.0,0.0,0.0,0.0,0.0,0.0,0.0,0.0,0.0,0.0,0.0,0.0,0.0,0.0,0.0,0.0,0.0,0.0,0.0,0.0,0.0,0.0,0.0,0.0,0.0,0.0,0.0,0.0,0.0,0.0,0.0,0.0,0.0,0.0,0.0,0.0,0.0,-0.0583,-0.0583,-0.0583,-0.0583,-0.0493,-0.0404,-0.1344,-0.1773,-0.1874,0.0,0.0,0.0,0.0,0.0,0.0,0.0,0.0,0.0,0.0,0.0,0.0,0.0,0.0,0.0,0.0,0.0,0.0,0.0,0.0,0.0,0.0,0.0,0.0,0.0,-0.6676,-0.6791,0.0,0.0,0.0,0.0,0.0,0.0,0.0,0.0,0.0,0.0,0.0,0.0,-1.2305,-1.2305,-1.2268,-1.2114,-1.2231,-1.2224,-1.2114,-1.2231,-1.2305,-1.2305,-1.2305,-1.2378,0.0,0.0,0.0,0.0,0.0,0.0,0.0,0.0,0.0,0.0,0.0,0.0,0.0,0.0,0.0,0.0,0.0,0.0,0.0,0.0,0.0,0.0,0.0,0.0,0.0,0.0,0.0,0.0,0.0,0.0,0.0,0.0,0.5642,0.5642,0.0,0.0,0.0,0.0,0.0,0.0,0.0,0.0,0.0,0.0,0.0,0.0,0.0,0.0,-0.0718,-0.0538,-0.0448,-0.0448,-0.0224,-0.009,-0.009,-0.009,-0.009,-0.0045,-0.0225,0.0,-0.1828,-0.196,0.0,0.0,0.0,0.0,0.0,0.0,0.0,0.0,0.0,0.0,0.0,0.0,0.0,0.0,0.0,0.0,0.0,0.0,0.0,0.0,0.0,0.0,-0.6374,-0.6374,-0.6377,-0.6377,0.0,-0.7365,-0.8347,-0.9183,0.0,0.0,0.0,0.0,0.0,0.0,0.0,0.0,-1.2305,-1.2305,-1.204,-1.1335,-1.1892,-1.2003,-1.1335,-1.1892,-1.2305,-1.2305,-1.2305,-1.2305,-1.2342,-1.2489,0.0,0.0,0.0,0.0,0.0,0.0,0.0,0.0,0.0,0.0,0.0,0.0,0.0,0.0,0.0,0.0,0.0,0.0,0.0,0.0,0.0,0.0,0.0,0.0,0.0,0.0,0.0,0.0,0.0,0.5688,0.5688,0.5688,0.5688,0.5688,0.0,0.0,0.0,0.0,0.0,0.0,0.0,0.0,0.0,0.1254,0.0852,0.0314,-0.0314,-0.0224,-0.018,-0.018,-0.0045,0.0,0.0,0.0,0.0,0.0,0.0,-0.0314,-0.0807,-0.0941,-0.17,-0.2726,0.0,0.0,0.0,0.0,0.0,-0.3802,-0.3467,0.0,0.0,0.0,0.0,0.0,0.0,0.0,0.0,0.0,0.0,0.0,0.0,0.0,0.0,-0.6338,-0.63,-0.63,-0.63,-0.6718,-0.7211,0.0,-0.8385,-0.9178,-1.0002,0.0,0.0,0.0,0.0,-1.1099,-1.1558,-1.1632,-1.1669,-1.1744,-1.2077,-1.2157,-1.1781,-1.2114,-1.2305,-1.2305,-1.2305,-1.2305,-1.2305,-1.2378,-1.2489,0.0,0.0,0.0,0.0,0.0,0.0,0.0,0.0,0.0,0.0,0.0,0.0,0.0,0.0,0.0,0.0,0.0,0.0,0.0,0.0,0.0,0.0,0.0,0.0,0.0,0.0,0.0,0.0,0.5733,0.5688,0.5688,0.5688,0.5688,0.0,0.0,0.0,0.0,0.0,0.0,0.4659,0.3537,0.2553,0.1793,0.1524,0.0942,0.0,0.0,0.0,0.0,0.0,0.0,0.0,0.0,0.0,0.0,0.0,0.0,0.0,-0.0224,-0.0762,-0.1478,-0.1612,-0.2147,-0.2858,-0.3038,-0.3009,-0.2873,-0.2459,-0.2285,-0.2201,-0.2178,0.0,-0.2627,-0.3288,0.0,0.0,0.0,0.0,-0.488,-0.4727,0.0,-0.6212,-0.6296,-0.63,-0.63,-0.63,-0.6338,-0.6412,0.0,-0.7284,-0.819,-0.8988,0.0,0.0,0.0,0.0,-1.0045,-1.0694,-1.0807,-1.0956,-1.1329,-1.1737,-1.1929,-1.17,-1.2077,-1.2305,-1.2305,-1.2114,-1.2003,-1.2003,-1.2003,-1.2077,-1.2224,0.0,0.0,0.0,0.0,0.0,0.0,0.0,0.0,0.0,0.0,0.0,0.0,0.0,0.0,0.0,0.0,0.0,0.0,0.0,0.0,0.0,0.0,0.0,0.0,0.0,0.0,0.0,0.0,0.0,0.5688,0.5688,0.0,0.0,0.0,0.0,0.5688,0.4837,0.4701,0.5599,0.3896,0.2867,0.2822,0.1883,0.0942,0.0,0.0,0.0,0.0,0.0,0.0,0.0,0.0,0.0,0.0,0.0,0.0,0.0,0.0,-0.018,-0.0493,-0.0493,-0.0628,-0.0852,-0.0852,-0.0851,-0.089,-0.1026,-0.1094,-0.1127,-0.1317,-0.1884,-0.2511,-0.2549,-0.3132,0.0,0.0,-0.321,-0.3869,-0.3869,-0.4455,-0.5276,-0.6103,-0.63,-0.63,-0.63,-0.6451,-0.6525,0.0,-0.6525,-0.6945,-0.7744,0.0,-0.8533,-0.9518,-0.9636,-0.9707,-0.9933,-0.997,-0.9674,-0.8965,-1.0244,-1.0844,-1.0083,-1.1434,-1.2305,-1.2305,-1.1595,-1.1149,-1.1149,-1.1149,-1.1186,-1.1186,-1.2114,0.0,0.0,0.0,0.0,0.0,0.0,0.0,0.0,0.0,0.0,0.0,0.0,0.0,0.0,0.0,0.0,0.0,0.0,0.0,0.0,0.0,0.0,0.0,0.0,0.0,0.0,0.0,0.0,0.5952,0.5819,0.0,0.5688,0.5688,0.5688,0.5688,0.5374,0.5329,0.5688,0.5062,0.4433,0.3807,0.2867,0.1883,0.0897,0.0314,0.0,0.0,0.0,0.0,0.0,0.0,0.0,0.0,0.0,0.0,0.0,0.0,-0.0045,-0.0135,-0.0135,-0.018,-0.0269,-0.0448,-0.0493,-0.0535,-0.0727,-0.08,-0.0836,-0.0997,-0.1335,-0.1727,-0.1727,-0.1961,-0.2117,-0.1805,-0.2314,-0.2978,-0.2978,-0.399,-0.5082,-0.5395,-0.5906,-0.63,-0.63,-0.6374,-0.6374,-0.63,-0.6563,-0.7019,-0.7668,-0.7553,-0.7625,-0.8499,-0.8194,-0.8118,-0.8832,-0.895,-0.9064,-0.9448,-0.997,-1.0196,-0.9933,-1.0421,-1.0757,-1.0757,-1.0496,-1.0346,-1.0346,-1.0346,-1.0346,-1.0346,-1.0683,-1.1174,0.0,0.0,0.0,0.0,0.0,0.0,0.0,0.0,0.0,0.0,0.0,0.0,0.0,0.0,0.0,0.0,0.0,0.0,0.0,0.0,0.0,0.0,0.0,0.0,0.0,0.0,0.6653,0.6653,0.6171,0.5822,0.5822,0.5733,0.5688,0.5688,0.5688,0.5688,0.5688,0.5688,0.5285,0.4344,0.3381,0.2398,0.1404,0.0457,0.0,0.0,0.0,0.0,0.0,0.0,0.0,0.0,0.0,0.0,0.0,0.0,0.0,0.0,0.0,0.0,0.0,-0.018,-0.0269,-0.0312,-0.0513,-0.0629,-0.0703,-0.0836,-0.1021,-0.1178,-0.1257,-0.1296,-0.1296,-0.1296,-0.1689,-0.2158,-0.2433,-0.3329,-0.4302,-0.4849,-0.5434,-0.5944,-0.6219,-0.63,-0.63,-0.63,-0.6525,-0.683,-0.7211,-0.6945,-0.6942,-0.7587,-0.7169,-0.7092,-0.7893,-0.7927,-0.8194,-0.8917,-0.9216,-0.9437,-0.948,-1.0013,-1.0196,-0.9933,-0.9895,-0.9782,-0.9523,-0.9744,-0.9895,-0.9895,-1.0158,-1.0651,-1.1409,0.0,0.0,0.0,0.0,0.0,0.0,0.0,0.0,0.0,0.0,0.0,0.0,0.0,0.0,0.0,0.0,0.0,0.0,0.0,0.0,0.0,0.0,0.0,0.9623,0.8575,0.7834,0.7834,0.6782,0.6127,0.6127,0.5863,0.5735,0.5738,0.5738,0.5696,0.5699,0.5699,0.5295,0.4397,0.3427,0.2493,0.1525,0.0519,0.0048,0.0048,0.0,0.0,0.0,0.0,0.0,0.0,0.0,0.0,0.0,0.0,0.0,0.0,0.0,0.0,0.0,0.0,0.0,-0.0045,-0.0214,-0.0415,-0.0609,-0.0833,-0.0866,-0.0945,-0.122,-0.1298,-0.1298,-0.1297,-0.1296,-0.1492,-0.2276,-0.247,-0.2901,-0.4538,-0.4927,-0.5198,-0.6064,-0.6261,-0.6261,-0.63,-0.63,-0.63,-0.63,-0.63,-0.6412,-0.6826,-0.6714,0.0,-0.7142,-0.7022,-0.698,-0.718,-0.7897,-0.8461,-0.8661,-1.0094,-1.0657,-0.9857,-0.982,-0.9485,-0.8703,-0.941,-0.982,-0.982,-1.0614,-1.1111,-1.1335,0.0,0.0,0.0,0.0,0.0,0.0,0.0,0.0,0.0,0.0,0.0,0.0,0.0,0.0,0.0,0.0,0.0,0.0,0.0,0.0,0.0,1.2009,1.1316,0.9797,0.875,0.8093,0.8093,0.7044,0.6299,0.6299,0.6254,0.6165,0.6128,0.6136,0.6082,0.5986,0.5988,0.5895,0.5614,0.4701,0.4054,0.3818,0.2039,0.1143,0.1143,0.0379,0.0,0.0,0.0,0.0,0.0,0.0,0.0,0.0,0.0,0.0,0.0,0.0,0.0,0.0,0.0,0.0,0.0,-0.0043,-0.0213,-0.0375,-0.0456,-0.0579,-0.0742,-0.0932,-0.1008,-0.1044,-0.1264,-0.1296,-0.1335,-0.1571,-0.208,-0.2627,-0.3095,-0.3679,-0.4338,-0.516,-0.5356,-0.5553,-0.618,-0.63,-0.63,-0.63,-0.63,-0.6338,-0.6451,0.0,0.0,-0.6718,-0.6714,-0.683,-0.7146,-0.7407,-0.7595,-0.7825,-0.8241,-0.8389,-0.8161,-0.8165,-0.805,-0.7825,-0.805,-0.8165,-0.8165,-0.896,-0.9453,0.0,0.0,0.0,0.0,0.0,0.0,0.0,0.0,0.0,0.0,0.0,0.0,0.0,0.0,0.0,0.0,0.0,0.0,0.0,0.0,0.0,0.0,1.2705,1.2272,1.1052,1.0096,0.9357,0.8965,0.7874,0.7027,0.6693,0.6562,0.653,0.6531,0.6542,0.6479,0.6269,0.6272,0.6225,0.6086,0.5174,0.4716,0.4716,0.262,0.161,0.161,0.0533,0.0,0.0,0.0,0.0,0.0,0.0,0.0,0.0,0.0,0.0,0.0,0.0,0.0,0.0,0.0,0.0,0.0,0.0,-0.0086,-0.0171,-0.0253,-0.0379,-0.0504,-0.0705,-0.0867,-0.0988,-0.1137,-0.1246,-0.1316,-0.1316,-0.1661,-0.208,-0.2433,-0.2899,-0.3483,-0.43,-0.4494,-0.473,-0.5592,0.0,0.0,-0.6219,-0.63,-0.6338,-0.6412,-0.6335,-0.6377,0.0,-0.6525,-0.6606,-0.6911,-0.6949,-0.7022,-0.7249,-0.7629,0.0,0.0,0.0,-0.8016,-0.8016,-0.8016,0.0,0.0,0.0,-0.8775,0.0,0.0,0.0,0.0,-1.2673,-1.29,0.0,0.0,0.0,0.0,0.0,0.0,0.0,0.0,0.0,0.0,0.0,0.0,0.0,0.0,0.0,0.0,1.2705,1.2705,1.2705,1.1995,1.1143,1.0222,0.913,0.8105,0.7338,0.7073,0.6993,0.6951,0.696,0.6824,0.6596,0.0,0.0,0.0,0.0,0.4908,0.4908,0.2947,0.1915,0.1764,0.0794,0.0246,0.0,0.0145,0.0096,0.0,0.0,0.0,0.0,0.0,0.0,0.0,0.0,0.0,0.0,0.0,0.0,0.0,0.0,0.0,0.0,-0.0213,-0.0255,-0.0297,-0.0508,-0.0719,-0.093,-0.0969,-0.1121,-0.1267,-0.1308,-0.1288,-0.1464,-0.2208,-0.2363,-0.2596,-0.3483,-0.3636,-0.391,-0.4691,-0.4846,-0.5121,-0.5867,-0.618,-0.6377,-0.6525,-0.6412,0.0,-0.6525,-0.6412,-0.6374,-0.6563,0.0,0.0,-0.6865,-0.7736,-0.7931,-0.7219,-0.8016,-0.8551,-0.8546,-0.8546,-0.8546,-0.8546,-0.8546,-0.8546,-0.8546,-0.9372,-1.0126,-1.085,-1.2224,-1.282,0.0,0.0,0.0,0.0,0.0,0.0,0.0,0.0,0.0,0.0,0.0,0.0,0.0,0.0,0.0,1.2705,1.2705,1.2705,1.2705,1.2724,1.2417,1.1469,1.0494,0.9592,0.883,0.8753,0.8308,0.7379,0.7292,0.7243,0.7054,0.6866,0.0,0.6671,0.6291,0.6053,0.6053,0.4822,0.3728,0.2871,0.0,0.0,0.005,0.0885,0.0829,0.0,0.0,0.0,0.0,0.0,0.0,0.0,0.0,0.0,0.0,0.0,0.0,0.0,0.0,0.0,0.0,-0.0044,-0.0044,-0.0089,-0.0304,-0.0389,0.0,-0.0889,-0.1008,-0.1088,-0.1256,-0.1293,-0.1324,-0.1502,-0.1536,-0.1768,-0.2558,-0.2743,-0.3017,-0.3871,-0.4025,-0.4105,-0.4261,-0.5395,-0.63,-0.6335,-0.6338,-0.63,-0.6335,-0.6338,-0.6374,-0.6563,-0.6602,-0.6676,-0.6865,-0.7092,-0.713,-0.698,-0.7292,-0.7561,-0.771,-0.7748,-0.7748,-0.7748,-0.7748,-0.7748,-0.7748,-0.8546,-0.9003,-0.9231,-1.1397,-1.2415,0.0,0.0,0.0,0.0,0.0,0.0,0.0,0.0,0.0,0.0,0.0,1.2705,1.2705,0.0,1.2705,1.2705,1.2705,1.2753,1.2892,1.3037,1.2756,1.181,1.1415,1.0892,1.0173,0.963,0.9092,0.8541,0.8021,0.7615,0.7388,0.7294,0.7144,0.6992,0.6739,0.6589,0.6589,0.5386,0.4533,0.3979,0.3475,0.262,0.1613,0.2146,0.2087,0.1589,0.1023,0.0812,0.075,0.023,0.0,0.0,0.0,0.0,0.0,0.0,0.0,0.0,0.0,0.0,0.0,0.0,0.0,0.0,-0.0133,-0.0265,-0.0397,-0.0654,-0.0777,-0.0856,-0.0985,-0.1062,-0.1134,-0.1162,-0.1242,-0.1399,-0.1807,-0.1918,-0.2149,-0.2982,-0.3132,-0.3288,-0.3713,-0.4494,-0.5198,-0.5592,-0.6025,-0.63,-0.63,-0.63,-0.6338,-0.6451,-0.6451,-0.649,-0.6602,-0.6676,-0.683,-0.7022,-0.7142,-0.7296,-0.7484,-0.7484,-0.7484,-0.7484,-0.7484,-0.7484,-0.7484,-0.8322,-0.8703,-0.8742,-1.0346,-1.1323,0.0,0.0,0.0,0.0,0.0,0.0,0.0,1.5193,1.4531,1.3857,1.3179,1.2705,1.2705,1.2705,1.2705,1.2705,1.2705,1.2801,1.3041,1.3119,1.2901,1.2215,1.2297,1.2137,1.1419,1.0532,0.993,0.9645,0.8775,0.8137,0.7693,0.7646,0.7494,0.7288,0.7042,0.6845,0.6795,0.5739,0.5035,0.4784,0.4128,0.3624,0.3224,0.3425,0.3374,0.3169,0.2272,0.189,0.1803,0.0916,0.0586,0.0539,0.0359,0.0404,0.0539,0.0135,0.0,0.0,0.0,0.0,0.0,0.0,0.0,0.0,0.0,-0.0135,-0.0314,-0.0403,-0.0532,-0.0657,-0.07,-0.0821,-0.0937,-0.0934,-0.106,-0.118,-0.1235,-0.1225,-0.1416,-0.2142,-0.2283,-0.251,-0.3209,-0.3443,-0.3832,-0.4652,-0.5512,-0.6064,-0.6064,-0.6183,-0.63,-0.63,-0.63,-0.63,-0.63,-0.6451,-0.6718,-0.7103,-0.7142,-0.7257,-0.7484,-0.7484,-0.7484,-0.7484,-0.7484,-0.7484,-0.7484,-0.8169,-0.8475,-0.847,-0.9296,-1.0164,1.727,1.7066,1.6689,1.6689,1.6689,1.6525,0.0,1.5193,1.4531,1.3857,1.3179,1.2705,1.2705,1.2705,1.2705,1.2705,1.2705,1.2801,1.3041,1.3326,1.351,1.3646,1.37,1.3391,1.2571,1.2399,1.158,0.9752,0.9509,0.897,0.7988,0.7746,0.7596,0.7547,0.7291,0.7039,0.6795,0.6642,0.5989,0.4834,0.5634,0.5031,0.3224,0.418,0.4079,0.3169,0.3061,0.2953,0.2847,0.2691,0.264,0.2465,0.1614,0.1793,0.2376,0.0629,0.0,0.0,0.0,0.0,0.0,0.0,0.0,0.0,0.0,0.0,-0.009,-0.0314,-0.0403,-0.0492,-0.067,-0.0714,-0.0754,-0.074,-0.0737,-0.0819,-0.1012,-0.0991,-0.1057,-0.1379,-0.1435,-0.1453,-0.157,-0.2157,-0.2938,-0.3793,-0.4613,-0.516,-0.516,-0.5828,-0.63,-0.63,-0.63,-0.63,-0.63,-0.6338,-0.6486,-0.6903,-0.6942,-0.7096,-0.7484,-0.7484,-0.7484,-0.7484,-0.7484,-0.7484,-0.7484,-0.7599,-0.7638,-0.7633,-0.847,-0.9642,1.7025,1.6861,1.6689,1.6689,1.6689,1.6525,1.5858,1.5484,1.4985,1.3899,1.3476,1.3173,1.279,1.2705,1.2705,0.0,1.2843,1.3043,1.3314,1.3574,1.3839,1.4099,1.4135,1.3981,1.365,1.3071,1.2096,1.0636,0.9948,0.9118,0.8038,0.7892,0.7842,0.7842,0.7593,0.7394,0.7244,0.6945,0.6542,0.5989,0.6237,0.5934,0.5079,0.5534,0.5133,0.4124,0.4146,0.3679,0.2989,0.3022,0.2964,0.2867,0.2419,0.2509,0.2644,0.0718,0.0359,0.0718,0.018,0.0,0.0,0.0,0.0,0.0,0.0,0.0,-0.0045,-0.0135,-0.018,-0.018,-0.0269,-0.0404,-0.0537,-0.0533,-0.062,-0.0705,-0.082,-0.081,-0.0844,-0.1083,-0.11,-0.1123,-0.1284,-0.1585,-0.1923,-0.2273,-0.3443,-0.43,-0.43,-0.4613,-0.5043,-0.5473,-0.5983,-0.63,-0.63,-0.63,-0.6412,-0.6714,-0.6714,-0.6907,-0.7296,-0.7334,-0.7369,-0.7484,-0.7484,-0.7484,-0.7484,-0.7484,-0.7484,-0.7522,-0.7863,-0.8623,1.7025,1.6902,1.6861,1.6738,1.6689,1.6566,1.6072,1.5816,1.536,1.4195,1.3822,1.3519,1.2833,1.2705,1.2705,1.2705,1.294,1.3173,1.3477,1.3743,1.4002,1.4262,1.4298,1.4298,1.4298,1.3613,1.2732,1.1707,1.0636,0.9702,0.892,0.8333,0.8137,0.8432,0.7992,0.7696,0.7596,0.7194,0.6995,0.6892,0.6736,0.6637,0.6637,0.6537,0.6037,0.5231,0.5259,0.4718,0.3845,0.3835,0.3802,0.3628,0.3405,0.3449,0.3449,0.1525,0.1211,0.1704,0.1032,0.0808,0.0763,0.0494,0.0404,0.0359,0.009,0.0,0.0,0.0,0.0,0.0,0.0,-0.0135,-0.0269,-0.0269,-0.0404,-0.0536,-0.0617,-0.0612,-0.065,-0.0895,-0.0876,-0.0902,-0.1141,-0.1204,-0.1228,-0.1298,-0.2352,-0.3209,-0.3404,-0.3636,-0.4025,-0.4611,-0.5237,-0.5592,-0.5592,-0.5828,-0.6022,-0.6247,-0.6483,-0.6756,-0.7103,-0.7103,-0.7219,-0.7407,-0.7407,-0.7446,-0.7484,-0.7484,-0.7484,-0.7484,-0.7484,-0.7825,1.7473,1.7392,1.727,1.6812,1.6689,1.6689,1.6648,1.6147,1.5484,1.4817,1.4153,1.3519,1.2833,1.2705,1.2705,1.2705,1.294,1.3173,1.3477,1.3743,1.4002,1.4262,1.4298,1.4298,0.0,1.425,1.3806,1.2732,1.1707,1.1126,1.1121,0.9118,0.8482,0.9509,0.8531,0.7842,0.7596,0.7596,0.7444,0.7188,0.7188,0.7188,0.7188,0.6892,0.6639,0.6334,0.6331,0.62,0.5989,0.5986,0.585,0.551,0.4612,0.4837,0.5374,0.3494,0.2822,0.2867,0.2823,0.2823,0.2644,0.1659,0.1345,0.1166,0.0269,0.0,0.0,0.0,0.0,0.0,0.0,0.0,0.0,0.0,0.0,-0.009,-0.0358,-0.0353,-0.0392,-0.0653,-0.0641,-0.0668,-0.0858,-0.0895,-0.1009,-0.1262,-0.1335,-0.1649,-0.2431,-0.3288,-0.3791,-0.383,-0.3869,-0.3869,-0.3869,-0.4572,-0.5118,-0.5345,-0.6128,-0.6676,-0.6903,-0.6903,-0.7022,-0.7223,-0.7223,-0.7296,-0.7484,-0.7484,-0.7484,-0.7484,-0.7484,-0.7522,1.7432,1.7188,1.6902,1.673,1.6689,1.6689,1.6689,1.6196,1.5526,1.4859,1.4153,1.3519,1.2833,1.2705,1.2705,1.2705,1.294,1.3173,1.3477,1.3743,1.4002,1.4262,1.4298,0.0,0.0,0.0,0.0,1.278,1.2387,1.1901,1.1219,0.985,0.9213,0.9608,0.8577,0.7942,0.7842,0.7696,0.7547,0.7444,0.7288,0.7188,0.7188,0.7089,0.6942,0.6642,0.6642,0.65,0.6248,0.6119,0.5991,0.5793,0.5402,0.5419,0.5644,0.4971,0.4748,0.4567,0.3315,0.2911,0.2822,0.251,0.2374,0.2331,0.2017,0.1928,0.1793,0.1122,0.0942,0.0808,0.018,0.0,0.0,0.0,0.0,-0.0045,-0.0135,-0.0134,-0.0178,-0.0444,-0.0437,-0.0472,-0.0725,-0.0748,-0.0767,-0.0986,-0.1178,-0.1414,-0.1689,-0.2431,-0.2938,-0.2938,-0.3443,-0.3791,-0.3791,-0.4066,-0.4222,-0.4295,-0.5079,-0.5622,-0.5812,-0.6398,-0.6791,-0.6984,-0.6984,-0.7099,-0.7296,-0.7296,-0.7369,-0.7484,-0.7484,-0.7484,1.7473,1.7188,1.6902,1.673,1.6689,1.6689,1.6689,1.636,1.5858,1.5193,1.4692,1.4146,1.3215,1.3045,1.296,1.2747,1.3019,1.3276,1.3495,1.3821,1.4111,1.428,1.4298,1.4298,0.0,0.0,0.0,1.3318,1.2926,1.2581,1.2344,1.0925,1.0145,1.0145,0.9118,0.8382,0.7988,0.7842,0.7743,0.7743,0.759,0.7441,0.7341,0.7341,0.7191,0.6942,0.6942,0.6819,0.6594,0.6421,0.6293,0.6165,0.5911,0.5863,0.5822,0.5733,0.5688,0.551,0.43,0.3896,0.3851,0.3494,0.3403,0.336,0.3001,0.2911,0.2777,0.2107,0.1928,0.1793,0.1211,0.0763,0.0494,0.0494,0.0225,0.0,0.0,0.0,-0.0045,-0.0224,-0.0222,-0.0264,-0.0523,-0.0587,-0.0688,-0.0877,-0.1066,-0.1178,-0.1296,-0.1766,-0.208,-0.208,-0.2586,-0.2898,-0.2898,-0.3171,-0.3482,-0.3791,-0.4574,-0.5198,-0.5622,-0.6212,-0.6602,-0.6788,-0.6791,-0.6903,-0.7099,-0.7099,-0.718,-0.7411,-0.7411,-0.7446,1.7635,1.7392,1.727,1.6812,1.6689,1.6689,1.6689,1.6648,1.6484,1.5816,1.565,1.5276,1.3984,1.3737,1.3476,1.2833,1.3139,1.3477,1.3495,1.3936,1.4262,0.0,0.0,0.0,0.0,0.0,0.0,1.4298,0.0,1.3221,1.4244,1.2393,1.1268,1.1268,1.0194,0.9118,0.8088,0.8038,0.7988,0.7988,0.7988,0.7892,0.7596,0.7596,0.7494,0.7238,0.7238,0.7165,0.7082,0.6896,0.6765,0.6679,0.6269,0.6127,0.6083,0.5822,0.5733,0.5733,0.5733,0.5688,0.5555,0.4656,0.4389,0.421,0.3315,0.3045,0.3045,0.3001,0.2956,0.2957,0.2911,0.2196,0.148,0.148,0.0763,0.009,0.009,0.0045,0.0,0.0,0.0,-0.0045,-0.0262,-0.0462,-0.0653,-0.0855,-0.0878,-0.0983,-0.1258,-0.1296,-0.1296,-0.1296,-0.1296,-0.1296,-0.1296,-0.2002,-0.2782,-0.3636,-0.4416,-0.524,-0.6064,-0.6141,-0.6257,-0.6444,-0.6483,-0.6598,-0.6822,-0.6865,-0.698,-0.718,-0.718,-0.7296,1.7473,1.7147,1.6861,1.6738,1.6689,1.6689,1.6689,1.6312,1.5899,1.5733,1.5318,1.4859,1.4531,1.4026,1.3652,1.3476,1.3126,0.0,1.3149,1.3507,0.0,1.3978,0.0,1.4298,1.4298,1.4298,0.0,0.0,1.4052,1.4004,1.4298,1.3022,1.2339,1.2339,1.0534,0.946,0.9217,0.8382,0.7988,0.7988,0.7988,0.7942,0.7892,0.7892,0.7743,0.7494,0.7494,0.7372,0.7168,0.6888,0.6773,0.6765,0.6436,0.6343,0.6299,0.6254,0.6124,0.5997,0.5997,0.5863,0.5644,0.5419,0.5329,0.5285,0.506,0.4971,0.4837,0.4119,0.3941,0.3762,0.3092,0.2688,0.251,0.251,0.1749,0.1032,0.1032,0.0494,0.0,0.0,0.0,0.0,-0.0087,-0.0259,-0.0381,-0.045,-0.0567,-0.0842,-0.126,-0.1296,-0.1296,-0.1296,-0.1296,-0.1296,-0.1296,-0.1492,-0.1688,-0.1922,-0.2704,-0.3251,-0.3448,-0.4107,-0.4455,-0.453,-0.5118,-0.5506,-0.5693,-0.636,-0.6791,-0.698,-0.698,-0.7099,1.7188,1.6894,1.6689,1.6689,1.6689,1.6689,1.6689,1.6402,1.6147,1.6147,1.5858,1.5484,1.5193,1.4817,1.4405,0.0,0.0,0.0,1.3097,1.3447,1.3743,0.0,1.4135,0.0,1.4298,1.4298,1.4298,0.0,1.4298,1.4298,1.4298,1.3709,1.3173,1.2732,1.156,1.0534,0.9608,0.9019,0.8482,0.7988,0.7988,0.7988,0.7988,0.7988,0.7942,0.7793,0.0,0.7693,0.7518,0.7241,0.7174,0.7098,0.6722,0.6567,0.6567,0.6432,0.6343,0.6213,0.6213,0.6124,0.5994,0.5777,0.5688,0.5688,0.5688,0.5688,0.5599,0.5062,0.4926,0.479,0.4253,0.3807,0.3494,0.3494,0.2777,0.2062,0.2062,0.1659,0.1122,0.0718,0.0269,0.0,0.0,-0.0088,-0.0216,-0.0295,-0.0412,-0.0607,-0.0959,-0.1067,-0.1178,-0.1296,-0.1296,-0.1296,-0.1296,-0.1296,-0.1453,-0.1805,-0.2237,-0.2666,-0.3054,-0.356,-0.3791,-0.3791,-0.4261,-0.4688,-0.5154,-0.5664,-0.6209,-0.6749,-0.6749,-0.6868,1.6984,1.6738,1.6689,1.6689,1.6689,1.6689,1.6689,1.6689,1.6689,1.6689,1.6689,1.6525,1.594,1.5775,1.5318,1.4153,0.0,1.3841,1.3242,1.3535,1.3815,1.3851,1.4087,1.4256,1.4292,1.4298,1.4298,1.4298,1.4298,1.4298,1.4298,1.4298,1.3806,1.2727,1.2678,1.1755,0.985,0.9805,0.9361,0.8432,0.8283,0.8237,0.8187,0.8088,0.7988,0.7988,0.0,0.0,0.8212,0.805,0.7922,0.7754,0.7351,0.7054,0.6836,0.6697,0.6561,0.6432,0.6432,0.6432,0.6343,0.5908,0.5774,0.5777,0.5777,0.5733,0.5733,0.5688,0.5688,0.5688,0.5688,0.5104,0.4478,0.4478,0.3762,0.3092,0.3092,0.3001,0.2644,0.1749,0.0942,0.0404,0.0404,0.0398,0.0306,0.0131,0.0126,0.0041,-0.0163,-0.0598,-0.0982,-0.1218,-0.1296,-0.1296,-0.1296,-0.1296,-0.161,-0.2315,-0.2353,-0.2665,-0.3441,-0.348,-0.348,-0.348,-0.356,-0.3988,-0.4652,-0.4768,-0.5312,-0.6247,-0.6328,-0.6479,1.731,1.6984,1.6689,1.6689,1.6689,1.6689,1.6689,1.6689,1.6689,1.6689,1.6689,1.6648,1.6566,1.6064,1.5609,1.5401,1.4446,1.3724,1.3596,1.3411,1.3338,0.0,1.3815,1.4057,1.428,1.4298,0.0,0.0,0.0,1.4298,1.4298,1.4298,1.3806,1.2727,1.2678,1.2145,1.093,1.0925,1.0828,1.0632,0.9752,0.9312,0.9316,0.8382,0.7988,0.8038,0.0,0.0,0.9383,0.9879,0.9634,0.8955,0.9252,0.8404,0.7143,0.7885,0.7536,0.6748,0.6748,0.6567,0.6384,0.6299,0.6299,0.6257,0.6083,0.6041,0.5997,0.5777,0.5688,0.5688,0.5688,0.5599,0.5466,0.5466,0.4748,0.4074,0.4074,0.3449,0.2867,0.2689,0.251,0.2374,0.2374,0.2412,0.2392,0.2349,0.2328,0.2244,0.1915,0.0239,-0.0904,-0.0982,-0.1178,-0.1296,-0.1296,-0.1296,-0.1375,-0.1492,-0.1492,-0.157,-0.1727,-0.1727,-0.1727,-0.1727,-0.2392,-0.2784,-0.294,-0.3638,-0.4103,-0.43,-0.4963,-0.5389,1.7797,1.7546,1.7343,1.7106,1.7066,1.7066,1.7066,1.7066,1.7098,1.7343,1.7221,1.7066,1.7066,1.6607,1.6113,1.5775,1.4859,1.4321,1.4566,1.3719,1.3384,1.4078,1.4025,1.3954,1.4081,1.4363,1.4442,0.0,0.0,1.4442,1.4298,1.4298,1.4052,1.3565,1.3511,1.3022,1.1999,1.1999,1.1707,1.117,1.0685,1.044,1.044,0.9903,0.9657,0.9706,1.0194,0.0,1.0219,1.0492,1.026,0.9731,0.987,0.9357,0.8619,0.9056,0.8882,0.836,0.7841,0.7621,0.7401,0.6915,0.6605,0.6387,0.6302,0.6257,0.6213,0.6083,0.5994,0.5908,0.5908,0.5819,0.5688,0.5688,0.5374,0.5015,0.5015,0.43,0.3628,0.3628,0.3226,0.2911,0.2911,0.2911,0.2902,0.2917,0.2884,0.2842,0.2696,0.159,0.0754,0.0588,-0.0039,-0.0471,-0.0471,-0.0982,-0.1296,-0.1296,-0.1296,-0.1296,-0.1296,-0.1296,-0.1296,-0.1296,-0.1689,-0.208,-0.2511,-0.2938,-0.3365,-0.3791,-0.4183,-0.4414,1.8241,1.808,1.7919,1.7595,1.7514,1.7514,1.7514,1.7514,1.7635,1.791,1.7757,1.7514,1.7514,1.7147,1.6689,1.6154,1.5401,1.5068,1.556,1.4433,1.4002,1.5002,1.4545,0.0,1.4307,1.4518,0.0,0.0,0.0,0.0,1.4298,1.4298,1.4298,1.4298,1.4298,1.3902,1.3071,1.3022,1.2635,1.1853,1.1609,1.1512,1.1512,1.1317,1.1219,1.1219,1.1414,0.0,0.0,1.1198,1.0929,1.0533,1.0488,1.0269,0.9923,1.0139,1.0053,0.9792,0.9061,0.8798,0.8671,0.7925,0.7177,0.6564,0.652,0.6476,0.6476,0.6432,0.6302,0.6171,0.6171,0.5997,0.5777,0.5733,0.5688,0.5688,0.5688,0.5104,0.4612,0.4612,0.3985,0.3494,0.3494,0.3494,0.3494,0.3494,0.3488,0.3488,0.3471,0.3225,0.2912,0.2646,0.1412,0.0548,0.0392,-0.0392,-0.0982,-0.1139,-0.1178,-0.1218,-0.1218,-0.1257,-0.1296,-0.1296,-0.1296,-0.161,-0.2237,-0.2237,-0.2586,-0.3287,-0.3443,-0.3521,1.866,1.8322,1.7991,1.7951,1.7959,1.7959,1.7959,1.7959,1.7959,1.7991,1.7951,1.7959,1.7959,1.7595,1.731,1.727,1.6312,1.5775,1.6229,1.5673,1.5456,1.6159,0.0,0.0,1.5677,1.5041,0.0,0.0,0.0,0.0,1.4298,1.4298,1.4298,1.4298,1.4298,1.4244,1.4148,1.4148,1.41,1.4004,1.3022,1.2581,1.2538,1.1609,1.1219,1.1268,0.0,0.0,0.0,1.2923,1.2575,1.1606,1.2198,1.1397,1.0009,1.0842,1.0621,0.9879,0.9792,0.9749,0.9749,0.9662,0.8444,0.7007,0.6836,0.6748,0.6704,0.6476,0.6384,0.6387,0.6387,0.6213,0.5994,0.5777,0.5688,0.5688,0.5688,0.5644,0.5555,0.5555,0.5508,0.5463,0.5463,0.5463,0.5463,0.5463,0.5455,0.5409,0.5259,0.5181,0.5056,0.4897,0.3008,0.1447,0.0627,0.047,0.0118,-0.0628,-0.0825,-0.0943,-0.0943,-0.1178,-0.1296,-0.1296,-0.1296,-0.1335,-0.1414,-0.1414,-0.1453,-0.1531,-0.2275,-0.2627,1.9073,1.8913,1.8714,1.8482,1.8411,1.8411,1.8411,1.8411,1.8482,1.8754,1.8603,1.8411,1.8411,1.804,1.7757,1.7757,1.7049,1.6796,1.7668,1.6617,1.6113,1.708,1.64,0.0,0.0,0.0,0.0,0.0,0.0,0.0,1.4544,1.4394,1.4298,1.4298,1.4298,1.4298,1.4298,1.4298,1.4298,1.4298,1.3854,1.3661,1.3661,1.327,1.3076,1.3065,0.0,0.0,0.0,1.3201,1.2895,1.2325,1.2618,1.2223,1.1617,1.2009,1.1923,1.1483,1.0923,1.0755,1.0669,1.0096,0.9401,0.875,0.8707,0.8277,0.7801,0.7709,0.7183,0.6786,0.7349,0.7309,0.7092,0.7003,0.652,0.6083,0.5952,0.5952,0.5908,0.5733,0.5688,0.5688,0.5688,0.5688,0.5688,0.5688,0.5688,0.5672,0.5623,0.551,0.5431,0.5309,0.3798,0.2656,0.2306,0.172,0.1252,0.094,0.0353,0.0,0.0,-0.0667,-0.1061,-0.1061,-0.1218,-0.1296,-0.1296,-0.1296,-0.1296,-0.1296,-0.161,-0.1766,1.9301,1.9301,1.9231,1.8962,1.8891,1.8891,1.8891,1.8891,1.8962,1.9222,1.9073,1.8891,1.8891,1.8426,1.8063,1.8184,1.7607,1.7485,1.8554,1.7602,1.7123,1.8069,0.0,1.7022,0.0,0.0,0.0,0.0,0.0,0.0,0.0,1.4777,1.4394,1.4298,1.4298,1.4298,1.4298,1.4298,1.4298,1.4298,1.4298,1.4298,1.4292,1.4214,1.4183,1.4165,0.0,0.0,0.0,1.32,1.2958,1.2705,1.2705,1.2705,1.2705,1.2705,1.2705,1.2619,1.1929,1.1714,1.1628,1.0923,1.0745,1.0745,1.0745,0.9884,0.893,0.893,0.8321,0.7837,0.8444,0.8488,0.8313,0.8221,0.7478,0.6779,0.6653,0.639,0.6127,0.5863,0.5822,0.5777,0.5733,0.5688,0.5688,0.5688,0.5688,0.5688,0.5688,0.5583,0.5462,0.5424,0.4532,0.382,0.3558,0.2852,0.2345,0.2111,0.1448,0.1057,0.1057,0.0353,-0.0196,-0.0471,-0.0706,-0.0942,-0.1178,-0.1257,-0.1296,-0.1296,-0.1296,-0.1296,1.9301,1.9301,1.9301,1.9301,1.9301,1.9301,1.9301,1.9301,1.9301,1.9301,1.9301,1.9301,1.9301,1.8629,1.8231,1.863,1.7952,1.7713,1.8559,1.87,1.8812,0.0,0.0,1.8111,1.8354,0.0,0.0,0.0,0.0,0.0,0.0,1.5486,1.4592,1.4298,1.4298,1.4298,1.4298,1.4298,1.4298,1.4298,1.4298,1.4298,1.4286,1.4032,1.3912,0.0,0.0,0.0,0.0,1.3083,1.2958,1.2705,1.2705,1.2705,1.2705,1.2705,1.2705,1.2705,1.2705,1.2705,1.2662,1.2662,1.2662,1.2662,1.2662,1.1354,0.9879,0.9879,0.9879,0.9836,0.9623,0.9579,0.9531,0.9257,0.848,0.779,0.7786,0.7044,0.6343,0.6127,0.6083,0.5994,0.5733,0.5688,0.5688,0.5688,0.5688,0.5688,0.5688,0.5583,0.5462,0.5424,0.5257,0.4813,0.3878,0.3791,0.3402,0.2543,0.2308,0.2189,0.2189,0.1994,0.1447,0.0587,0.0392,-0.0118,-0.0904,-0.1178,-0.1296,-0.1296,-0.1296,-0.1296,1.9805,1.9932,1.9814,1.942,1.9618,1.9932,1.9932,1.9618,1.942,1.9814,1.9578,1.9219,1.8944,1.8681,1.8468,1.8303,1.8278,1.8366,1.8656,0.0,0.0,1.9262,1.9308,1.9067,0.0,0.0,0.0,0.0,0.0,0.0,0.0,1.6466,1.5717,1.4592,1.4394,1.4298,1.4298,1.4298,1.4298,1.4298,1.4298,1.4201,1.4026,1.3948,0.0,0.0,0.0,0.0,0.0,1.2916,1.2783,1.2705,1.2705,1.2705,1.2705,1.2705,1.2705,1.2705,1.2705,1.2705,1.2705,1.2705,1.2705,1.2705,1.2705,1.1837,1.0707,1.0096,1.0361,1.0842,1.0799,1.0761,1.0755,1.0664,0.9923,0.9183,0.9056,0.8794,0.8313,0.7441,0.7265,0.7003,0.6127,0.5952,0.5908,0.5733,0.5688,0.5688,0.5688,0.5656,0.5597,0.5435,0.5375,0.5149,0.4675,0.4621,0.4504,0.4229,0.3638,0.3283,0.3283,0.2542,0.1994,0.1682,0.1486,0.1251,0.1017,0.0939,0.0509,-0.0235,-0.0785,-0.1139,2.0469,2.0586,2.0508,2.0118,2.0313,2.0586,2.0586,2.0274,2.0071,2.0226,1.9956,1.9524,1.8891,1.8648,1.8434,1.8137,1.8292,1.854,1.8687,0.0,0.0,1.9301,0.0,0.0,0.0,0.0,0.0,0.0,0.0,0.0,0.0,0.0,1.6578,1.5663,1.4949,1.4544,1.4442,1.4344,1.4248,1.4147,1.4051,1.3918,1.3755,1.3652,0.0,0.0,0.0,0.0,0.0,1.2777,1.2705,1.2705,1.2705,1.2705,1.2705,1.2705,1.2705,1.2705,1.2705,1.2705,1.2705,1.2705,1.2705,1.2705,1.2705,1.2272,1.1714,1.1139,1.1359,1.1843,1.1843,1.1843,1.1843,1.1843,1.1101,1.0404,1.0279,0.9971,0.9449,0.8619,0.8488,0.8225,0.739,0.7261,0.7088,0.6479,0.6609,0.6605,0.6169,0.6346,0.6436,0.6301,0.6187,0.5984,0.5489,0.516,0.5018,0.5018,0.454,0.4265,0.4265,0.3599,0.3129,0.2815,0.2579,0.2305,0.1994,0.18,0.1253,0.0392,-0.0118,-0.0432,0.0,2.1318,2.1242,2.1203,2.1242,2.127,2.1201,2.1191,0.0,2.0514,2.0386,2.0071,1.9087,1.86,1.8278,1.8156,1.8137,1.8294,0.0,1.9054,0.0,0.0,1.9301,0.0,0.0,0.0,0.0,0.0,0.0,0.0,0.0,0.0,1.7311,1.7224,1.598,1.5156,1.4864,1.4518,1.4254,1.4009,1.3726,1.3553,1.3477,1.3236,0.0,0.0,0.0,0.0,0.0,1.2747,1.2747,1.2747,1.2747,1.2705,1.2705,1.2705,1.2705,1.2705,1.2705,1.2747,1.279,1.279,1.2747,1.2705,1.2705,1.2705,1.2705,1.2705,1.2705,1.2705,1.2705,1.2705,1.2705,1.2705,1.2015,1.1408,1.1408,1.0707,1.0009,0.9753,0.971,0.9618,0.93,0.9213,0.8869,0.779,0.8133,0.8129,0.7041,0.7438,0.7774,0.7707,0.7533,0.7078,0.6314,0.5511,0.5057,0.5018,0.5018,0.5018,0.5018,0.5018,0.4659,0.391,0.3634,0.3164,0.2386,0.1761,0.1254,0.0785,0.0707,0.0667,2.258,0.0,2.1787,2.1318,2.1558,2.178,0.0,2.0961,2.0616,2.0633,2.0215,1.9687,1.9142,1.8983,1.8768,1.8323,1.852,1.8695,1.8689,0.0,0.0,1.9301,1.9301,0.0,0.0,0.0,0.0,0.0,0.0,0.0,0.0,0.0,1.8319,1.7522,1.7194,1.6788,1.6334,1.5604,1.5172,1.512,1.4398,1.386,1.3509,1.3441,0.0,0.0,0.0,0.0,1.3009,1.3179,1.3137,1.3009,1.3009,1.2875,1.2705,1.2705,1.2705,1.2705,1.2705,1.3045,1.3476,1.3476,1.313,1.2705,1.2705,1.2705,1.2705,1.2705,1.2705,1.2705,1.2705,1.2705,1.2705,1.2705,1.2534,1.2357,1.2357,1.218,1.1837,1.1063,1.0885,1.0582,0.9662,0.9488,0.9357,0.8869,0.8607,0.8392,0.8129,0.7918,0.7774,0.7707,0.7533,0.7282,0.6995,0.6175,0.5479,0.5015,0.5018,0.5018,0.5018,0.5018,0.4898,0.474,0.4659,0.4543,0.4345,0.3599,0.3051,0.2737,0.1802,0.1293,2.2739,2.2615,2.2387,2.1838,2.1935,2.2088,2.1607,2.1201,2.0921,2.081,2.0495,2.0035,1.9339,1.9352,1.9357,1.8789,1.9259,0.0,0.0,0.0,1.9301,1.9301,0.0,0.0,0.0,0.0,0.0,0.0,0.0,0.0,0.0,0.0,1.8955,1.8397,1.8397,1.7916,1.699,1.6402,1.6024,1.5893,1.4902,1.4529,1.4653,1.4233,0.0,0.0,0.0,0.0,1.4448,1.4538,1.4538,1.4413,1.4006,1.3753,1.362,1.3421,1.3336,1.3379,1.3548,1.3851,1.4153,1.4153,1.3893,1.3633,1.3633,1.3633,1.3506,1.2875,1.2705,1.2705,1.2705,1.2705,1.2705,1.2705,1.2705,1.2705,1.2705,1.2705,1.2528,1.2057,1.1929,1.1752,1.1144,1.1009,1.0788,1.013,1.0086,0.9918,0.9396,0.9357,0.9322,0.9056,0.8748,0.8371,0.7789,0.7156,0.6514,0.5902,0.5592,0.5401,0.5401,0.5132,0.5018,0.5018,0.5018,0.4898,0.474,0.4304,0.3912,0.356,0.2898,0.2546,2.2422,2.2542,2.2695,2.2302,2.2204,2.2084,2.1592,2.1472,2.1376,2.0883,2.0785,2.052,1.9581,1.9822,1.9999,1.9508,0.0,0.0,2.0382,1.9923,1.9529,1.946,0.0,0.0,0.0,0.0,0.0,0.0,0.0,0.0,0.0,0.0,0.0,1.9301,1.9301,1.8722,1.7537,1.7151,1.6867,1.6622,1.5538,1.5399,1.6052,1.5316,0.0,0.0,0.0,0.0,1.6044,1.6085,1.6093,1.6011,1.5233,1.4949,1.4866,1.4503,1.4378,1.4426,1.481,1.4901,1.4817,1.4859,1.4776,1.4692,1.4692,1.4734,1.4566,1.3421,1.3003,1.2833,1.2833,1.2833,1.2875,1.2997,1.2918,1.2833,1.2833,1.279,1.2705,1.2705,1.2705,1.2705,1.2705,1.279,1.2485,1.1434,1.1789,1.1752,1.0707,1.0971,1.1139,1.0677,1.0299,0.971,0.8747,0.833,0.7897,0.7399,0.6556,0.6054,0.6054,0.5556,0.5287,0.5287,0.5171,0.4973,0.4618,0.454,0.4309,0.3997,0.3919,0.388,2.2299,2.2062,2.1789,2.1723,2.1701,2.157,2.1113,2.1004,2.0872,2.0325,2.0216,2.0162,2.002,2.04,2.0708,2.0502,0.0,2.1084,0.0,0.0,2.0702,0.0,0.0,0.0,0.0,0.0,0.0,0.0,0.0,0.0,0.0,0.0,0.0,1.9301,1.9301,1.9197,1.8995,1.8198,1.7791,1.7759,1.6837,1.6363,1.6314,1.6191,1.6101,0.0,0.0,1.6355,1.6355,1.6519,1.6478,1.6314,1.6191,1.6018,1.5797,1.5722,1.5722,1.5771,1.6049,1.5775,1.5311,1.5484,1.5151,1.4692,1.4692,1.4985,1.5269,1.5054,1.4314,1.3568,1.3568,1.3568,1.3688,1.4272,1.3977,1.3568,1.3568,1.3088,1.2705,1.2705,1.2705,1.2705,1.2705,1.3179,1.3307,1.2571,1.2656,1.2571,1.1837,1.1494,1.1209,1.0884,1.0671,1.0346,0.9937,0.9727,0.9539,0.9463,0.774,0.6749,0.6749,0.6672,0.6595,0.6595,0.6054,0.5747,0.5667,0.5168,0.4859,0.482,0.4465,0.4307,2.1882,2.165,2.1474,2.1408,2.1296,2.1102,2.0587,2.0478,2.0413,2.0162,2.0118,2.0194,2.0478,2.0926,2.1413,2.1854,0.0,2.1672,2.1672,0.0,0.0,0.0,0.0,0.0,0.0,0.0,0.0,0.0,0.0,0.0,0.0,0.0,0.0,0.0,1.9301,1.9301,1.9301,1.8895,1.8687,1.8687,1.7836,1.7594,1.7948,1.7464,1.7455,1.777,0.0,1.7948,1.7948,1.8078,1.8037,1.7908,1.7464,1.7172,1.7041,1.6846,1.6887,1.7107,1.7204,1.7049,1.6837,1.6927,1.6599,1.6188,1.6427,1.6468,1.6435,1.6304,1.547,1.4608,1.4608,1.444,1.4321,1.4608,1.444,1.4237,1.4237,1.4019,1.3675,1.3307,1.3222,1.3222,1.3222,1.3519,1.373,1.3766,1.3851,1.3802,1.3499,1.2954,1.2384,1.1863,1.1298,1.0776,1.0243,1.0013,0.9765,0.942,0.8542,0.7778,0.7242,0.7238,0.7126,0.6903,0.6595,0.644,0.644,0.617,0.6018,0.6018,0.5473,0.5201,2.1609,2.1363,2.1205,2.1197,2.0938,2.0665,2.0423,2.027,2.0205,2.0205,2.0205,2.0358,2.0807,2.1386,0.0,2.287,2.2628,2.2327,0.0,0.0,0.0,0.0,0.0,0.0,0.0,0.0,0.0,0.0,0.0,0.0,0.0,0.0,0.0,0.0,1.9301,1.9301,1.9301,1.9301,1.9301,1.9301,1.8607,1.8647,1.9262,1.8607,1.8687,1.9301,1.9301,1.9301,1.9301,1.9301,1.9301,1.9222,1.8567,1.8278,1.8287,1.7965,1.8055,1.8273,1.8201,1.8161,1.8161,1.804,1.7797,1.7595,1.7919,1.7878,1.7676,1.7456,1.6796,1.6098,1.585,1.5519,1.5269,1.5318,1.5193,1.5068,1.4943,1.4817,1.4566,1.4026,1.3942,1.3942,1.3942,1.4068,1.4272,1.465,1.4817,1.4859,1.4734,1.4169,1.3598,1.2958,1.2215,1.1512,1.0893,1.0697,1.04,0.9938,0.9453,0.8884,0.8075,0.8075,0.7927,0.7625,0.7476,0.7361,0.7246,0.7092,0.6976,0.6899,0.6363,0.6131,2.1873,2.1279,2.0744,2.1106,2.068,2.0314,2.0978,2.0839,2.0571,2.0571,2.0571,2.063,2.0874,2.1625,2.2422,2.2925,2.2964,2.2927,0.0,0.0,0.0,0.0,0.0,0.0,0.0,0.0,0.0,0.0,0.0,0.0,0.0,0.0,0.0,0.0,0.0,1.9301,1.9301,1.9301,1.9301,1.9301,1.9222,1.9222,1.9301,1.9222,1.9222,1.9301,1.9301,1.9301,1.9301,1.9301,1.9301,1.9301,1.9222,1.9222,1.9213,1.9183,1.9183,1.9143,1.8772,1.866,1.8571,1.8121,1.8,1.7959,1.7991,1.8282,1.8612,1.8571,1.8531,1.8201,1.7164,1.687,1.6919,1.7139,1.673,1.6147,1.5733,1.5151,1.4699,1.4657,1.4608,1.4608,1.4608,1.5151,1.536,1.4776,1.5235,1.5401,1.4776,1.4399,1.4067,1.3761,1.3379,1.303,1.2735,1.2686,1.2673,1.2636,1.0887,0.9803,0.9728,0.9728,0.9728,0.969,0.9155,0.8656,0.8304,0.7732,0.7276,0.6903,0.6865,0.6822,2.1766,2.1551,2.1368,2.1737,2.1296,2.085,2.1138,2.1094,2.1047,2.1354,2.1411,2.1628,2.24,2.2829,2.3172,2.3338,2.315,0.0,0.0,0.0,0.0,0.0,0.0,0.0,0.0,0.0,0.0,0.0,0.0,0.0,0.0,0.0,0.0,0.0,0.0,1.9301,1.9301,1.9301,1.9301,1.9301,1.9301,1.9301,1.9301,1.9301,1.9301,1.9301,1.9301,1.9301,1.9301,1.9301,1.9301,1.9301,1.9301,1.9301,1.9301,1.9301,1.9301,1.9262,1.9112,1.9073,1.9033,1.8873,1.8643,1.8482,1.8714,1.8763,1.874,1.9002,1.9073,1.8913,1.8233,1.7829,1.7659,1.7757,1.7587,1.7343,1.7172,1.6722,1.627,1.5858,1.5526,1.5318,1.5318,1.5526,1.5775,1.5899,1.6154,1.616,1.5701,1.5153,1.4634,1.4156,1.3475,1.3026,1.2907,1.29,1.29,1.29,1.2194,1.1663,1.1391,1.1391,1.1279,1.1019,1.0789,1.0415,0.99,0.9669,0.9296,0.8775,0.8389,0.8084,2.1851,2.1788,2.1788,2.2123,2.1769,2.1411,2.1694,2.1537,2.1487,2.1997,2.2145,2.248,2.334,2.3557,0.0,0.0,0.0,0.0,0.0,0.0,0.0,0.0,0.0,0.0,0.0,0.0,0.0,0.0,0.0,0.0,0.0,0.0,0.0,0.0,0.0,1.9805,1.9578,1.9805,1.9805,1.9569,1.9569,1.9499,1.9301,1.9301,1.9301,1.9301,1.9301,1.9301,1.9301,1.9301,1.9301,1.9301,1.9301,1.9301,1.9301,1.9301,1.9301,1.9341,1.9539,1.946,1.9341,1.9539,1.9271,1.8922,1.9231,1.9231,1.924,1.9499,1.9726,1.9805,1.932,1.8794,1.8393,1.8241,1.8201,1.8161,1.804,1.7797,1.7473,1.7009,1.664,1.6394,1.627,1.6229,1.6402,1.6853,1.6798,1.6678,1.6436,1.5811,1.5104,1.4462,1.3829,1.3441,1.3441,1.3441,1.3441,1.3441,1.3441,1.3142,1.2505,1.2505,1.2352,1.2094,1.2094,1.1798,1.1285,1.1285,1.0987,1.047,1.0045,0.9593,2.2228,2.1956,2.1788,2.2123,2.1956,2.1932,2.2714,2.2285,2.1879,2.2401,2.2742,2.3042,2.3431,2.3557,0.0,0.0,0.0,0.0,0.0,0.0,0.0,0.0,0.0,0.0,0.0,0.0,0.0,0.0,0.0,0.0,0.0,0.0,0.0,0.0,0.0,0.0,2.0206,2.0857,2.0857,2.0196,2.0196,1.9883,1.9301,1.9301,1.9301,1.9301,1.9301,1.9301,1.9301,1.9301,1.9301,1.9301,1.9301,1.9301,1.9301,1.9301,1.9301,1.942,2.001,1.9814,1.942,2.001,1.9814,1.9301,1.9301,1.9736,2.0196,2.0196,2.0702,2.1049,2.0391,1.9775,1.9222,1.8812,1.87,1.8571,1.8121,1.8,1.8,1.8,1.8,1.7878,1.7473,1.7432,1.7392,1.7432,1.707,1.683,1.687,1.6195,1.5426,1.4709,1.4605,1.4605,1.4605,1.4605,1.4605,1.4605,1.4605,1.4093,1.2966,1.2936,1.2936,1.2936,1.2936,1.2703,1.2308,1.2308,1.2117,1.1712,1.1712,1.1391,2.2787,2.2635,2.2653,2.3083,2.2854,2.2671,2.3263,2.2997,2.2862,2.3714,2.4257,2.4614,2.4732,2.4589,0.0,0.0,0.0,0.0,0.0,0.0,0.0,0.0,0.0,0.0,0.0,0.0,0.0,0.0,0.0,0.0,0.0,0.0,0.0,0.0,0.0,0.0,2.0895,2.1088,2.1088,2.0895,2.0895,2.0352,1.9301,1.9301,1.9301,1.9301,1.9301,1.9301,1.9341,1.9775,1.9932,1.9932,1.9932,2.0235,2.0586,2.0118,2.0235,2.0653,2.0857,2.0779,2.0663,2.0857,2.0779,2.0624,2.0624,2.0779,2.0895,2.0895,2.1049,2.1165,2.0972,2.0779,2.0391,1.9341,1.9112,1.9073,1.8944,1.8683,1.8491,1.8491,1.8625,1.8656,1.8536,1.8536,1.8399,1.8079,1.7557,1.7175,1.7048,1.6965,1.6816,1.6585,1.5983,1.5596,1.5596,1.4982,1.4605,1.4605,1.4605,1.4461,1.4093,1.4101,1.4101,1.4101,1.4101,1.3833,1.3346,1.3346,1.3098,1.2556,1.2556,1.2291,2.3017,2.3047,2.3245,2.3518,2.3382,2.3359,2.4106,2.4104,2.4159,2.5012,2.5468,2.5709,2.5664,2.5347,0.0,0.0,0.0,0.0,0.0,0.0,0.0,0.0,0.0,0.0,0.0,0.0,0.0,0.0,0.0,0.0,0.0,0.0,0.0,0.0,0.0,0.0,2.1558,2.1814,2.1776,2.1558,2.1558,2.1049,2.004,1.9766,1.9805,2.004,2.004,2.004,2.0079,2.0469,2.0586,2.0586,2.0586,2.0857,2.1165,2.0741,2.0857,2.1242,2.1471,2.1395,2.1242,2.1471,2.1395,2.1203,2.1203,2.1357,2.1558,2.1558,2.1749,2.1852,2.1634,2.1558,2.128,2.0274,2.004,2.004,2.004,1.9854,1.9696,1.9696,1.9805,1.9769,1.9375,1.9308,1.916,1.8675,1.818,1.7769,1.7471,1.7417,1.7404,1.7404,1.6879,1.6567,1.6567,1.6053,1.5675,1.5596,1.5596,1.5428,1.5098,1.4784,1.4605,1.4605,1.4605,1.4453,1.4129,1.4129,1.3949,1.3586,1.3586,1.3324,2.3168,2.3335,2.3666,2.3725,2.3725,2.4008,2.513,2.5382,2.5601,2.6154,2.6388,2.6424,2.6289,2.5965,0.0,0.0,0.0,0.0,0.0,0.0,0.0,0.0,0.0,0.0,0.0,0.0,0.0,0.0,0.0,0.0,0.0,0.0,0.0,0.0,0.0,0.0,2.2289,2.2852,2.2815,0.0,2.2289,2.1977,2.1395,2.0624,2.0624,2.1203,2.1203,2.1203,2.1203,2.1242,2.128,2.128,2.128,2.1318,2.1357,2.1318,2.1318,2.1433,2.1987,2.1825,2.1433,2.2014,2.1825,2.1357,2.1357,2.1749,2.2176,2.2176,2.259,2.2889,2.2327,2.2176,2.2063,2.1471,2.128,2.1203,2.1203,2.1203,2.1203,2.1203,2.1211,2.0936,2.0112,1.9891,1.9678,1.9175,1.8844,1.8537,1.8187,1.7857,1.7643,1.7643,1.7575,1.7541,1.7541,1.7438,1.7326,1.7145,1.7136,1.6766,1.5965,1.5133,1.4669,1.4605,1.4669,1.4713,1.4713,1.4776,1.4812,1.4812,1.4812,1.4517,2.4118,2.406,2.4234,2.4622,2.4708,2.4895,2.562,2.6126,2.6538,2.6788,2.6849,2.6858,2.6837,2.6769,0.0,0.0,0.0,0.0,0.0,0.0,0.0,0.0,0.0,0.0,0.0,0.0,0.0,0.0,0.0,0.0,0.0,0.0,0.0,0.0,0.0,2.3567,2.3751,2.3861,2.3861,0.0,2.3751,2.3519,2.3027,2.1624,2.1049,2.1203,2.1203,2.1203,2.1242,2.1711,2.1911,2.1911,2.1911,2.2203,2.2542,2.209,2.2214,2.2617,2.2767,2.274,2.2617,2.2767,2.274,2.2617,2.2617,2.2692,2.2815,2.2815,2.2889,2.2964,2.2852,2.2815,2.2777,2.2654,2.189,2.1203,2.1203,2.1203,2.1203,2.1203,2.1261,2.1291,2.1077,2.0757,2.0196,1.9253,1.9137,1.9114,1.9044,1.932,1.9528,1.9528,1.8911,1.8489,1.8489,1.7813,1.737,1.7326,1.7326,1.7189,1.6835,1.5991,1.524,1.4605,1.524,1.5551,1.5551,1.614,1.6411,1.6411,1.6411,1.6026,2.4436,2.4465,2.4708,2.4948,2.5005,2.5168,2.5751,2.6145,2.6563,2.7194,2.7558,2.7676,2.7443,0.0,0.0,0.0,0.0,0.0,0.0,0.0,0.0,0.0,0.0,0.0,0.0,0.0,0.0,0.0,0.0,0.0,0.0,0.0,0.0,0.0,2.4007,2.397,2.42,2.3959,2.3833,2.3797,2.358,2.3313,2.3112,2.2402,2.189,2.1634,2.1939,2.2042,2.208,2.2392,2.2515,2.2515,2.2515,2.274,2.2964,2.2665,2.274,2.3001,2.3001,2.3001,2.3001,2.3001,2.3001,2.3001,2.3001,2.3001,2.3001,2.3001,2.3001,2.3001,2.3001,2.3001,2.3001,2.3001,2.2505,2.2042,2.2042,2.1885,2.1728,2.1728,2.1617,2.1403,2.1214,2.0741,2.022,1.9661,1.9654,1.9693,1.9693,1.9944,2.0118,2.0118,1.9693,1.9419,1.9419,1.8977,1.8677,1.86,1.86,1.8355,1.7804,1.7335,1.6655,1.5719,1.6167,1.6411,1.6315,1.6724,1.6897,1.6897,1.6897,1.6689,2.4536,2.4708,2.5005,2.5005,2.5005,2.5127,2.5629,2.5819,2.6172,2.7176,2.7949,2.8336,0.0,0.0,0.0,0.0,0.0,0.0,0.0,0.0,0.0,0.0,0.0,0.0,0.0,0.0,0.0,0.0,0.0,0.0,0.0,0.0,2.408,2.4115,2.4068,2.408,2.4115,2.3699,2.3491,2.3444,2.296,2.2718,2.2707,2.2847,2.2676,2.2195,2.2702,2.2941,2.2955,2.2955,2.2999,2.3113,2.3113,2.315,2.3224,2.3224,2.3224,2.3187,2.315,2.3113,2.3075,2.3038,2.3001,2.3001,2.3075,2.3113,2.3113,2.3113,2.3113,2.3054,2.2903,2.2881,2.2859,2.2783,2.2761,2.2783,2.2859,2.2521,2.2193,2.2193,2.18,2.1343,2.085,2.038,2.0118,2.0118,2.0118,2.0118,2.0118,2.0118,2.0118,2.0118,2.0118,2.0118,2.0118,2.0118,2.0042,1.9933,1.9933,1.9561,1.8777,1.8777,1.8331,1.7379,1.736,1.7292,1.7173,1.731,1.7345,1.731,1.731,1.7242,2.492,2.4948,2.5005,2.5005,2.5005,2.5032,2.51,2.552,2.5941,0.0,2.704,0.0,0.0,0.0,0.0,0.0,0.0,0.0,0.0,0.0,0.0,0.0,0.0,0.0,0.0,0.0,0.0,0.0,0.0,0.0,0.0,2.3561,2.3494,2.3843,2.3528,2.3494,2.3843,2.3771,2.3735,2.3735,2.3317,2.3136,2.3102,2.2788,2.2605,2.2536,2.2605,2.2726,2.2822,2.2822,2.3103,2.3519,2.3519,2.3751,2.4043,2.4043,2.4043,2.397,2.3629,2.3519,2.3446,2.3113,2.3001,2.3075,2.3409,2.3519,2.3519,2.3519,2.3519,2.3356,2.2582,2.2411,2.2302,2.1876,2.1778,2.1898,2.2324,2.2029,2.1691,2.1691,2.1321,2.0839,2.0292,2.0162,2.0118,2.0118,2.0118,2.0118,2.0118,2.0118,2.0118,2.0118,2.0118,2.0118,2.0118,2.0118,2.0074,2.0074,2.0074,1.9976,1.9726,1.9835,1.9671,1.9231,1.8643,1.8297,1.8297,1.8921,1.9164,1.8965,1.8965,1.8586,2.5005,2.5005,2.5005,2.5005,2.5005,2.5005,2.5005,2.5208,2.5493,2.5819,2.6321,0.0,0.0,0.0,0.0,0.0,0.0,0.0,0.0,0.0,0.0,0.0,0.0,0.0,0.0,0.0,0.0,0.0,0.0,0.0,2.3818,2.3628,2.3628,2.3794,2.3628,2.3628,2.3806,2.3505,2.3216,2.2883,2.2711,2.2647,2.2614,2.2453,2.2453,2.2605,2.2605,2.264,2.2683,2.2683,2.2842,2.3035,2.3035,2.3152,2.3293,2.3293,2.3293,2.3338,2.3447,2.3489,2.3498,2.3624,2.3646,2.3635,2.3825,2.3863,2.3757,2.3503,2.363,2.3675,2.3029,2.3064,2.3166,2.2911,2.2699,2.2581,2.2703,2.1924,2.1135,2.0839,2.0609,2.049,2.0637,2.0667,2.0796,2.1155,2.1219,2.1092,2.07,2.0667,2.0518,2.0151,2.0118,2.0118,2.0118,2.0118,2.027,2.0635,2.0667,2.0784,2.1112,2.1187,2.1155,2.1017,1.9868,1.922,1.9121,1.944,1.9539,1.9483,1.9483,1.9274,2.5005,2.5005,2.5005,2.5005,2.5005,2.5005,2.5005,2.5005,2.5127,0.0,0.0,0.0,0.0,0.0,0.0,0.0,0.0,0.0,0.0,0.0,0.0,0.0,0.0,0.0,0.0,0.0,0.0,0.0,0.0,0.0,2.3591,2.3559,2.3559,2.3559,2.3462,2.3396,2.3396,2.3011,2.2614,2.2197,2.2309,2.2371,2.2371,2.2512,2.2665,2.2834,2.2725,2.2762,2.2913,2.2779,2.2827,2.291,2.2786,2.2888,2.3078,2.3078,2.3146,2.3305,2.3603,2.371,2.3734,2.405,2.413,2.4084,2.4198,2.4177,2.4092,2.3743,2.3862,2.4022,2.343,2.3558,2.3782,2.3563,2.3306,2.3088,2.2987,2.2107,2.1203,2.0799,2.0732,2.088,2.1408,2.1428,2.1585,2.207,2.2132,2.1916,2.1408,2.1345,2.1155,2.0667,2.0603,2.0603,2.0603,2.0603,2.0816,2.1313,2.1345,2.1585,2.2082,2.2101,2.2101,2.2101,2.1017,2.0399,2.0237,2.0237,2.0237,2.0172,2.0172,2.015,2.5005,2.5005,2.5005,2.5005,2.5005,2.5005,2.5005,2.5005,2.5018,2.5046,0.0,0.0,0.0,0.0,0.0,0.0,0.0,0.0,0.0,0.0,0.0,0.0,0.0,0.0,0.0,0.0,0.0,0.0,0.0,0.0,2.299,2.2935,2.2935,2.2935,2.2517,2.227,2.227,2.2246,2.2221,2.2197,2.2635,2.2848,2.2878,2.3322,2.3514,2.3518,2.3092,2.3207,2.3704,2.3242,2.3353,2.3779,2.3325,2.367,2.4406,2.4406,2.4686,2.5007,2.4653,2.4524,2.4491,2.4132,2.4022,2.4063,2.4446,2.4564,2.4539,2.4551,2.4551,2.4382,2.3519,2.3308,2.3217,2.277,2.2665,2.2628,2.2641,2.258,2.2506,2.2482,2.247,2.247,2.2512,2.2366,2.2243,2.2262,2.2194,2.2082,2.2039,2.2039,2.2039,2.2021,2.2021,2.2021,2.2021,2.2021,2.2009,2.2039,2.2039,2.207,2.2101,2.2101,2.2101,2.2101,2.2009,2.1978,2.1978,2.1978,2.1896,2.1784,2.1784,2.169,2.5005,2.5005,2.5005,2.5005,2.5005,2.5005,2.5005,2.5005,2.5005,2.5005,0.0,0.0,0.0,0.0,0.0,0.0,0.0,0.0,0.0,0.0,0.0,0.0,0.0,0.0,0.0,0.0,0.0,0.0,0.0,0.0,2.3395,2.3352,2.3352,2.3352,2.3173,2.3095,2.3095,2.3095,2.3095,2.3113,2.3263,2.3352,2.3352,2.3518,2.3754,2.4047,2.3884,2.3765,2.3661,2.348,2.3532,2.3678,2.3536,2.3641,2.3918,2.3918,2.404,2.4213,2.4398,2.4462,2.4494,2.4708,2.4747,2.4723,2.4872,2.4888,2.478,2.4481,2.4631,2.4711,2.409,2.4157,2.4341,2.4173,2.4076,2.4047,2.4134,2.3682,2.3118,2.2683,2.2592,2.2743,2.3177,2.3177,2.3297,2.3725,2.3623,2.3344,2.2925,2.2804,2.2561,2.2132,2.2194,2.2212,2.2212,2.2347,2.2561,2.2852,2.2864,2.3027,2.3365,2.3395,2.3395,2.3395,2.3395,2.295,2.2101,2.2101,2.2082,2.2021,2.2021,2.199,2.5005,2.5005,2.5005,2.5005,2.5005,2.5005,2.5005,2.5005,2.5005,2.5005,0.0,0.0,0.0,0.0,0.0,0.0,0.0,0.0,0.0,0.0,0.0,0.0,0.0,0.0,0.0,0.0,0.0,0.0,0.0,0.0,2.3872,2.3842,2.3754,2.3607,2.3607,2.3607,2.3607,2.3607,2.3607,2.3607,2.3754,2.3842,2.3842,2.3989,2.4234,2.4523,2.4523,2.435,2.406,2.3901,2.3842,2.3813,2.3666,2.3695,2.3842,2.3842,2.393,2.4112,2.4488,2.4588,2.4653,2.5014,2.5099,2.5079,2.5079,2.5058,2.492,2.4622,2.4765,2.492,2.4622,2.4765,2.5005,2.5005,2.492,2.4892,2.4977,2.4494,2.393,2.3505,2.3416,2.3564,2.3989,2.4018,2.4147,2.4607,2.452,2.4234,2.3771,2.3666,2.3416,2.2997,2.3015,2.3075,2.3075,2.3195,2.3386,2.3712,2.3741,2.3914,2.4245,2.4287,2.4245,2.4157,2.4376,2.4002,2.3062,2.2877,2.2768,2.2768,2.2768,2.2768,0.0,0.0,0.0,2.5005,2.5005,2.5005,2.5005,2.5005,2.5005,0.0,0.0,0.0,0.0,0.0,0.0,0.0,0.0,0.0,0.0,0.0,0.0,0.0,0.0,0.0,0.0,0.0,0.0,0.0,0.0,2.4793,2.435,2.4321,2.4105,2.3666,2.3636,2.3636,2.3636,2.3636,2.3636,2.3636,2.4105,2.4321,2.435,2.4793,2.5005,2.5005,2.5005,2.5005,2.4977,2.4494,2.4321,2.4292,2.3813,2.3901,2.4321,2.4321,2.4622,2.5005,2.5005,2.5005,2.5005,2.5005,2.5005,2.5005,2.5005,2.5005,2.5005,2.5005,2.5005,2.5005,2.5033,2.5033,2.5061,2.5061,2.5061,2.5061,2.5061,2.5061,2.5033,2.5005,2.5005,2.5005,2.5033,2.492,2.4835,2.4863,2.475,2.4677,2.4677,2.4635,2.4635,2.462,2.462,2.4607,2.462,2.462,2.4649,2.462,2.4649,2.4635,2.4649,2.4649,2.4549,2.435,2.4922,2.5161,2.5033,2.4447,2.4141,2.4141,2.4141,2.4141,2.5647,0.0,0.0,0.0,0.0,0.0,2.5075,2.5005,2.5005,0.0,0.0,0.0,0.0,0.0,0.0,0.0,0.0,0.0,0.0,0.0,0.0,0.0,0.0,0.0,0.0,0.0,0.0,0.0,2.492,2.4948,2.4793,2.4806,2.4736,2.4622,2.4622,2.4622,2.4622,2.4622,2.4622,2.4622,2.4736,2.4806,2.4793,2.4948,2.5005,2.5005,2.5005,2.5005,2.4977,2.4863,2.4806,2.4793,2.465,2.4708,2.4806,2.4806,2.4892,2.5005,2.5005,2.5005,2.5005,2.5005,2.5005,2.5005,2.5005,2.5005,2.5005,2.5005,2.5005,2.509,2.5536,2.5947,2.6242,2.6242,2.6242,2.6242,2.6242,2.6242,2.5973,2.516,2.5005,2.5146,2.5591,2.5619,2.5743,2.6135,2.6068,2.596,2.596,2.5837,2.5618,2.5217,2.5273,2.5175,2.4778,2.523,2.5467,2.5328,2.5742,2.5906,2.5769,2.5769,2.5741,2.5673,2.5836,2.5918,2.5877,2.5522,2.5328,2.5328,2.5328,2.5118,0.0,0.0,0.0,0.0,0.0,0.0,2.5425,2.537,2.5342,0.0,0.0,0.0,0.0,0.0,0.0,0.0,0.0,0.0,0.0,0.0,0.0,0.0,0.0,0.0,0.0,0.0,0.0,0.0,2.5005,2.5005,2.5005,2.5005,2.5005,2.5005,2.5005,2.5005,2.5005,2.5005,2.5005,2.5005,2.5005,2.5005,2.5005,2.5005,2.5005,2.5005,2.5005,2.5005,2.5005,2.5005,2.5005,2.5005,2.5005,2.5005,2.5005,2.5005,2.5005,2.5005,2.5005,2.5005,2.5005,2.5005,2.5005,2.5005,2.5005,2.5174,2.537,2.537,2.5536,2.5797,2.6149,2.6455,2.6704,2.6704,2.6704,2.6704,2.6704,2.6704,2.6493,2.5837,2.5715,2.5824,2.6176,2.6229,2.6336,2.6651,2.664,2.6587,2.6587,2.6467,2.6293,2.5986,2.6013,2.5932,2.5632,2.5987,2.6176,2.6067,2.6375,2.6534,2.64,2.64,2.6373,2.6334,2.6532,2.6756,2.6953,2.6281,2.5932,2.5877,2.5877,2.5728,0.0,0.0,0.0,0.0,2.5934,0.0,2.5921,2.5893,2.5839,2.5592,0.0,0.0,0.0,0.0,0.0,0.0,0.0,0.0,0.0,0.0,0.0,0.0,0.0,0.0,0.0,2.5005,2.5005,2.5005,2.5005,2.5005,2.5033,2.5033,2.5005,2.5005,2.5005,2.5005,2.5005,2.5005,2.5005,2.5005,2.5005,2.5005,2.5005,2.5005,2.5033,2.509,2.509,2.5146,2.5188,2.5188,2.5104,2.5005,2.5005,2.5005,2.5005,2.509,2.509,2.5118,2.516,2.5188,2.5188,2.5188,2.5188,2.5188,2.5188,2.5578,2.5988,2.5988,2.639,2.6782,2.6782,2.6834,2.6901,2.6901,2.6901,2.6901,2.6901,2.6901,2.6901,2.6901,2.6782,2.6704,2.6782,2.6782,2.6808,2.6875,2.6901,2.6901,2.6901,2.6901,2.686,2.6808,2.6782,2.6756,2.6704,2.6756,2.6782,2.6782,2.6834,2.6901,2.6901,2.6901,2.6823,2.6721,2.7185,2.7645,2.8044,2.6927,2.6347,2.6213,2.6213,2.6187,0.0,0.0,0.0,0.0,0.0,0.0,2.5948,2.5893,2.5893,0.0,0.0,0.0,0.0,0.0,0.0,0.0,0.0,0.0,0.0,0.0,0.0,0.0,0.0,0.0,0.0,2.5005,2.5005,2.5005,2.5005,2.5131,2.5383,2.5159,2.5005,2.5005,2.5005,2.5005,2.5005,2.5005,2.5005,2.5005,2.5005,2.5005,2.5005,2.5005,2.5258,2.5729,2.5729,2.5974,2.6361,2.6361,2.5837,2.5005,2.5005,2.5005,2.5061,2.5564,2.5729,2.5784,2.6215,2.6361,2.6361,2.6361,2.6361,2.6361,2.6361,2.6455,2.6534,2.6534,2.6912,2.7338,2.7338,2.7695,2.8088,2.8088,2.8088,2.8088,2.8088,2.8088,2.8088,2.8088,2.7327,2.6834,2.7272,2.7338,2.7504,2.7999,2.8088,2.8088,2.8088,2.8088,2.7885,2.7414,2.7338,2.717,2.673,2.7093,2.7338,2.7338,2.7795,2.8088,2.8088,2.8088,2.8063,2.8039,2.8137,2.821,2.8339,2.7865,2.765,2.7625,2.7625,2.7342,0.0,0.0,0.0,2.6592,0.0,0.0,0.0,2.634,2.6299,2.6123,2.6392,0.0,0.0,0.0,0.0,0.0,0.0,0.0,0.0,0.0,0.0,0.0,0.0,0.0,0.0,2.5005,2.5061,2.5257,2.5257,2.5313,2.5494,2.5467,2.5314,2.5005,2.5159,2.5257,2.5257,2.537,2.555,2.5756,2.5878,2.5973,2.604,2.604,2.6201,2.6481,2.6416,2.6549,2.6782,2.673,2.6361,2.5837,2.5837,2.5837,2.5864,2.6203,2.6283,2.6336,2.6613,2.6704,2.6704,2.6782,2.6797,2.6808,2.6886,2.7041,2.7261,2.7555,2.7795,2.7959,2.7959,2.8186,2.8411,2.8411,2.8411,2.8411,2.8411,2.8411,2.8411,2.8411,2.7949,2.762,2.791,2.7959,2.8048,2.8348,2.8411,2.8411,2.8411,2.8411,2.8275,2.7984,2.7959,2.7845,2.757,2.7795,2.7959,2.7959,2.8235,2.8411,2.8411,2.8411,2.8411,2.8411,2.8411,2.8411,2.8411,2.8266,2.8168,2.8103,2.8103,2.8106,0.0,0.0,0.0,0.0,0.0,2.6806,0.0,0.0,0.0,2.6445,0.0,0.0,0.0,0.0,0.0,0.0,0.0,0.0,0.0,0.0,0.0,0.0,0.0,0.0,0.0,2.5175,2.5286,2.5467,2.5702,2.5771,2.5702,2.5961,2.592,2.5425,2.5674,2.5825,2.5825,2.6015,2.6297,2.6628,2.6849,2.699,2.7104,2.7104,2.7155,2.7257,2.7144,2.7159,2.7261,2.7159,2.7108,2.7067,2.6834,2.673,2.6756,2.6886,2.6938,2.6964,2.7067,2.7108,2.7133,2.7236,2.7276,2.7302,2.7399,2.764,2.7993,2.8501,2.8565,2.8484,2.8484,2.846,2.8444,2.8444,2.8444,2.8444,2.8444,2.846,2.8484,2.8484,2.846,2.842,2.8396,2.8411,2.8411,2.8411,2.8411,2.8411,2.8411,2.8411,2.8411,2.8411,2.8411,2.8411,2.8411,2.8411,2.8411,2.8411,2.8411,2.8411,2.8411,2.8493,2.8573,2.8668,2.8668,2.8668,2.8668,2.8713,2.8568,2.8235,2.8373,2.8725,0.0,0.0,0.0,0.0,2.6806,0.0,0.0,0.0,2.6779,2.6753,0.0,0.0,0.0,0.0,0.0,0.0,0.0,0.0,0.0,0.0,0.0,0.0,0.0,0.0,0.0,0.0,0.0,2.5522,2.639,2.6756,2.6404,2.6756,2.6923,2.6857,2.6898,2.6923,2.6923,2.6949,2.7001,2.7027,2.7052,2.7104,2.7104,2.7104,2.7359,2.7799,2.7799,2.8076,2.8589,2.8565,2.8565,2.8453,2.7327,2.6875,2.6953,2.755,2.775,2.7839,2.8365,2.8565,2.8565,2.8589,2.8589,2.8589,2.8612,2.8636,2.8684,2.8771,2.8771,2.8747,2.8747,2.866,2.8573,2.8573,2.8573,2.8573,2.8573,2.866,2.8747,2.8747,2.866,2.8541,2.842,2.8411,2.8411,2.8411,2.8411,2.8411,2.8411,2.8411,2.8411,2.8411,2.8411,2.8411,2.8411,2.8411,2.8411,2.8411,2.8411,2.8411,2.8411,2.8803,2.9227,2.9617,2.9655,2.9655,2.9655,2.9823,2.9373,2.8387,2.8987,2.931,0.0,0.0,0.0,0.0,0.0,0.0,2.6806,0.0,2.6806,0.0,0.0,0.0,0.0,0.0,0.0,0.0,0.0,0.0,0.0,0.0,0.0,0.0,0.0,0.0,0.0,0.0,0.0,0.0,0.0,2.7246,2.7082,2.7399,2.7409,2.7104,2.7257,2.7323,2.7323,2.7485,2.7685,2.7923,2.807,2.8192,2.8255,2.8255,2.8376,2.8583,2.8511,2.8622,2.8858,2.8818,2.8794,2.8747,2.8247,2.8027,2.8033,2.8326,2.8414,2.8462,2.8708,2.8794,2.8818,2.8858,2.8905,2.8975,2.8975,2.8928,2.8858,2.8858,2.8826,2.8794,2.8794,2.8771,2.8708,2.8708,2.8889,2.9051,2.9051,2.9325,2.9556,2.9556,2.9512,2.9451,2.94,2.885,2.8436,2.8517,2.8517,2.8541,2.8628,2.8628,2.8628,2.8628,2.8628,2.8604,2.8517,2.8517,2.8621,2.8834,2.9196,2.9384,2.9384,2.9585,2.9767,2.9978,3.032,3.0504,3.0504,3.0967,3.0966,3.0482,3.0145,3.0351,2.6806,0.0,0.0,0.0,0.0,0.0,0.0,0.0,0.0,0.0,0.0,0.0,0.0,0.0,0.0,0.0,0.0,0.0,0.0,0.0,0.0,0.0,0.0,0.0,0.0,0.0,0.0,0.0,0.0,0.0,2.7665,2.8012,2.8061,2.766,2.7839,2.7938,2.7938,2.8134,2.8367,2.8669,2.8858,2.9013,2.9098,2.9098,2.9098,2.9075,2.899,2.8943,2.8943,2.8905,2.8873,2.8873,2.8936,2.8936,2.8873,2.8873,2.8873,2.8873,2.8873,2.8873,2.8897,2.8959,2.9013,2.9098,2.9098,2.9029,2.8943,2.8943,2.8928,2.8873,2.8873,2.885,2.8873,2.899,2.9227,2.9489,2.9607,2.994,3.0218,3.0218,3.0175,3.0154,3.0154,2.9445,2.8881,2.8997,2.902,2.9013,2.8975,2.8975,2.8905,2.8818,2.8794,2.8803,2.8803,2.8826,2.8997,2.9429,2.9876,3.0258,3.0582,3.0582,3.0761,3.1103,3.1548,3.177,3.177,3.2311,3.2557,3.2511,3.1544,3.1577,0.0,0.0,0.0,2.6806,0.0,0.0,0.0,0.0,2.7273,0.0,0.0,0.0,0.0,0.0,0.0,0.0,0.0,0.0,0.0,0.0,0.0,0.0,0.0,0.0,0.0,0.0,0.0,0.0,0.0,0.0,2.8125,2.8693,2.9052,2.9029,2.9029,2.9052,2.9052,2.9052,2.9075,2.9075,2.9075,2.9098,2.9098,2.9098,2.9098,2.9098,2.9098,2.9075,2.9075,2.9075,2.9091,2.9091,2.9075,2.9075,2.9091,2.9091,2.9091,2.9091,2.9091,2.9091,2.9075,2.9075,2.9098,2.9098,2.9098,2.9098,2.9075,2.9075,2.9075,2.9091,2.9091,2.899,2.8997,2.9477,2.9572,2.9728,3.0166,3.0377,3.0497,3.0497,3.0377,3.0293,3.0293,3.0171,3.0053,3.0053,3.0053,2.9897,2.9451,2.9384,2.9234,2.8826,2.8794,2.8951,2.9339,2.9361,2.9569,3.0031,3.0074,3.062,3.1792,3.1826,3.242,3.3666,3.3717,3.3697,3.3697,3.3932,3.3979,3.3827,3.3199,3.2927,0.0,0.0,2.6806,2.6806,0.0,0.0,0.0,0.0,0.0,0.0,0.0,0.0,0.0,0.0,0.0,0.0,0.0,0.0,0.0,0.0,0.0,0.0,0.0,0.0,0.0,0.0,0.0,0.0,0.0,0.0,0.0,2.8982,2.9098,2.9098,2.9098,2.9098,2.9098,2.9098,2.9098,2.9098,2.9098,2.9098,2.9098,2.9098,2.9098,2.9098,2.9098,2.9098,2.9098,2.9098,2.9098,2.9121,2.9432,2.9566,2.9566,2.9566,2.9566,2.9611,2.9924,3.0032,3.0032,3.0032,3.0032,2.9968,2.9655,2.9566,2.9566,2.9566,2.9566,2.9633,2.9946,2.9973,2.9995,3.0161,3.0398,3.0645,3.0788,3.1103,3.1353,3.1353,3.1315,3.1295,3.1295,3.1276,3.1007,3.0318,3.0234,3.0192,3.0145,3.0145,3.0081,2.9924,2.9941,2.9946,2.9995,3.0222,3.0688,3.1375,3.1753,3.2369,3.3331,3.3365,3.3562,3.3977,3.4377,3.4597,3.4614,3.5117,3.5326,3.5282,3.5088,3.4708,2.6806,2.6806,0.0,2.6806,2.6806,0.0,2.6806,0.0,0.0,0.0,0.0,0.0,0.0,0.0,0.0,0.0,0.0,0.0,0.0,2.9098,0.0,0.0,0.0,0.0,0.0,0.0,0.0,0.0,0.0,0.0,0.0,0.0,2.9098,2.9098,2.9098,2.9098,2.9098,2.9098,2.9098,2.9098,2.9098,2.9098,2.9098,2.9098,2.9098,2.9098,2.9266,2.9243,2.9121,2.9454,2.9499,2.9403,2.9875,3.0054,3.0054,3.0054,3.0054,3.0097,3.0393,3.0497,3.0497,3.0497,3.0497,3.0456,3.014,3.0054,3.0054,3.0054,3.0054,3.0118,3.0435,3.0497,3.0539,3.0683,3.0908,3.1142,3.1315,3.1596,3.18,3.18,3.18,3.18,3.18,3.18,3.1579,3.0925,3.0845,3.0788,3.0707,3.0707,3.0662,3.0518,3.0497,3.0518,3.0584,3.1223,3.1837,3.2349,3.297,3.368,3.4456,3.4493,3.4493,3.4493,3.5136,3.5335,3.506,3.5771,3.6105,3.6062,3.6062,3.5761]}]]